     2              OBSERVATION DATA    GPS                 RINEX VERSION / TYPE
teqc 2002Apr3 20041109 01:33:02UTC                          PGM / RUN BY / DATE
                                                            COMMENT
L2: 1 -> 1; 5 -> 5; 60 -> 9                                 COMMENT
L2: 1 -> 1; 5 -> 5; 60 -> 9                                 COMMENT
L2: 1 -> 1; 5 -> 5; 60 -> 9                                 COMMENT
L2: 1 -> 1; 5 -> 5; 60 -> 9                                 COMMENT
L2: 1 -> 1; 5 -> 5; 60 -> 9                                 COMMENT
Original Marker Name: 0990                                  COMMENT
Campaign Name: CSRC/Caltrans post-San Simeon                COMMENT
4-Character Station Name: H316                              COMMENT
6-Character Antenna Code: TRZEPH                            COMMENT
Vertical Measurement Point: BPA                             COMMENT
Vertical Offset to Rinex Ref. Point: 0.0000                 COMMENT
Radial Measurement Point: RRP                               COMMENT
Radial Offset to Rinex Ref. Point: 0.0000                   COMMENT
Antenna Height from Field Measurement: 2.0000 m             COMMENT
Original XYZ: -2699236.0394 -4408872.1133 3723348.4898      COMMENT
New XYZ position is based on association with SCEC monument COMMENT
E1F0V0I6+0011. Position of that monument is believed to be  COMMENT
valid to within 1 m horizontally; vertical accuracy         COMMENT
should be no worse than 3-times this value.                 COMMENT
                                                            COMMENT
Revised Rinex header created by UCSD GPS archive for        COMMENT
GSAC on 11-Feb-2005 (2005:042) 22:02:06 GMT                 COMMENT
For assistance contact dagnew@ucsd.edu                      COMMENT
or anderson@python.ucsd.edu                                 COMMENT
                                                            COMMENT
H1316                                                       MARKER NAME
0990                                                        MARKER NUMBER
R. E. Brown CALIF DEPT TRANSPORTATION DISTRICT 5            OBSERVER / AGENCY
0440100990 TRIMBLE 5700 NP 2.01 / SP 0.00                   REC # / TYPE / VERS
12200511 TRM41249.00                                        ANT # / TYPE
 -2699234.0000 -4408871.0000  3723346.0000                  APPROX POSITION XYZ
        2.0000        0.0000        0.0000                  ANTENNA: DELTA H/E/N
     1     1     0                                          WAVELENGTH FACT L1/2
     7    C1    L1    L2    P1    P2    S1    S2            # / TYPES OF OBSERV
     0                                                      INTERVAL
  2004     7     7    19    57   45.000000                  TIME OF FIRST OBS
  2004     7     7    21    45   30.000000                  TIME OF LAST OBS
                                                            END OF HEADER
 04  7  7 19 57 45.0000000  0  8G 1G11G14G15G19G20G22G25
  24136368.2154    -144702.23849   -105566.36346                  24136369.3064
        41.7504         22.5004
  21741045.5184     -43876.93749    -35759.32047                  21741042.3704
        48.2504         37.0004
  21983278.2904     246140.12549    168861.44147                  21983276.1144
        49.2504         34.7504
  24189799.1174     320789.59449    238375.22346                  24189800.1014
        40.2504         21.5004
  24233663.8514     255723.59849    171485.73446                  24233660.8254
        38.7504         25.0004
  24344228.2864    -143471.62949   -104273.54746                  24344227.0914
        41.2504         19.2504
  23659457.4864     241051.94549    166307.85547                  23659454.4504
        46.0004         30.0004
  21101288.7814     -50307.34849    -39944.71948                  21101286.4984
        49.5004         41.2504
 04  7  7 19 58  0.0000000  0  8G 1G11G14G15G19G20G22G25
  23830902.3964    -174518.16449   -128799.55146                  23830902.5384
        41.7504         24.0004
  21439649.8214     -52300.50449    -42323.13747                  21439647.0914
        49.7504         37.5004
  21692287.0004     292392.30149    204902.07447                  21692284.8814
        48.5004         34.5004
  23903216.4774     390202.88349    292463.40246                  23903217.8014
        41.0004         22.7504
  23943483.2144     306230.32049    210841.56646                  23943479.6594
        37.2504         24.0004
  24038403.1554    -175168.91049   -128972.69546                  24038402.5164
        41.0004         20.0004
  23368326.8714     286571.50849    201777.62947                  23368324.4924
        46.0004         29.2504
  20799663.2104     -59939.93049    -47450.62548                  20799661.2234
        49.0004         41.0004
 04  7  7 19 58 15.0000000  0  8G 1G11G14G15G19G20G22G25
  23825220.8854    -204371.20349   -152061.64146                  23825221.8794
        41.7504         23.0004
  21438054.4794     -60684.58649    -48856.19947                  21438051.5404
        50.0004         37.2504
  21701078.8994     338592.34449    240902.08647                  21701076.3614
        49.0004         34.7504
  23916413.6064     459552.42649    346501.93446                  23916414.7154
        41.7504         22.7504
  23953081.9044     356673.28149    250147.73046                  23953078.6164
        39.5004         24.5004
  24032354.7024    -206953.73049   -153740.06646                  24032354.3454
        41.5004         19.5004
  23376979.0794     332038.93849    237206.77747                  23376975.8514
        45.5004         29.2504
  20797837.7044     -69531.55949    -54924.62548                  20797835.7624
        51.2504         41.0004
 04  7  7 19 58 30.0000000  0  8G 1G11G14G15G19G20G22G25
  23819533.5214    -234260.17649   -175351.70346                  23819534.4394
        40.2504         22.5004
  21436467.2324     -69026.31249    -55356.25047                  21436464.1544
        49.5004         36.7504
  21709861.7284     384746.25049    276866.16847                  21709858.7614
        49.2504         35.2504
  23929599.1384     528845.78549    400496.66446                  23929601.1334
        40.5004         22.2504
  23962669.9104     407058.66449    289409.01646                  23962667.1654
        36.7504         24.2504
  24026289.9264    -238824.97349   -178574.78546                  24026289.3944
        42.2504         20.0004
  23385622.8884     377460.37149    272600.05947                  23385619.4064
        45.0004         29.0004
  20796021.0744     -79079.52749    -62364.59448                  20796019.0644
        51.0004         41.2504
 04  7  7 19 58 45.0000000  0  8G 1G11G14G15G19G20G22G25
  23813840.3464    -264177.28549   -198663.71146                  23813840.5874
        40.5004         22.2504
  21434889.0414     -77317.82449    -61817.17247                  21434886.1904
        48.7504         37.5004
  21718637.8584     430861.60949    312800.20347                  21718635.2464
        49.5004         34.2504
  23942775.9924     598090.37149    454453.42646                  23942777.8494
        40.7504         22.2504
  23972248.1904     457393.91449    328631.23046                  23972245.4844
        40.5004         24.5004
  24020210.2414    -270774.91049   -203470.81246                  24020209.6444
        42.2504         21.2504
  23394258.6724     422843.60549    307963.59447                  23394256.6834
        45.7504         30.0004
  20794213.8824     -88575.98449    -69764.43048                  20794211.6724
        49.5004         41.0004
 04  7  7 19 59  0.0000000  0  8G 1G11G14G15G19G20G22G25
  23808142.3384    -294118.95749   -221994.85946                  23808143.1134
        41.0004         23.2504
  21433321.3584     -85555.68449    -68236.28147                  21433318.4314
        49.5004         37.5004
  21727405.8624     476941.63349    348706.71147                  21727403.6734
        49.7504         35.0004
  23955944.4964     667289.36749    508374.54346                  23955945.8574
        41.7504         22.5004
  23981817.8454     507682.00049    367816.70346                  23981815.3494
        39.5004         23.0004
  24014116.1884    -302799.91849   -228425.33646                  24014115.2074
        43.7504         21.7504
  23402888.1984     468192.10249    343300.05547                  23402885.3964
        46.2504         30.5004
  20792417.2534     -98017.43449    -77121.39548                  20792414.8564
        51.2504         41.0004
 04  7  7 19 59 15.0000000  0  8G 1G11G14G15G19G20G22G25
  23802440.8654    -324080.82849   -245341.77046                  23802441.5734
        41.5004         22.5004
  21431764.6394     -93735.20749    -74609.94147                  21431762.3874
        50.5004         37.0004
  21736168.5634     522990.39849    384588.84447                  21736166.3784
        49.5004         34.0004
  23969104.7764     736446.66449    562263.27346                  23969105.7314
        42.2504         23.2504
  23991378.9364     557926.92649    406968.55946                  23991376.2454
        38.7504         24.7504
  24008008.3064    -334895.50449   -253434.87146                  24008007.4874
        43.5004         21.7504
  23411511.8254     513510.09049    378612.73047                  23411509.6044
        46.0004         31.0004
  20790632.1724    -107399.39549    -84432.02048                  20790629.8094
        51.5004         41.0004
 04  7  7 19 59 30.0000000  0  8G 1G11G14G15G19G20G22G25
  23796735.9524    -354059.79349   -268701.96946                  23796736.2274
        40.2504         22.0004
  21430219.9474    -101853.07049    -80935.55147                  21430217.5024
        49.0004         36.5004
  21744926.1944     569010.80949    420448.89147                  21744923.4044
        49.0004         35.2504
  23982257.6004     805565.13349    616121.73846                  23982258.8154
        42.5004         22.5004
  24000932.8724     608131.41049    446088.86746                  24000930.2624
        40.0004         25.5004
  24001887.4074    -367058.60949   -278496.99646                  24001887.4264
        43.2504         24.7504
  23420130.4784     558800.62149    413904.02747                  23420128.0244
        46.5004         31.5004
  20788858.5044    -116718.43749    -91693.60948                  20788856.4054
        50.5004         41.0004
 04  7  7 19 59 45.0000000  0  8G 1G11G14G15G19G20G22G25
  23791028.5204    -384054.23849   -292074.25846                  23791028.4474
        40.5004         21.7504
  21428687.6704    -109907.73449    -87211.91447                  21428684.6114
        48.5004         36.2504
  21753678.2564     615004.02749    456287.75447                  21753675.8754
        49.2504         34.5004
  23995403.8254     874646.01249    669950.88346                  23995404.8494
        42.5004         22.5004
  24010479.1794     658296.40649    485178.44546                  24010475.9604
        40.5004         25.2504
  23995754.9504    -399287.68049   -303610.52746                  23995754.6324
        43.7504         23.0004
  23428743.8214     604065.33249    449175.19947                  23428741.5014
        46.7504         31.2504
  20787097.2404    -125973.16849    -98905.07848                  20787095.3234
        50.2504         41.0004
 04  7  7 20  0  0.0000000  0  8G 1G11G14G15G19G20G22G25
  23785317.8684    -414061.79349   -315456.73846                  23785318.4474
        40.0004         21.0004
  21427167.1864    -117896.80549    -93437.17247                  21427164.3814
        50.2504         36.5004
  21762425.8354     660972.34049    492107.19147                  21762422.8434
        49.5004         35.2504
  24008542.5834     943691.33249    723752.35246                  24008543.2984
        42.2504         22.0004
  24020017.7754     708424.05149    524238.87946                  24020015.8574
        40.0004         24.0004
  23989609.8394    -431580.23049   -328773.51246                  23989609.2794
        44.0004         23.2504
  23437353.1104     649306.52749    484428.04747                  23437350.0824
        46.7504         30.0004
  20785348.9324    -135161.09049   -106064.49248                  20785346.6244
        51.7504         40.7504
 04  7  7 20  0 15.0000000  0  8G 1G11G14G15G19G20G22G25
  23779605.2134    -444079.53549   -338847.13746                  23779606.1264
        39.5004         21.2504
  21425660.0404    -125817.17249    -99608.88747                  21425657.4554
        50.5004         36.7504
  21771169.2654     706918.26649    527909.19947                  21771166.6984
        49.5004         35.5004
  24021674.8624    1012703.50449    777527.96546                  24021676.2374
        42.5004         21.7504
  24029550.6304     758516.72349    563272.10546                  24029547.7714
        40.0004         25.2504
  23983453.6534    -463933.37949   -353983.73047                  23983452.8134
        44.2504         25.7504
  23445958.2194     694527.02049    519664.77747                  23445955.2884
        46.0004         29.5004
  20783613.6174    -144279.10249   -113169.42648                  20783611.4314
        51.5004         40.7504
 04  7  7 20  0 30.0000000  0  8G 1G11G14G15G19G20G22G25
  23773891.8194    -474104.86749   -362243.46546                  23773892.8654
        41.2504         21.0004
  21424166.4994    -133666.08249   -105724.92647                  21424163.2754
        50.5004         37.0004
  21779908.5434     752844.25849    563695.67647                  21779906.3004
        48.2504         34.7504
  24034801.9354    1081684.87149    831279.59446                  24034802.6644
        42.7504         21.2504
  24039076.3044     808576.58249    602279.74646                  24039074.4184
        40.0004         23.5004
  23977285.6344    -496344.37549   -379239.00847                  23977285.1374
        44.0004         25.7504
  23454560.1994     739729.47749    554887.44547                  23454556.8614
        45.7504         27.7504
  20781892.4364    -153324.47749   -120217.77348                  20781890.2914
        51.2504         40.7504
 04  7  7 20  0 45.0000000  0  8G 1G11G14G15G19G20G22G25
  23768177.2474    -504135.29349   -385643.77046                  23768177.9354
        41.0004         22.2504
  21422687.0424    -141440.94149   -111783.25847                  21422684.0374
        50.5004         37.2504
  21788644.8794     798752.47749    599468.30147                  21788642.2294
        46.2504         33.7504
  24047923.1654    1150637.58649    885008.90246                  24047924.0524
        42.0004         21.2504
  24048596.8294     858605.79349    641263.52346                  24048594.4244
        41.0004         24.2504
  23971107.8154    -528810.80549   -404537.50047                  23971106.4244
        44.0004         27.0004
  23463158.7684     784916.23849    590097.87947                  23463156.2634
        42.0004         28.5004
  20780185.5334    -162294.70749   -127207.55148                  20780183.4294
        52.0004         40.5004
 04  7  7 20  1  0.0000000  0  8G 1G11G14G15G19G20G22G25
  23762462.2644    -534170.74249   -409048.00046                  23762462.3394
        41.5004         23.0004
  21421221.6454    -149141.62149   -117783.77747                  21421218.7654
        51.0004         36.7504
  21797377.5414     844642.74649    635226.92647                  21797374.5924
        47.0004         34.0004
  24061038.3724    1219561.27349    938715.58246                  24061040.2454
        41.2504         20.0004
  24058111.3124     908603.95349    680223.06646                  24058108.9104
        41.0004         22.2504
  23964918.8514    -561332.54349   -429879.07846                  23964917.7364
        44.0004         25.2504
  23471754.6734     830087.30949    625296.08647                  23471751.9414
        42.7504         29.0004
  20778493.0634    -171189.64149   -134138.65648                  20778490.7624
        51.2504         41.2504
 04  7  7 20  1 15.0000000  0  8G 1G11G14G15G19G20G22G25
  23756745.9584    -564210.10949   -432455.26646                  23756746.5444
        41.0004         22.7504
  21419770.4084    -156766.76249   -123725.45347                  21419767.3554
        51.2504         37.0004
  21806106.8424     890515.96549    670972.28147                  21806104.2954
        48.5004         33.5004
  24074149.0654    1288456.82849    992400.32446                  24074150.1254
        41.7504         20.0004
  24067619.8324     958571.68849    719158.90646                  24067617.5624
        41.0004         25.2504
  23958719.8004    -593908.44949   -455262.85947                  23958718.9274
        44.5004         26.2504
  23480347.9914     875243.79749    660482.93047                  23480344.6964
        45.2504         26.5004
  20776814.6814    -180008.05549   -141010.14548                  20776812.7164
        51.2504         41.0004
 04  7  7 20  1 30.0000000  0  8G 1G11G14G15G19G20G22G25
  23751028.5584    -594251.53949   -455864.14546                  23751028.8324
        42.7504         22.2504
  21418334.0724    -164314.61749   -129606.89847                  21418331.2794
        50.7504         36.5004
  21814832.8784     936373.70749    706705.57447                  21814831.1604
        48.5004         34.2504
  24087254.9644    1357325.64849   1046064.25846                  24087255.8954
        42.0004         20.5004
  24077123.0504    1008510.41849    758072.16046                  24077120.7964
        41.7504         25.2504
  23952511.1314    -626536.55549   -480687.32846                  23952509.5794
        44.5004         25.5004
  23488937.9084     920387.46949    695659.78546                  23488935.6724
        45.0004         25.5004
  20775151.7534    -188748.01249   -147820.48048                  20775149.6104
        51.7504         41.5004
 04  7  7 20  1 45.0000000  0  8G 1G11G14G15G19G20G22G25
  23745312.0574    -624293.76649   -479273.63746                  23745312.6094
        41.7504         22.5004
  21416912.7504    -171783.66449   -135426.93747                  21416910.1344
        50.7504         36.5004
  21823556.6404     982216.98449    742427.60247                  21823553.9074
        48.2504         33.5004
  24100355.2214    1426168.64149   1099708.07046                  24100356.5504
        41.7504         21.2504
  24086620.9114    1058420.97749    796963.45347                  24086618.7764
        43.0004         26.2504
  23946292.2414    -659215.55549   -506151.43446                  23946291.4334
        44.0004         25.5004
  23497526.5034     965519.71149    730827.75046                  23497524.0254
        44.0004         24.7504
  20773503.4804    -197408.19149   -154568.67648                  20773501.4724
        51.5004         41.7504
 04  7  7 20  2  0.0000000  0  8G 1G11G14G15G19G20G22G25
  23739595.1124    -654334.69949   -502682.13746                  23739595.5714
        41.0004         23.0004
  21415506.9124    -179171.87149   -141183.98447                  21415504.2404
        51.2504         36.5004
  21832278.2484    1028047.62949    778139.78147                  21832275.6554
        48.5004         34.2504
  24113451.2724    1494987.59449   1153333.09446                  24113452.6944
        41.5004         21.7504
  24096113.4514    1108304.94549    835834.01647                  24096111.3614
        43.5004         26.5004
  23940063.9784    -691943.41049   -531653.60247                  23940063.3504
        43.7504         26.5004
  23506113.3134    1010642.33649    765988.19946                  23506110.6704
        43.2504         22.7504
  20771871.3824    -205986.46949   -161253.03948                  20771869.3174
        52.0004         41.0004
 04  7  7 20  2 15.0000000  0  8G 1G11G14G15G19G20G22G25
  23733878.7874    -684372.08649   -526087.87146                  23733879.9294
        41.2504         23.0004
  21414116.7494    -186476.78149   -146876.11747                  21414114.0904
        51.5004         37.0004
  21840997.8494    1073867.55149    813843.59447                  21840995.0824
        49.0004         34.5004
  24126542.7464    1563784.30949   1206940.82846                  24126545.1844
        40.5004         22.0004
  24105601.4804    1158164.15249    874685.31647                  24105599.3494
        44.0004         26.5004
  23933827.4394    -724717.90249   -557192.13747                  23933826.3754
        43.7504         26.0004
  23514698.2844    1055757.55949    801142.89846                  23514695.3234
        42.5004         22.2504
  20770255.1954    -214480.62149   -167871.85248                  20770252.9204
        52.0004         41.0004
 04  7  7 20  2 30.0000000  0  8G 1G11G14G15G19G20G22G25
  23728164.6744    -714405.00049   -549490.10946                  23728165.2624
        42.2504         22.7504
  21412742.9324    -193697.32849   -152502.51647                  21412740.5764
        51.0004         36.7504
  21849714.7584    1119677.52749    849539.67647                  21849711.9274
        48.5004         34.2504
  24139630.9074    1632559.45749   1260531.74246                  24139632.3954
        40.7504         22.0004
  24115084.5434    1207999.22349    913517.81347                  24115082.1674
        43.5004         26.2504
  23927582.0554    -757537.92649   -582766.12947                  23927581.4714
        43.5004         26.0004
  23523282.8284    1100866.26649    836292.50446                  23523280.0874
        42.5004         22.5004
  20768654.8064    -222889.48449   -174424.19948                  20768652.5954
        49.7504         41.0004
 04  7  7 20  2 45.0000000  0  8G 1G11G14G15G19G20G22G25
  23722449.9624    -744432.96949   -572888.49646                  23722451.1774
        42.5004         25.0004
  21411385.1844    -200833.05549   -158062.82047                  21411382.5024
        50.7504         37.5004
  21858429.9924    1165477.60549    885228.03947                  21858427.6644
        48.0004         33.5004
  24152713.4034    1701313.00049   1314105.81646                  24152715.9104
        39.2504         22.2504
  24124563.4104    1257810.02049    952331.37547                  24124560.9984
        44.0004         27.0004
  23921327.6334    -790403.14549   -608375.36346                  23921326.8454
        43.0004         25.2504
  23531865.2014    1145968.99649    871437.43046                  23531862.8314
        40.0004         21.0004
  20767071.0204    -231212.50049   -180909.65648                  20767068.8644
        50.5004         41.0004
 04  7  7 20  3  0.0000000  0  8G 1G11G14G15G19G20G22G25
  23716737.2174    -774455.42649   -596282.60247                  23716738.2374
        43.2504         26.0004
  21410043.6264    -207883.34049   -163556.54747                  21410040.6754
        51.2504         37.5004
  21867143.8924    1211268.14849    920908.97747                  21867141.0244
        49.0004         33.5004
  24165792.9674    1770045.21149   1367663.22346                  24165795.5674
        40.7504         22.7504
  24134037.5224    1307596.75449    991126.18847                  24134035.2524
        43.2504         27.0004
  23915065.0294    -823312.82449   -634019.21546                  23915064.5734
        43.5004         25.5004
  23540446.8584    1191066.05549    906577.98046                  23540443.8164
        41.5004         20.5004
  20765503.8364    -239449.06249   -187327.75848                  20765501.5734
        51.2504         41.0004
 04  7  7 20  3 15.0000000  0  8G 1G11G14G15G19G20G22G25
  23711026.0634    -804469.55149   -619670.20747                  23711026.9784
        43.0004         26.2504
  21408718.6234    -214845.20349   -168981.37947                  21408716.0874
        51.2504         37.5004
  21875856.0514    1257051.79349    956584.52747                  21875853.3704
        48.0004         33.7504
  24178869.5894    1838758.55949   1421205.96546                  24178871.5604
        40.5004         22.2504
  24143506.6044    1357361.71549   1029904.03146                  24143505.1944
        41.5004         25.5004
  23908794.9834    -856264.16049   -659695.54746                  23908793.6184
        42.5004         23.7504
  23549028.1184    1236160.30949    941716.34446                  23549025.1384
        41.7504         21.0004
  20763953.1914    -247596.24249   -193676.19948                  20763950.6614
        50.5004         40.7504
 04  7  7 20  3 30.0000000  0  8G 1G11G14G15G19G20G22G25
  23705315.8204    -834474.41049   -643050.60246                  23705317.4134
        43.2504         25.5004
  21407410.9924    -221717.62149   -174336.51647                  21407408.1324
        50.7504         37.2504
  21884567.2214    1302829.23049    992255.23847                  21884564.7814
        48.2504         33.5004
  24191941.8144    1907453.69149   1474734.58646                  24191943.1554
        39.0004         21.0004
  24152973.1444    1407105.56649   1068665.44546                  24152971.4594
        42.0004         25.2504
  23902516.2214    -889256.13749   -685403.54746                  23902515.5254
        41.7504         22.2504
  23557608.8994    1281252.68849    976853.21946                  23557606.2954
        39.0004         19.2504
  20762420.1874    -255652.96149   -199954.15648                  20762417.6154
        50.0004         40.7504
 04  7  7 20  3 45.0000000  0  8G 1G11G14G15G19G20G22G25
  23699608.6194    -864467.64549   -666421.92646                  23699609.5584
        42.0004         25.2504
  21406120.5424    -228498.21149   -179620.09447                  21406117.8924
        49.5004         37.2504
  21893278.0424    1348602.58649   1027922.77047                  21893275.5464
        48.5004         34.0004
  24205010.5664    1976132.59449   1528250.50046                  24205012.6094
        37.5004         21.2504
  24162435.4334    1456830.19149   1107411.85547                  24162433.6724
        42.2504         26.7504
  23896231.5384    -922286.34849   -711141.33646                  23896231.0824
        41.5004         22.7504
  23566189.2794    1326345.44949   1011990.38346                  23566187.2004
        39.5004         19.2504
  20760904.5614    -263616.83249   -206159.77048                  20760902.3914
        51.0004         41.2504
 04  7  7 20  4  0.0000000  0  8G 1G11G14G15G19G20G22G25
  23693903.4904    -894448.50849   -689783.61347                  23693904.0954
        41.7504         25.7504
  21404847.8214    -235185.98449   -184831.34847                  21404845.3624
        49.5004         37.2504
  21901987.2444    1394372.34049   1063587.52347                  21901984.6544
        47.7504         32.7504
  24218076.9204    2044795.65249   1581754.05946                  24218078.7614
        38.2504         21.0004
  24171893.8594    1506535.76249   1146143.42246                  24171892.3514
        42.5004         25.5004
  23889938.0734    -955354.05549   -736908.31646                  23889937.7744
        40.7504         22.5004
  23574770.2304    1371439.37149   1047128.48846                  23574768.3414
        39.2504         17.7504
  20759407.0304    -271487.19549   -212292.50048                  20759404.7174
        50.5004         40.7504
 04  7  7 20  4 15.0000000  0  8G 1G11G14G15G19G20G22G25
  23688200.6254    -924416.49649   -713135.24246                  23688200.9994
        43.0004         25.0004
  21403592.6844    -241780.29749   -189969.77047                  21403590.2554
        51.0004         37.5004
  21910696.6644    1440138.66049   1099249.57847                  21910693.8264
        48.2504         33.5004
  24231139.9264    2113443.09849   1635245.44946                  24231142.7844
        39.7504         21.7504
  24181349.0664    1556222.48049   1184860.30547                  24181347.3404
        43.0004         27.0004
  23883638.9484    -988458.65649   -762704.09846                  23883638.4284
        41.0004         24.0004
  23583351.8984    1416534.92249   1082267.87146                  23583349.7524
        39.2504         17.5004
  20757926.9094    -279263.40249   -218351.87948                  20757924.8304
        50.2504         40.7504
 04  7  7 20  4 30.0000000  0  8G 1G11G14G15G19G20G22G25
  23682500.4364    -954370.19949   -736475.76246                  23682501.2684
        42.7504         25.5004
  21402356.1654    -248279.84049   -195034.35247                  21402353.4454
        48.2504         37.0004
  21919404.9234    1485902.79749   1134909.93047                  21919402.7254
        47.5004         32.5004
  24244200.5384    2182075.87149   1688725.43446                  24244202.8284
        39.7504         22.7504
  24190799.9244    1605891.30949   1223563.26647                  24190798.9754
        42.5004         25.7504
  23877332.0994   -1021598.77049   -788527.50846                  23877332.1854
        42.0004         22.5004
  23591934.1064    1461633.32049   1117409.47346                  23591931.6014
        38.5004         17.5004
  20756465.5924    -286944.03949   -224336.78948                  20756463.6224
        49.7504         41.2504
 04  7  7 20  4 45.0000000  0  8G 1G11G14G15G19G20G22G25
  23676803.2174    -984310.34449   -759805.73447                  23676803.5714
        43.0004         26.0004
  21401137.1194    -254685.13749   -200025.49247                  21401134.6614
        48.7504         37.7504
  21928112.9864    1531663.68449   1170567.74647                  21928111.1224
        46.7504         32.2504
  24257258.1894    2250692.91049   1742193.15246                  24257259.8454
        40.2504         22.2504
  24200248.5564    1655541.03949   1262251.33247                  24200247.6694
        42.2504         26.5004
  23871018.9864   -1054774.97349   -814379.03946                  23871018.8804
        42.0004         22.5004
  23600517.0514    1506733.69949   1152552.60246                  23600513.3034
        38.7504         16.2504
  20755022.1204    -294529.68749   -230247.67248                  20755019.6114
        49.0004         41.2504
 04  7  7 20  5  0.0000000  0  8G 1G11G14G15G19G20G22G25
  23671108.9084   -1014234.86749   -783123.51646                  23671109.3384
        43.7504         25.0004
  21399936.7544    -260994.04349   -204941.52347                  21399934.4344
        50.0004         38.0004
  21936820.9264    1577423.21149   1206224.50447                  21936818.5154
        46.7504         31.5004
  24270312.5434    2319295.95349   1795649.94546                  24270314.3944
        39.0004         20.5004
  24209693.2544    1705173.37949   1300925.84847                  24209692.3454
        43.0004         26.7504
  23864698.6444   -1087985.26649   -840257.15246                  23864698.9094
        41.5004         22.2504
  23609099.9834    1551838.22349   1187698.90246                  23609096.4474
        38.5004         15.5004
  20753597.1834    -302018.14149   -236082.81648                  20753594.9804
        51.0004         42.0004
 04  7  7 20  5 15.0000000  0  8G 1G11G14G15G19G20G22G25
  23665417.9034   -1044143.18049   -806428.66047                  23665417.4334
        44.0004         26.7504
  21398754.8294    -267205.89549   -209781.92647                  21398752.3754
        50.7504         37.7504
  21945528.2874    1623181.67649   1241880.44147                  21945526.2324
        46.7504         31.0004
  24283365.0204    2387885.26249   1849096.01246                  24283366.7284
        37.7504         21.5004
  24219134.8554    1754788.48049   1339586.92647                  24219134.2064
        40.7504         26.0004
  23858373.2544   -1121228.93049   -866161.25046                  23858373.0214
        42.0004         24.0004
  23617684.1014    1596947.51649   1222848.98046                  23617680.7684
        37.2504         14.0004
  20752190.7214    -309408.69549   -241841.69548                  20752188.7434
        51.7504         41.5004
 04  7  7 20  5 30.0000000  0  8G 1G11G14G15G19G20G22G25
  23659729.3444   -1074036.14149   -829721.85946                  23659729.3244
        43.2504         25.0004
  21397590.9164    -273321.51249   -214547.34447                  21397588.2984
        50.5004         38.0004
  21954235.8464    1668937.92249   1277534.63747                  21954233.0154
        47.2504         31.2504
  24296414.3484    2456459.49249   1902530.40646                  24296416.0194
        38.5004         21.7504
  24228572.4544    1804385.00449   1378233.51646                  24228571.9984
        41.0004         25.5004
  23852040.7474   -1154506.85549   -892092.06646                  23852040.7974
        42.2504         23.0004
  23626268.1914    1642060.50448   1258001.86746                  23626265.2864
        35.5004         14.0004
  20750802.6874    -316702.32849   -247525.03548                  20750800.3904
        51.2504         41.5004
 04  7  7 20  5 45.0000000  0  8G 1G11G14G15G19G20G22G25
  23654043.8004   -1103912.91849   -853002.43746                  23654043.4274
        42.7504         24.2504
  21396445.7584    -279339.80149   -219236.92247                  21396442.9504
        51.0004         37.7504
  21962942.2344    1714692.71549   1313187.71547                  21962940.0094
        46.7504         31.0004
  24309461.1944    2525019.30149   1955953.44546                  24309462.4764
        38.0004         20.5004
  24238006.8974    1853963.46949   1416866.05146                  24238006.5154
        40.7504         24.5004
  23845701.7964   -1187818.00849   -918048.76246                  23845701.3854
        43.0004         22.2504
  23634854.3804    1687178.09448   1293158.44146                  23634850.8094
        33.5004         15.5004
  20749433.5124    -323897.97349   -253132.02348                  20749431.4854
        51.2504         41.5004
 04  7  7 20  6  0.0000000  0  8G 1G11G14G15G19G20G22G25
  23648360.9284   -1133773.47749   -876270.38347                  23648360.9004
        43.7504         26.5004
  21395318.9384    -285260.75849   -223850.64847                  21395316.4324
        49.5004         37.5004
  21971648.8494    1760445.78149   1348839.42247                  21971646.9484
        46.2504         31.5004
  24322505.3494    2593564.40649   2009365.09446                  24322506.6834
        41.0004         21.7504
  24247437.7834    1903523.52049   1455484.19946                  24247438.4114
        40.5004         24.7504
  23839356.5154   -1221162.37549   -944031.35546                  23839356.5424
        42.5004         24.5004
  23643440.9634    1732300.38348   1328318.57046                  23643437.2564
        34.5004         15.5004
  20748082.9444    -330995.48449   -258662.53948                  20748080.8504
        50.7504         41.0004
 04  7  7 20  6 15.0000000  0  8G 1G11G14G15G19G20G22G25
  23642682.6584   -1163618.34049   -899526.10247                  23642681.6124
        43.5004         25.7504
  21394210.5594    -291084.86749   -228388.91047                  21394208.0004
        50.2504         37.7504
  21980354.6184    1806196.28549   1384489.14147                  21980352.6524
        47.2504         30.7504
  24335545.9364    2662093.82049   2062764.52746                  24335547.1524
        38.5004         22.2504
  24256864.9764    1953063.99649   1494087.12946                  24256864.8384
        40.2504         23.5004
  23833005.1084   -1254540.47749   -970040.22746                  23833004.1964
        42.7504         23.0004
  23652027.6384    1777426.50048   1363481.80546                  23652025.4794
        34.5004         16.2504
  20746750.8444    -337995.39149   -264117.00448                  20746748.8324
        51.0004         41.5004
 04  7  7 20  6 30.0000000  0  8G 1G11G14G15G19G20G22G25
  23637005.5454   -1193447.95749   -922769.93746                  23637005.9994
        42.2504         25.5004
  21393120.8234    -296812.43049   -232851.95347                  21393117.8434
        48.7504         38.0004
  21989060.8354    1851943.56649   1420136.35947                  21989057.6494
        47.0004         31.2504
  24348583.6634    2730606.71149   2116151.06646                  24348584.9914
        40.2504         22.2504
  24266288.7374    2002584.12549   1532674.18046                  24266288.8504
        41.0004         22.7504
  23826646.5724   -1287952.68049   -996075.69946                  23826646.1534
        43.5004         22.5004
  23660615.6874    1822556.01248
        34.0004
  20745436.9354    -344898.15249   -269495.78148                  20745435.2724
        50.0004         41.0004
 04  7  7 20  6 45.0000000  0  8G 1G11G14G15G19G20G22G25
  23631331.9004   -1223262.05149   -946001.69146                  23631332.4624
        42.0004         25.5004
  21392049.0054    -302443.16049   -237239.53947                  21392046.3134
        51.2504         37.7504
  21997765.5814    1897687.64849   1455781.10247                  21997762.6114
        48.2504         31.0004
  24361617.8284    2799103.03549   2169524.70346                  24361619.1834
        40.0004         22.2504
  24275707.9904    2052083.66849   1571245.23046                  24275707.9314
        40.5004         22.7504
  23820282.1764   -1321398.69549  -1022137.50446                  23820281.9474
        44.0004         23.0004
  23669205.1174    1867689.28558
        32.0004
  20744142.3744    -351703.48049   -274798.62948                  20744139.8944
        51.2504         41.0004
 04  7  7 20  7  0.0000000  0  8G 1G11G14G15G19G20G22G25
  23625661.7564   -1253060.75449   -969221.42647                  23625661.9354
        42.5004         26.2504
  21390996.3364    -307977.07849   -241551.67247                  21390993.5794
        50.0004         37.5004
  22006469.7594    1943428.13749   1491423.04747                  22006467.1144
        48.5004         32.0004
  24374649.0044    2867582.33249   2222885.06646                  24374650.4644
        39.2504         21.7504
  24285124.0554    2101562.13749   1609799.85546                  24285123.5934
        41.5004         24.5004
  23813911.3124   -1354878.65649  -1048225.74646                  23813910.4954
        43.7504         22.0004
  23677793.6354
        28.5004
  20742865.8364    -358411.47349   -280025.62948                  20742863.3754
        51.0004         41.0004
 04  7  7 20  7 15.0000000  0  8G 1G11G14G15G19G20G22G25
  23619994.7494   -1282844.75049   -992429.70346                  23619993.8544
        41.7504         24.5004
  21389961.5414    -313414.77749   -245788.84447                  21389958.7544
        50.5004         37.5004
  22015172.6754    1989164.13349   1527061.46147                  22015171.2354
        47.7504         32.0004
  24387676.3554    2936043.57049   2276231.35546                  24387678.5844
        39.2504         21.2504
  24294535.0454    2151018.27749   1648337.07446                  24294534.3334
        42.0004         24.5004
  23807533.7024   -1388393.16449  -1074340.94546                  23807532.2474
        44.0004         22.2504
  23686384.0524
        27.2504
  20741607.3634    -365022.71549   -285177.23848                  20741605.8574
        51.2504         41.0004
 04  7  7 20  7 30.0000000  0  8G 1G11G14G15G19G20G22G25
  23614328.9894   -1312614.05149  -1015626.54346                  23614329.3514
        42.7504         25.5004
  21388944.6984    -318756.12149   -249950.92647                  21388942.2654
        48.7504         37.5004
  22023875.4734    2034895.38749   1562696.20347                  22023873.1224
        48.0004         31.5004
  24400701.5014    3004486.39549   2329563.26246                  24400702.8084
        39.7504         21.2504
  24303942.4634    2200451.83249   1686856.69546                  24303941.7904
        42.0004         25.0004
  23801149.2654   -1421942.03949  -1100482.88346                  23801148.3834
        44.2504         23.0004
  23694974.0224    2003107.41448
        30.7504
  20740368.0354    -371536.95749   -290253.26648                  20740365.9244
        50.2504         41.2504
 04  7  7 20  7 45.0000000  0  8G 1G11G14G15G19G20G22G25
  23608666.6934   -1342367.87949  -1038811.32046                  23608667.1294
        42.0004         24.2504
  21387946.9644    -324000.25849   -254037.27047                  21387944.2164
        49.2504         37.5004
  22032576.9684    2080622.38749   1598327.61747                  22032574.5614
        48.0004         31.2504
  24413722.1564    3072911.25049   2382881.19946                  24413723.5964
        38.0004         20.0004
  24313344.7354    2249863.19549   1725359.02746                  24313344.0214
        42.0004         24.7504
  23794759.0074   -1455524.69549  -1126651.16846                  23794757.6384
        44.5004         23.2504
  23703565.3074    2048253.06348
        32.2504
  20739147.0764    -377953.69549   -295253.31248                  20739144.7924
        51.0004         41.0004
 04  7  7 20  8  0.0000000  0  8G 1G11G14G15G19G20G22G25
  23603007.8944   -1372106.04349  -1061983.91046                  23603008.1434
        40.7504         24.0004
  21386967.4294    -329147.04749   -258047.75847                  21386964.9584
        50.5004         37.5004
  22041277.1534    2126345.05149   1633955.67247                  22041274.9654
        48.0004         31.0004
  24426739.8954    3141317.76249   2436184.81346                  24426741.2434
        39.0004         19.5004
  24322743.3454    2299252.03949   1763843.77046                  24322743.0444
        41.0004         23.2504
  23788361.7994   -1489140.80149  -1152845.51246                  23788360.6064
        45.0004         23.5004
  23712157.1294    2093402.11348
        31.2504
  20737944.3964    -384272.63349   -300177.15648                  20737942.2534
        52.0004         41.5004
 04  7  7 20  8 15.0000000  0  8G 1G11G14G15G19G20G22G25
  23597351.1294   -1401827.83249  -1085143.71146                  23597352.5694
        42.0004         23.0004
  21386006.7554    -334195.55149   -261981.65647                  21386004.2764
        48.7504         37.7504
  22049977.4624    2172063.97749   1669580.80147                  22049975.3574
        47.5004         31.7504
  24439753.4404    3209706.53149   2489474.58646                  24439755.1994
        38.5004         20.5004
  24332137.0674    2348618.72749   1802311.26646                  24332136.8504
        39.5004         23.0004
  23781958.6794   -1522789.40249  -1179065.16846                  23781957.8984
        45.0004         22.7504
  23720749.1404
        32.0004
  20736760.7734    -390492.87549   -305024.09048                  20736758.0734
        50.7504         41.5004
 04  7  7 20  8 30.0000000  0  8G 1G11G14G15G19G20G22G25
  23591698.9264   -1431531.71549  -1108289.59046                  23591699.6474
        42.0004         25.5004
  21385065.1224    -339144.18749   -265837.74247                  21385063.0294
        50.5004         37.7504
  22058677.1714    2217780.48449   1705204.05147                  22058674.5634
        47.5004         31.2504
  24452764.8644    3278078.65649   2542751.44546                  24452765.9874
        39.5004         19.0004
  24341526.8504    2397964.35549   1840762.36746                  24341527.2374
        40.0004         22.7504
  23775549.7864   -1556468.98449  -1205308.98846                  23775549.1314
        45.0004         24.5004
  23729342.3404    2183714.59848
        32.5004
  20735596.3574    -396612.78949   -309792.85548                  20735594.0384
        50.7504         41.7504
 04  7  7 20  8 45.0000000  0  8G 1G11G14G15G19G20G22G25
  23586050.6934   -1461215.71949  -1131419.94146                  23586051.1674
        41.5004         22.7504
  21384142.9404    -343990.79749   -269614.32047                  21384140.2784
        48.2504         37.7504
  22067376.1744    2263496.21149   1740826.68847                  22067374.0264
        47.0004         31.0004
  24465772.7524    3346435.90649   2596016.73846                  24465773.7104
        38.5004         20.0004
  24350913.6884    2447290.53949   1879198.29346                  24350914.1154
        41.2504         24.0004
  23769135.5984   -1590177.44949  -1231575.29746                  23769134.3754
        44.2504         23.5004
  23737936.6004    2228881.35248
        31.7504
  20734450.9254    -402630.30149   -314481.81248                  20734448.6684
        50.7504         41.5004
 04  7  7 20  9  0.0000000  0  8G 1G11G14G15G19G20G22G25
  23580405.4794   -1490878.85949  -1154534.04746                  23580406.3104
        41.0004         23.0004
  21383240.1834    -348734.64549   -273310.82847                  21383237.4834
        50.0004         37.0004
  22076075.5724    2309211.88349   1776449.27347                  22076073.5454
        47.0004         30.5004
  24478777.2724    3414778.85949   2649270.84446                  24478779.9944
        38.0004         18.5004
  24360296.9534    2496597.64549   1917619.36746                  24360296.8434
        42.0004         23.2504
  23762715.4414   -1623913.96549  -1257863.47346                  23762714.2494
        44.0004         23.5004
  23746535.0354
        30.7504
  20733325.6254    -408544.49649   -319090.26648                  20733323.3694
        51.2504         41.5004
 04  7  7 20  9 15.0000000  0  8G 1G11G14G15G19G20G22G25
  23574764.8754   -1520522.00049  -1177632.60546                  23574764.7994
        41.5004         24.7504
  21382357.0004    -353376.33249   -276927.72747                  21382354.1544
        50.7504         37.5004
  22084774.6974    2354926.44949   1812070.99247                  22084772.6624
        46.2504         30.0004
  24491780.3374    3483106.36349   2702512.88346                  24491782.3664
        39.0004         17.7504
  24369676.1004    2545884.51249   1956024.66446                  24369675.9164
        42.5004         24.0004
  23756289.7924   -1657679.14849  -1284173.96946                  23756288.8024
        43.5004         24.7504
  23755132.4254
        28.5004
  20732219.7744    -414356.20749   -323618.86348                  20732217.4584
        52.5004         41.7504
 04  7  7 20  9 30.0000000  0  8G 1G11G14G15G19G20G22G25
  23569128.5584   -1550142.35549  -1200713.36746                  23569128.9014
        41.5004         24.0004
  21381493.2164    -357912.97349   -280462.77047                  21381491.0974
        50.7504         37.5004
  22093474.2434    2400642.50049   1847693.87147                  22093472.4544
        46.0004         29.5004
  24504780.3654    3551420.69149   2755744.70746                  24504782.4044
        38.2504         17.5004
  24379052.0234    2595153.50849   1994416.03946                  24379051.1624
        42.5004         25.5004
  23749859.7044   -1691470.27749  -1310504.69147                  23749858.8664
        44.5004         26.2504
  23763732.6964    2364433.10958
        28.5004
  20731133.8404    -420062.55949   -328065.37148                  20731131.6204
        52.0004         41.2504
 04  7  7 20  9 45.0000000  0  7G 1G11G14G19G20G22G25
  23563495.8234   -1579740.01249  -1223776.44946                  23563497.2274
        41.7504         24.2504
  21380650.4094    -362344.47749   -283915.89147                  21380647.9424
        48.5004         38.0004
  22102174.1734    2446359.76649   1883317.69147                  22102172.4744
        46.2504         31.0004
  24388424.6854    2644404.10549   2032793.13746                  24388422.5404
        43.0004         24.5004
  23743424.6834   -1725287.34449  -1336855.60546                  23743423.2604
        43.5004         23.5004
  23772335.1964
        27.2504
  20730068.1104    -425663.45749   -332429.69948                  20730065.9294
        50.0004         42.0004
 04  7  7 20 10  0.0000000  0  7G 1G11G14G19G20G22G25
  23557868.6154   -1609313.92249  -1246821.03146                  23557869.5394
        42.5004         24.7504
  21379827.0684    -366669.86349   -287286.32047                  21379824.6244
        49.7504         37.2504
  22110873.9514    2492078.95749   1918943.01647                  22110872.6204
        45.2504         30.2504
  24397793.0404    2693636.95349   2071156.34846                  24397791.4334
        42.5004         24.7504
  23736984.2984   -1759129.22349  -1363225.87146                  23736982.9514
        42.7504         25.2504
  23780938.1064
        27.2504
  20729022.6194    -431157.98049   -336711.14148                  20729020.7264
        52.0004         42.2504
 04  7  7 20 10 15.0000000  0  6G 1G11G14G19G20G25
  23552244.9174   -1638864.53549  -1269847.47346                  23552246.0364
        43.0004         24.5004
  21379024.1664    -370889.43749   -290574.30547                  21379021.9744
        50.2504         38.2504
  22119575.1784    2537799.39849   1954569.31647                  22119572.8674
        46.2504         30.2504
  24407157.5734    2742851.12949   2109505.03146                  24407156.6124
        43.2504         24.2504
  23730539.9774   -1792996.26649  -1389615.75446                  23730538.5004
        41.5004         22.5004
  20727996.9954    -436546.43449   -340909.92248                  20727995.0234
        52.2504         41.7504
 04  7  7 20 10 30.0000000  0  6G 1G11G14G19G20G25
  23546625.9674   -1668392.40649  -1292856.17646                  23546626.7724
        42.5004         24.5004
  21378241.3344    -375003.73049   -293780.24247                  21378238.7374
        51.0004         37.5004
  22128275.0464    2583520.42249   1990196.06647                  22128272.7964
        46.5004         30.0004
  24416519.2644    2792045.67649   2147838.40646                  24416517.7374
        42.7504         22.0004
  23724090.3824   -1826888.95749  -1416025.59046                  23724088.5984
        42.2504         25.2504
  20726991.7894    -441829.42249   -345026.52348                  20726989.8294
        52.5004         41.7504
 04  7  7 20 10 45.0000000  0  6G 1G11G14G19G20G25
  23541011.5334   -1697895.90249  -1315845.89146                  23541012.5474
        42.2504         25.0004
  21377478.5324    -379011.11349   -296902.88347                  21377476.1764
        51.0004         37.2504
  22136975.8194    2629243.33649   2025824.29747                  22136974.3134
        46.5004         29.2504
  24425877.1264    2841221.79349   2186157.43446                  24425875.9594
        43.0004         24.7504
  23717636.1914   -1860805.59449  -1442454.10946                  23717634.4174
        42.2504         24.7504
  20726006.9324    -447005.30149   -349059.66848                  20726004.7234
        53.0004         41.5004
 04  7  7 20 11  0.0000000  0  6G 1G11G14G19G20G25
  23535402.5204   -1727374.50449  -1338816.23046                  23535402.7204
        43.5004         25.2504
  21376736.7154    -382910.88749   -299941.66847                  21376734.5374
        50.2504         37.7504
  22145676.8294    2674968.39849   2061454.20747                  22145674.8194
        45.7504         29.5004
  24435232.4224    2890379.75849   2224462.29346                  24435230.7264
        43.2504         25.0004
  23711177.3104   -1894745.69549  -1468900.87546                  23711176.0184
        40.0004         22.7504
  20725042.4194    -452073.43049   -353008.85548                  20725040.3944
        52.7504         41.5004
 04  7  7 20 11 15.0000000  0  6G 1G11G14G19G20G25
  23529797.0824   -1756828.99249  -1361767.75446                  23529797.9734
        42.2504         24.0004
  21376014.9114    -386703.78949   -302897.17647                  21376012.2064
        50.7504         37.7504
  22154378.4984    2720694.68849   2097085.06647                  22154376.3174
        45.5004         28.2504
  24444582.6714    2939518.23049   2262751.94546                  24444582.1144
        43.2504         24.5004
  23704714.5324   -1928709.86749  -1495366.41846                  23704712.8384
        40.7504         24.0004
  20724098.3854    -457034.49649   -356874.61348                  20724096.4614
        51.7504         41.7504
 04  7  7 20 11 30.0000000  0  6G 1G11G14G19G20G25
  23524197.4564   -1786258.47749  -1384699.80147                  23524196.8244
        43.7504         26.0004
  21375313.7254    -390388.81249   -305768.62947                  21375311.1084
        51.0004         38.0004
  22163080.6034    2766422.79749   2132717.34447                  22163078.5354
        46.0004         29.5004
  24453930.0694    2988637.70749   2301026.81646                  24453928.2704
        43.0004         25.5004
  23698246.8464   -1962697.16849  -1521849.99646                  23698245.1984
        39.2504         25.2504
  20723174.6964    -461887.56249   -360656.21548                  20723172.5384
        52.2504         42.0004
 04  7  7 20 11 45.0000000  0  6G 1G11G14G19G20G25
  23518601.0024   -1815663.25049  -1407612.59447                  23518602.1874
        43.5004         26.5004
  21374632.8584    -393966.22349   -308556.22347                  21374630.0364
        51.0004         37.7504
  22171782.5044    2812152.30149   2168350.69547                  22171780.8804
        46.0004         29.5004
  24463273.1284    3037737.62549   2339286.45747                  24463272.7704
        42.5004         26.2504
  23691774.2414   -1996707.84449  -1548351.75446                  23691773.6164
        40.2504         24.2504
  20722271.8414    -466632.88749   -364353.87148                  20722269.3074
        52.5004         41.5004
 04  7  7 20 12  0.0000000  0  6G 1G11G14G19G20G25
  23513010.0494   -1845044.85549  -1430507.33647                  23513010.7014
        43.5004         26.7504
  21373972.5454    -397437.46549   -311261.08647                  21373969.6364
        49.0004         37.7504
  22180484.6784    2857881.25049   2203983.63347                  22180482.6234
        46.2504         29.0004
  24472612.1564    3086815.78149   2377529.13346                  24472611.7964
        43.0004         25.0004
  23685298.0534   -2030743.37149  -1574872.90247                  23685296.2644
        40.5004         26.2504
  20721388.9314    -471271.95749   -367968.72348                  20721386.8054
        50.5004         42.0004
 04  7  7 20 12 15.0000000  0  6G 1G11G14G19G20G25
  23507423.5954   -1874402.79349  -1453383.62547                  23507424.0824
        43.2504         25.7504
  21373332.0154    -400801.97349   -313882.78147                  21373329.3954
        51.0004         37.2504
  22189185.8024    2903610.19949   2239616.58247                  22189183.7164
        46.7504         28.5004
  24481948.0904    3135872.49249   2415755.09046                  24481946.8594
        43.5004         25.2504
  23678815.9714   -2064803.04349  -1601412.86346                  23678815.3514
        39.2504         25.2504
  20720526.5704    -475804.18449   -371500.32048                  20720524.1114
        51.7504         42.2504
 04  7  7 20 12 30.0000000  0  6G 1G11G14G19G20G25
  23501841.8574   -1903735.52049  -1476240.27346                  23501842.1954
        42.7504         25.2504
  21372712.3984    -404058.12949   -316420.05147                  21372709.4824
        48.5004         37.5004
  22197888.4204    2949340.23449   2275250.36747                  22197886.0704
        46.2504         28.5004
  24491279.4514    3184908.80149   2453965.15647                  24491278.5894
        43.7504         26.2504
  23672330.6224   -2098885.38349  -1627970.49647                  23672329.8344
        39.0004         26.2504
  20719684.8064    -480228.16449   -374947.57048                  20719682.1914
        50.2504         42.2504
 04  7  7 20 12 45.0000000  0  6G 1G11G14G19G20G25
  23496264.4534   -1933043.16049  -1499077.35947                  23496265.1224
        43.5004         26.7504
  21372113.5834    -407206.02049   -318872.95347                  21372110.9884
        51.0004         38.0004
  22206590.5894    2995071.28149   2310884.93047                  22206588.5804
        46.0004         29.0004
  24500606.1124    3233924.19149   2492158.94146                  24500605.2594
        44.2504         24.7504
  23665840.9964   -2132990.40649  -1654545.79747                  23665840.0164
        40.7504         25.7504
  20718863.4914    -484543.81249   -378310.40648                  20718861.3304
        51.0004         42.0004
 04  7  7 20 13  0.0000000  0  6G 1G11G14G19G20G25
  23490692.3404   -1962326.20349  -1521895.31246                  23490692.5244
        44.0004         25.5004
  21371534.8894    -410246.20749   -321241.93047                  21371532.3164
        48.5004         38.2504
  22215293.0454    3040802.43049   2346519.58247                  22215290.7834
        46.2504         30.5004
  24509928.8584    3282917.65249   2530335.63746                  24509928.4154
        43.5004         24.2504
  23659346.8984   -2167118.57449  -1681139.14147                  23659346.1384
        40.0004         26.2504
  20718062.5664    -488751.65249   -381589.24248                  20718060.5924
        50.5004         42.0004
 04  7  7 20 13 15.0000000  0  6G 1G11G14G19G20G25
  23485124.8014   -1991585.12149  -1544694.44947                  23485124.6684
        43.7504         27.5004
  21370977.1014    -413178.97749   -323527.21547                  21370974.2704
        51.5004         38.0004
  22223995.0284    3086533.07849   2382153.83647                  22223993.3994
        46.2504         29.5004
  24519248.2004    3331888.38349   2568494.61746                  24519247.7504
        43.0004         24.7504
  23652847.1744   -2201270.14149  -1707750.72347                  23652846.1984
        41.0004         25.7504
  20717282.1734    -492852.12949   -384784.41048                  20717280.2584
        51.2504         41.7504
 04  7  7 20 13 30.0000000  0  6G 1G11G14G19G20G25
  23479561.6084   -2020820.05949  -1567474.89147                  23479561.7394
        44.0004         26.7504
  21370439.3044    -416004.34049   -325728.79747                  21370436.8954
        49.5004         37.5004
  22232697.6844    3132262.78149   2417787.34847                  22232695.4334
        46.0004         28.7504
  24528562.5284    3380835.93449   2606635.53146                  24528561.4784
        42.0004         22.7504
  23646344.6744   -2235445.21949  -1734380.62147                  23646343.2994
        41.0004         27.5004
  20716522.4234    -496845.34049   -387896.00448                  20716520.4224
        49.7504         41.2504
 04  7  7 20 13 45.0000000  0  6G 1G11G14G19G20G25
  23474003.0954   -2050029.85549  -1590235.74647                  23474003.0554
        44.0004         26.7504
  21369922.3034    -418721.12549   -327845.77347                  21369919.7964
        51.0004         37.5004
  22241399.0664    3177992.62949   2453420.98847                  22241397.4694
        46.0004         28.2504
  24537872.8024    3429760.96549   2644758.89846                  24537871.7644
        41.5004         24.7504
  23639836.4894   -2269642.62549  -1761027.91847                  23639836.0424
        42.2504         27.0004
  20715783.1334    -500729.96149   -390922.97348                  20715781.2534
        51.5004         41.7504
 04  7  7 20 14  0.0000000  0  6G 1G11G14G19G20G25
  23468449.0394   -2079213.61349  -1612976.31247                  23468449.4974
        43.7504         26.2504
  21369426.2904    -421328.26649   -329877.31247                  21369424.0674
        48.7504         37.7504
  22250102.0234    3223723.19949   2489055.18047                  22250099.7744
        46.0004         29.0004
  24547178.3894    3478663.98449   2682865.10546                  24547178.2484
        42.5004         22.5004
  23633325.1584   -2303861.32449  -1787691.80547                  23633324.4064
        42.0004         27.5004
  20715065.0764    -504505.26249   -393864.76248                  20715062.8484
        50.5004         41.5004
 04  7  7 20 14 15.0000000  0  6G 1G11G14G19G20G25
  23462900.8334   -2108370.43449  -1635695.88747                  23462901.1754
        43.5004         26.5004
  21368951.0664    -423824.95749   -331822.78547                  21368948.6414
        50.7504         37.7504
  22258804.4394    3269455.10549   2524690.42247                  22258801.8814
        46.5004         29.0004
  24556480.6934    3527545.47749   2720954.52746                  24556479.8994
        41.7504         25.0004
  23626809.5984   -2338100.43449  -1814371.60947                  23626808.7894
        41.5004         26.7504
  20714367.6454    -508170.23049   -396720.58648                  20714365.3634
        51.0004         42.0004
 04  7  7 20 14 30.0000000  0  6G 1G11G14G19G20G25
  23457357.9084   -2137500.07449  -1658394.28947                  23457358.0544
        44.0004         27.0004
  21368496.8024    -426211.07049   -333682.09447                  21368494.1004
        51.2504         37.7504
  22267507.4244    3315188.44149   2560326.77047                  22267505.0214
        45.0004         28.7504
  24565778.6834    3576405.23049   2759027.03546                  24565777.4144
        42.5004         24.2504
  23620290.2254   -2372359.55149  -1841066.99647                  23620289.2494
        43.2504         26.5004
  20713690.9154    -511724.71549   -399490.30948                  20713688.6154
        52.2504         42.0004
 04  7  7 20 14 45.0000000  0  6G 1G11G14G19G20G25
  23451819.3424   -2166602.84449  -1681071.73847                  23451819.8584
        44.0004         27.5004
  21368063.8394    -428486.68049   -335455.30547                  21368061.6254
        51.0004         37.2504
  22276210.3114    3360922.69149   2595963.82847                  22276208.0824
        45.2504         28.5004
  24575071.9874    3625242.65649   2797082.10546                  24575070.8444
        42.0004         23.5004
  23613767.4844   -2406638.92249  -1867778.15646                  23613765.8654
        43.0004         25.0004
  20713035.6404    -515168.81649   -402174.02348                  20713033.4594
        52.5004         41.7504
 04  7  7 20 15  0.0000000  0  6G 1G11G14G19G20G25
  23446286.8304   -2195678.68749  -1703728.22347                  23446287.7754
        44.0004         26.2504
  21367651.9664    -430651.53549   -337142.20747                  21367649.1234
        51.7504         37.0004
  22284913.1754    3406657.62149   2631601.40647                  22284911.5094
        44.7504         27.2504
  24584361.5844    3674057.25449   2835119.41846                  24584360.3844
        42.2504         24.5004
  23607240.4014   -2440938.41849  -1894505.02347                  23607238.3204
        43.7504         26.0004
  20712400.9264    -518502.58649   -404771.75848                  20712398.9764
        52.5004         41.7504
 04  7  7 20 15 15.0000000  0  6G 1G11G14G19G20G25
  23440758.2424   -2224728.00449  -1726364.02747                  23440760.0174
        43.5004         27.7504
  21367260.8704    -432706.04349   -338743.12547                  21367258.3054
        49.7504         37.5004
  22293616.0174    3452392.68049   2667239.11747                  22293614.4174
        44.7504         28.0004
  24593646.2584    3722848.31349   2873138.36347                  24593645.7184
        43.0004         26.5004
  23600708.9344   -2475258.36349  -1921247.80947                  23600708.1814
        43.7504         26.2504
  20711787.7654    -521726.33249   -407283.75848                  20711785.7144
        51.2504         41.7504
 04  7  7 20 15 30.0000000  0  6G 1G11G14G19G20G25
  23435236.3984   -2253750.84849  -1748979.19547                  23435236.6074
        44.5004         27.2504
  21366891.1664    -434650.17649   -340258.02747                  21366888.4944
        50.7504         37.5004
  22302319.0184    3498127.60949   2702876.69947                  22302317.5534
        44.5004         29.0004
  24602925.0274    3771615.38349   2911138.64146                  24602924.9974
        41.7504         24.5004
  23594174.5424   -2509598.69149  -1948006.46947                  23594173.0654
        43.5004         26.0004
  20711195.1554    -524840.02349   -409710.01248                  20711193.0614
        52.0004         41.2504
 04  7  7 20 15 45.0000000  0  6G 1G11G14G19G20G25
  23429718.1894   -2282745.69149  -1771572.54747                  23429718.7854
        44.0004         27.7504
  21366542.6544    -436482.37949   -341685.72747                  21366539.6044
        49.2504         38.7504
  22311022.9764    3543863.84849   2738515.34047                  22311020.0304
        44.5004         27.0004
  24612202.2434    3820359.63749   2949121.11746                  24612201.1424
        41.7504         25.5004
  23587635.7854   -2543957.70749  -1974779.71546                  23587634.3324
        44.5004         24.7504
  20710623.8374    -527842.16449   -412049.34048                  20710621.5274
        49.5004         41.0004
 04  7  7 20 16  0.0000000  0  5G 1G11G14G20G25
  23424206.2304   -2311712.35949  -1794143.96547                  23424206.6964
        44.0004         26.7504
  21366215.1764    -438202.42649   -343026.02047                  21366212.6714
        51.5004         38.2504
  22319726.3304    3589601.27049   2774154.85547                  22319724.1704
        44.5004         27.0004
  23581094.0514   -2578335.30549  -2001567.43046                  23581092.3144
        43.5004         24.2504
  20710073.7764    -530732.47349   -414301.52348                  20710071.5954
        51.7504         41.5004
 04  7  7 20 16 15.0000000  0  5G 1G11G14G20G25
  23418699.5274   -2340651.40249  -1816693.84447                  23418699.5634
        44.2504         26.5004
  21365909.1434    -439810.78949   -344279.29347                  21365906.4504
        51.0004         37.7504
  22328429.5114    3635339.16849   2809794.75847                  22328428.3664
        44.0004         27.5004
  23574548.6774   -2612731.86349  -2028369.93046                  23574546.7994
        43.2504         23.7504
  20709545.1834    -533511.57449   -416467.05148                  20709542.6934
        52.0004         41.0004
 04  7  7 20 16 30.0000000  0  5G 1G11G14G20G25
  23413197.3334   -2369563.12149  -1839222.42647                  23413197.7284
        43.7504         27.0004
  21365624.1694    -441307.63749   -345445.67247                  21365621.6914
        51.7504         38.2504
  22337133.7414    3681076.96949   2845434.56647                  22337131.8274
        44.2504         27.2504
  23567999.4614   -2647147.52749  -2055187.29746                  23567997.7674
        43.7504         23.5004
  20709037.1314    -536179.77349   -418546.16448                  20709035.4534
        52.5004         41.0004
 04  7  7 20 16 45.0000000  0  5G 1G11G14G20G25
  23407701.3804   -2398446.83249  -1861729.19147                  23407701.4994
        43.2504         26.2504
  21365360.7704    -442692.42649   -346524.72747                  21365357.9594
        51.0004         38.0004
  22345837.0534    3726815.21149   2881074.76247                  22345835.4394
        44.2504         27.0004
  23561447.2854   -2681581.49649  -2082018.91447                  23561445.2974
        43.7504         27.0004
  20708550.9014    -538736.20749   -420538.18048                  20708548.7524
        52.2504         41.5004
 04  7  7 20 17  0.0000000  0  5G 1G11G14G20G25
  23402210.0074   -2427301.49649  -1884213.30947                  23402210.2124
        43.0004         27.2504
  21365118.6454    -443963.99249   -347515.56247                  21365116.1194
        49.0004         38.0004
  22354541.0024    3772554.72749   2916715.93447                  22354539.2264
        43.7504         26.5004
  23554890.6434   -2716032.82049  -2108864.08646                  23554889.5134
        43.2504         23.0004
  20708085.5874    -541179.93749   -422442.37948                  20708083.9264
        50.2504         41.2504
 04  7  7 20 17 15.0000000  0  5G 1G11G14G20G25
  23396725.0014   -2456126.11749  -1906674.02747                  23396725.0144
        43.0004         27.0004
  21364898.6754    -445121.41049   -348417.44547                  21364895.7414
        50.7504         37.5004
  22363245.7954    3818296.17249   2952358.59446                  22363243.4134
        43.7504         25.2504
  23548331.3504   -2750500.41049  -2135721.91046                  23548330.5574
        42.7504         23.5004
  20707642.6384    -543509.87949   -424257.91448                  20707640.5134
        51.7504         41.2504
 04  7  7 20 17 30.0000000  0  5G 1G11G14G20G25
  23391245.9124   -2484921.22749  -1929111.75047                  23391245.7834
        44.2504         26.2504
  21364699.9764    -446165.08649   -349230.70347                  21364697.0824
        51.0004         38.2504
  22371950.0244    3864038.96549   2988002.31347                  22371947.8714
        43.2504         25.7504
  23541769.9814   -2784984.59449  -2162592.68746                  23541768.2994
        42.7504         25.5004
  20707220.2154    -545726.56649   -425985.19948                  20707218.7954
        51.7504         42.0004
 04  7  7 20 17 45.0000000  0  5G 1G11G14G20G25
  23385770.8294   -2513687.50049  -1951526.98847                  23385771.0924
        43.7504         26.5004
  21364522.6244    -447095.70749   -349955.86747                  21364520.2264
        51.5004         38.0004
  22380654.5054    3909782.17649   3023646.35547                  22380652.3504
        43.5004         26.7504
  23535204.4004   -2819486.05549  -2189476.91047                  23535203.2474
        43.5004         26.0004
  20706820.4354    -547830.55549   -427624.66048                  20706818.3064
        52.2504         41.5004
 04  7  7 20 18  0.0000000  0  5G 1G11G14G20G25
  23380303.3094   -2542425.10549  -1973919.90647                  23380302.2974
        43.5004         26.7504
  21364367.2694    -447913.19949   -350592.86747                  21364364.7464
        51.0004         38.0004
  22389359.3684    3955525.41449   3059290.41446                  22389357.8934
        42.5004         25.2504
  23528635.6234   -2854004.72749  -2216374.54347                  23528634.5584
        43.5004         25.7504
  20706441.1454    -549822.24249   -429176.61748                  20706438.9014
        52.0004         42.0004
 04  7  7 20 18 15.0000000  0  5G 1G11G14G20G25
  23374839.6414   -2571134.16849  -1996290.57447                  23374839.0204
        44.0004         26.5004
  21364233.2334    -448617.65649   -351141.80947                  21364230.3064
        49.2504         38.0004
  22398063.5544    4001268.41049   3094934.28546                  22398061.9574
        43.0004         25.2504
  23522064.2334   -2888540.69549  -2243285.65647                  23522062.4084
        43.7504         26.0004
  20706083.4684    -551701.58249   -430641.03548                  20706081.3494
        51.0004         42.0004
 04  7  7 20 18 30.0000000  0  5G 1G11G14G20G25
  23369381.9454   -2599814.93749  -2018639.20747                  23369381.5724
        43.7504         25.7504
  21364120.8004    -449209.35949   -351602.87147                  21364117.9484
        49.7504         38.5004
  22406768.6554    4047010.68449   3130577.61347                  22406766.7064
        42.2504         26.2504
  23515488.3384   -2923094.16049  -2270210.41047                  23515487.8144
        44.5004         26.5004
  20705747.1954    -553468.89549   -432018.15648                  20705744.9004
        51.0004         41.7504
 04  7  7 20 18 45.0000000  0  5G 1G11G14G20G25
  23363929.7624   -2628467.17649  -2040965.57447                  23363929.1304
        44.0004         27.0004
  21364029.8204    -449687.87949   -351975.74247                  21364026.8214
        51.2504         38.2504
  22415472.8594    4092752.44149   3166220.52346                  22415471.0784
        42.0004         24.7504
  23508910.1914   -2957664.56649  -2297148.36347                  23508908.8654
        44.2504         26.5004
  20705432.0154    -555123.73449   -433307.63748                  20705430.1324
        52.0004         41.5004
 04  7  7 20 19  0.0000000  0  5G 1G11G14G20G25
  23358482.5204   -2657091.25049  -2063270.02747                  23358482.3334
        44.0004         27.0004
  21363960.0394    -450053.80949   -352260.88347                  21363957.4434
        51.5004         37.7504
  22424176.2954    4138492.94549   3201862.46146                  22424175.1864
        41.5004         25.5004
  23502328.4294   -2992252.36749  -2324099.85947                  23502327.0324
        44.7504         27.0004
  20705138.8474    -556666.49249   -434509.78948                  20705136.4364
        52.2504         41.7504
 04  7  7 20 19 15.0000000  0  5G 1G11G14G20G25
  23353041.7864   -2685685.66849  -2085551.36347                  23353041.1534
        45.0004         27.7504
  21363912.0314    -450305.54749   -352457.04747                  21363909.5524
        49.5004         38.0004
  22432881.4534    4184233.50449   3237504.44546                  22432878.8944
        40.7504         24.0004
  23495743.0324   -3026856.06649  -2351063.73447                  23495742.3404
        44.5004         28.5004
  20704866.6654    -558095.71949   -435623.46548                  20704864.7434
        50.7504         41.7504
 04  7  7 20 19 30.0000000  0  5G 1G11G14G20G25
  23347605.3714   -2714250.75849  -2107809.84847                  23347605.2244
        45.2504         28.7504
  21363885.8954    -450443.25449   -352564.35547                  21363882.9284
        50.7504         38.5004
  22441584.9604    4229973.60949   3273146.07046                  22441582.9834
        40.0004         23.2504
  23489155.2144   -3061475.69949  -2378040.04747                  23489154.6434
        44.5004         27.2504
  20704616.2464    -559411.90649   -436649.05948                  20704614.1144
        52.0004         42.0004
 04  7  7 20 19 45.0000000  0  5G 1G11G14G20G25
  23342175.5274   -2742787.25049  -2130046.04347                  23342175.2524
        45.7504         27.7504
  21363881.1134    -450467.73849   -352583.44147                  21363878.1894
        51.5004         38.5004
  22450289.1174    4275712.37549   3308786.64846                  22450286.5474
        40.5004         25.5004
  23482564.0004   -3096111.87149  -2405029.23847                  23482563.4034
        44.0004         27.0004
  20704387.5544    -560615.54749   -437586.96148                  20704384.9344
        52.2504         42.0004
 04  7  7 20 20  0.0000000  0  5G 1G11G14G20G25
  23336750.3604   -2771296.01649  -2152260.64547                  23336749.9454
        45.2504         28.0004
  21363898.0304    -450379.78949   -352514.91847                  21363895.0074
        51.2504         38.5004
  22458992.0114    4321448.61749   3344425.28946                  22458990.2144
        38.5004         24.0004
  23475969.4874   -3130765.58249  -2432032.09847                  23475968.3004
        44.0004         26.7504
  20704179.6084    -561707.52349   -438437.85548                  20704177.7394
        52.2504         42.0004
 04  7  7 20 20 15.0000000  0  5G 1G11G14G20G25
  23331330.5794   -2799776.69149  -2174453.35947                  23331330.1924
        44.7504         28.5004
  21363936.2264    -450179.00449   -352358.46147                  21363933.4584
        49.5004         38.2504
  22467695.2804    4367182.60549   3380062.12146                  22467693.6454
        39.2504         22.7504
  23469371.9504   -3165436.18049  -2459048.10947                  23469371.3044
        43.5004         26.7504
  20703992.8714    -562687.56249   -439201.52748                  20703990.9544
        49.7504         42.0004
 04  7  7 20 20 30.0000000  0  5G 1G11G14G20G25
  23325916.1304   -2828230.44549  -2196625.09047                  23325915.4994
        43.7504         26.7504
  21363995.7494    -449866.44949   -352114.92247                  21363992.7854
        51.2504         38.0004
  22476397.3034    4412913.05149   3415696.21546                  22476395.7574
        39.5004         24.5004
  23462771.1964   -3200124.73849  -2486078.12147                  23462770.3454
        44.2504         27.2504
  20703827.6384    -563556.64149   -439878.72348                  20703825.5654
        51.2504         42.0004
 04  7  7 20 20 45.0000000  0  5G 1G11G14G20G25
  23320506.8534   -2856656.63749  -2218775.35247                  23320506.3634
        44.5004         28.0004
  21364076.5644    -449441.50449   -351783.80547                  21364073.9094
        51.7504         38.2504
  22485098.9604    4458640.34449   3451327.84846                  22485097.4214
        40.0004         24.0004
  23456166.2744   -3234830.56249  -2513121.58647                  23456165.8654
        43.2504         27.0004
  20703683.3844    -564314.30949   -440469.11748                  20703681.1354
        52.0004         42.0004
 04  7  7 20 21  0.0000000  0  5G 1G11G14G20G25
  23315102.1154   -2885055.21949  -2240904.07847                  23315102.1744
        42.7504         27.7504
  21364178.7544    -448904.08649   -351365.03947                  21364175.9464
        50.7504         38.0004
  22493799.7504    4504364.27749   3486956.87946                  22493798.1324
        40.5004         24.5004
  23449559.1784   -3269553.51649  -2540178.39847                  23449557.5484
        44.2504         26.7504
  20703560.7734    -564960.37549   -440972.54748                  20703558.5164
        52.0004         41.5004
 04  7  7 20 21 15.0000000  0  5G 1G11G14G20G25
  23309703.9144   -2913425.39149  -2263010.68447                  23309703.3174
        43.7504         28.7504
  21364302.3334    -448253.50849   -350858.10247                  21364299.7314
        51.2504         38.2504
  22502500.1114    4550085.53949   3522583.82046                  22502498.1684
        39.2504         23.5004
  23442948.3924   -3304292.60249  -2567247.79347                  23442947.3914
        44.0004         26.7504
  20703458.7744    -565494.07449   -441388.41448                  20703456.8284
        52.2504         42.0004
 04  7  7 20 21 30.0000000  0  5G 1G11G14G20G25
  23304310.1564   -2941767.27749  -2285095.25047                  23304309.7594
        42.5004         27.2504
  21364448.2494    -447489.66049   -350262.90247                  21364445.5664
        48.7504         38.0004
  22511200.6094    4595803.84349   3558208.48446                  22511197.8514
        40.0004         24.0004
  23436334.9414   -3339047.88349  -2594329.79347                  23436333.3934
        45.0004         28.2504
  20703378.6144    -565915.51249   -441716.80548                  20703376.5524
        50.7504         42.0004
 04  7  7 20 21 45.0000000  0  5G 1G11G14G20G25
  23298922.7864   -2970080.52749  -2307157.50047                  23298922.3004
        43.0004         28.7504
  21364614.9544    -446612.16449   -349579.14147                  21364612.0244
        50.5004         38.5004
  22519899.6074    4641519.36749   3593830.93446                  22519897.2074
        39.2504         24.5004
  23429717.8944   -3373818.95349  -2621424.10947                  23429716.7084
        43.2504         27.0004
  20703319.8834    -566224.41049   -441957.51248                  20703317.8454
        51.2504         41.2504
 04  7  7 20 22  0.0000000  0  5G 1G11G14G20G25
  23293540.4114   -2998363.98449  -2329196.52747                  23293540.0294
        43.2504         27.2504
  21364803.8624    -445619.83249   -348805.90247                  21364801.1134
        50.5004         38.5004
  22528598.4684    4687232.95749   3629451.91246                  22528596.5564
        37.5004         25.0004
  23423098.7004   -3408604.46149  -2648529.66847                  23423097.2184
        42.0004         27.2504
  20703283.1884    -566419.46549   -442109.49648                  20703280.8754
        51.7504         41.7504
 04  7  7 20 22 15.0000000  0  5G 1G11G14G20G25
  23288164.5534   -3026617.42649  -2351212.18047                  23288164.3184
        42.5004         28.2504
  21365014.6854    -444512.38349   -347942.95347                  21365011.7674
        48.2504         38.0004
  22537297.3274    4732944.82449   3665071.46546                  22537295.1144
        37.7504         22.7504
  23416476.6024   -3443404.05549  -2675646.19547                  23416474.9214
        43.2504         28.0004
  20703267.0364    -566500.61349   -442172.73048                  20703264.9644
        49.7504         42.0004
 04  7  7 20 22 30.0000000  0  5G 1G11G14G20G25
  23282793.2804   -3054841.71149  -2373205.10247                  23282793.1344
        44.0004         27.7504
  21365246.6704    -443290.48049   -346990.83247                  21365244.6234
        50.0004         38.0004
  22545995.1004    4778653.84849   3700688.85946                  22545993.6104
        39.2504         25.2504
  23409851.3084   -3478218.43449  -2702774.26647                  23409850.2224
        42.5004         28.2504
  20703273.6474    -566468.64849   -442147.83248                  20703271.6054
        52.0004         42.2504
 04  7  7 20 22 45.0000000  0  5G 1G11G14G20G25
  23277427.1854   -3083036.52749  -2395175.05547                  23277427.7014
        44.2504         28.5004
  21365501.2254    -441954.03149   -345949.44147                  21365498.6284
        50.2504         37.7504
  22554692.9854    4824360.17249   3736304.18047                  22554691.3194
        37.5004         26.0004
  23403223.1444   -3513047.30149  -2729913.62147                  23403222.1074
        43.5004         27.2504
  20703300.7614    -566323.34449   -442034.60548                  20703299.0904
        52.2504         42.7504
 04  7  7 20 23  0.0000000  0  5G 1G11G14G20G25
  23272068.2164   -3111201.51649  -2417121.78147                  23272067.6624
        44.5004         28.5004
  21365777.5254    -440502.64849   -344818.49647                  21365774.8524
        51.2504         38.0004
  22563389.5304    4870064.01649   3771917.55146                  22563388.1744
        39.0004         24.5004
  23396593.7094   -3547890.12549  -2757063.84047                  23396591.7794
        44.5004         27.0004
  20703350.3494    -566064.16049   -441832.64548                  20703348.4364
        52.2504         42.0004
 04  7  7 20 23 15.0000000  0  5G 1G11G14G20G25
  23266713.9784   -3139336.13749  -2439044.85247                  23266713.9194
        42.5004         27.2504
  21366075.3244    -438935.85949   -343597.62547                  21366072.8404
        50.7504         38.2504
  22572086.6794    4915765.66049   3807529.19946                  22572085.0094
        38.2504         25.5004
  23389960.5334   -3582746.24649  -2784224.41847                  23389958.5664
        44.0004         27.2504
  20703421.4584    -565690.62949   -441541.58648                  20703419.6274
        52.0004         42.2504
 04  7  7 20 23 30.0000000  0  5G 1G11G14G20G25
  23261365.9544   -3167439.96549  -2460943.91847                  23261365.9704
        42.0004         28.0004
  21366395.9834    -437253.20749   -342286.47347                  21366393.0374
        50.2504         37.5004
  22580783.3224    4961465.31649   3843139.27346                  22580781.2104
        38.7504         24.0004
  23383324.8584   -3617615.13349  -2811394.95747                  23383323.4464
        45.5004         26.2504
  20703514.7054    -565202.43449   -441161.17648                  20703512.3614
        52.0004         42.0004
 04  7  7 20 23 45.0000000  0  5G 1G11G14G20G25
  23256023.9154   -3195512.49649  -2482818.60247                  23256023.9104
        43.0004         27.5004
  21366738.1644    -435454.08649   -340884.57047                  21366735.5004
        50.7504         38.5004
  22589479.2854    5007163.33249   3878748.10547                  22589477.7594
        40.5004         26.5004
  23376687.2904   -3652496.10249  -2838574.91047                  23376685.4544
        44.2504         27.0004
  20703629.1114    -564599.02349   -440690.98448                  20703626.8264
        52.0004         42.0004
 04  7  7 20 24  0.0000000  0  5G 1G11G14G20G25
  23250687.7154   -3223552.62149  -2504668.03547                  23250688.3644
        43.7504         27.5004
  21367103.1734    -433537.42249   -339391.07047                  21367100.3304
        51.7504         38.0004
  22598176.0944    5052860.68049   3914356.41047                  22598173.6974
        41.0004         27.5004
  23370047.9694   -3687388.00849  -2865763.36747                  23370045.8854
        45.0004         27.7504
  20703765.9504    -563879.31249   -440130.17248                  20703764.0674
        52.2504         41.7504
 04  7  7 20 24 15.0000000  0  5G 1G11G14G20G25
  23245358.3564   -3251561.89849  -2526493.42247                  23245358.0394
        43.0004         28.0004
  21367489.8604    -431504.53949   -337807.00847                  21367487.0604
        51.5004         37.7504
  22606870.7604    5098555.78149   3949962.95747                  22606868.8934
        41.0004         26.0004
  23363405.8484   -3722292.27749  -2892961.48447                  23363403.7374
        44.7504         28.0004
  20703924.9244    -563044.74649   -439479.86348                  20703922.8344
        52.0004         41.2504
 04  7  7 20 24 30.0000000  0  5G 1G11G14G20G25
  23240034.3654   -3279538.25049  -2548293.16847                  23240033.7984
        43.0004         27.2504
  21367899.1234    -429353.62949   -336130.98447                  21367895.9984
        50.7504         37.5004
  22615566.6124    5144250.37949   3985569.10247                  22615564.6364
        40.5004         26.7504
  23356761.5334   -3757206.69949  -2920167.48847                  23356759.9584
        43.7504         26.2504
  20704106.0164    -562093.32849   -438738.50048                  20704103.7024
        51.7504         42.0004
 04  7  7 20 24 45.0000000  0  5G 1G11G14G20G25
  23234716.6984   -3307479.80549  -2570065.77347                  23234717.2564
        42.5004         27.0004
  21368331.2424    -427082.49249   -334361.26247                  21368328.5124
        50.7504         37.7504
  22624262.2154    5189946.10949   4021176.16047                  22624260.1264
        41.0004         27.2504
  23350116.0014   -3792129.27749  -2947379.84847                  23350114.1694
        44.5004         27.0004
  20704309.4944    -561023.19149   -437904.62548                  20704306.8994
        51.7504         41.7504
 04  7  7 20 25  0.0000000  0  5G 1G11G14G20G25
  23229406.3894   -3335387.89149  -2591812.31647                  23229406.3944
        41.7504         28.5004
  21368785.8874    -424692.35249   -332498.82447                  21368783.1764
        50.5004         37.7504
  22632957.2394    5235641.64849   4056783.05147                  22632955.6874
        42.0004         25.7504
  23343468.3864   -3827061.12149  -2974599.44147                  23343466.8764
        44.7504         25.7504
  20704535.5574    -559835.64149   -436979.26248                  20704533.5084
        51.7504         41.7504
 04  7  7 20 25 15.0000000  0  5G 1G11G14G20G25
  23224102.0134   -3363262.88349  -2613533.06247                  23224102.1034
        42.5004         27.0004
  21369263.3844    -422183.86349   -330544.15647                  21369260.9214
        50.5004         37.5004
  22641652.9574    5281336.38749   4092389.32446                  22641651.2324
        40.7504         25.5004
  23336819.2104   -3862002.60249  -3001826.54747                  23336817.5524
        44.2504         26.0004
  20704783.7774    -558531.12949   -435962.75848                  20704781.5604
        52.0004         42.0004
 04  7  7 20 25 30.0000000  0  5G 1G11G14G20G25
  23218803.7814   -3391103.76649  -2635227.23847                  23218804.2084
        42.0004         27.0004
  21369763.5844    -419555.79749   -328496.32047                  21369760.8684
        50.5004         37.5004
  22650348.4664    5327031.16849   4127995.63747                  22650346.5304
        41.0004         26.5004
  23330168.5534   -3896952.58649  -3029060.25847                  23330167.2194
        45.0004         27.0004
  20705054.7484    -557108.60549   -434854.29348                  20705052.3234
        52.0004         42.0004
 04  7  7 20 25 45.0000000  0  5G 1G11G14G20G25
  23213512.1724   -3418910.89849  -2656895.11747                  23213512.2964
        41.2504         26.5004
  21370286.2924    -416808.55149   -326355.61747                  21370283.1514
        50.7504         38.2504
  22659043.7454    5372725.52049   4163601.60247                  22659041.9474
        40.7504         26.5004
  23323516.4214   -3931911.13349  -3056300.68047                  23323514.8304
        44.7504         27.0004
  20705347.4534    -555568.36349   -433654.10548                  20705345.2704
        51.7504         42.0004
 04  7  7 20 26  0.0000000  0  5G 1G11G14G20G25
  23208226.6174   -3446684.67649  -2678537.00847                  23208227.0584
        41.0004         26.7504
  21370831.5214    -413942.46149   -324122.30547                  21370828.7734
        51.5004         38.0004
  22667739.0104    5418418.90649   4199206.80547                  22667737.0644
        41.2504         26.0004
  23316861.8434   -3966878.64549  -3083548.07447                  23316860.4014
        45.5004         26.7504
  20705663.1354    -553910.80149   -432362.49648                  20705660.7344
        51.7504         41.7504
 04  7  7 20 26 15.0000000  0  5G 1G11G14G20G25
  23202948.4184   -3474425.30949  -2700153.06647                  23202948.3704
        40.7504         26.2504
  21371399.9514    -410957.82849   -321796.62147                  21371397.0114
        49.5004         37.7504
  22676434.1494    5464110.89149   4234810.93047                  22676431.6574
        43.0004         27.0004
  23310206.7054   -4001855.16049  -3110802.45346                  23310205.1504
        44.5004         25.5004
  20706000.8514    -552136.25049   -430979.73048                  20705998.6344
        51.2504         41.5004
 04  7  7 20 26 30.0000000  0  5G 1G11G14G20G25
  23197675.0474   -3502133.93449  -2721744.17647                  23197675.8784
        41.0004         27.0004
  21371990.1044    -407855.76649   -319379.43047                  21371987.2804
        49.7504         37.7504
  22685129.0494    5509800.09049   4270412.89147                  22685126.2494
        43.7504         26.5004
  23303548.9134   -4036841.70749  -3138064.68047                  23303547.1694
        45.5004         27.0004
  20706360.7414    -550245.84849   -429506.68448                  20706358.5784
        50.5004         41.5004
 04  7  7 20 26 45.0000000  0  5G 1G11G14G20G25
  23192408.4454   -3529809.93049  -2743309.86347                  23192409.0204
        41.5004         27.0004
  21372602.6674    -404635.71149   -316870.30147                  21372600.1894
        50.7504         38.2504
  22693822.3044    5555486.89549   4306012.98447                  22693819.7904
        43.7504         26.5004
  23296889.3414   -4071837.51649  -3165334.11747                  23296887.5224
        44.5004         27.0004
  20706742.5654    -548239.02749   -427942.92648                  20706740.1774
        52.0004         41.7504
 04  7  7 20 27  0.0000000  0  5G 1G11G14G20G25
  23187147.6874   -3557454.80949  -2764851.32047                  23187148.3554
        38.7504         26.2504
  21373237.7004    -401298.90249   -314270.19947                  21373235.7854
        51.2504         38.7504
  22702515.3564    5601169.87149   4341610.07847                  22702513.9264
        44.0004         28.0004
  23290227.5204   -4106843.85949  -3192611.75847                  23290226.0164
        44.5004         27.2504
  20707146.2654    -546117.06649   -426289.44948                  20707144.0174
        51.5004         41.7504
 04  7  7 20 27 15.0000000  0  5G 1G11G14G20G25
  23181893.3774   -3585067.95349  -2786368.02747                  23181894.0514
        41.7504         28.2504
  21373894.9204    -397844.89149   -311578.75847                  21373892.4714
        50.7504         38.0004
  22711208.3724    5646849.34849   4377204.44147                  22711206.6094
        44.0004         27.0004
  23283564.3494   -4141860.16049  -3219897.16047                  23283562.6064
        44.2504         27.0004
  20707572.1084    -543879.60549   -424545.97748                  20707570.1194
        52.0004         42.0004
 04  7  7 20 27 30.0000000  0  5G 1G11G14G20G25
  23176644.9084   -3612648.76649  -2807859.55947                  23176645.3594
        41.2504         28.0004
  21374574.7274    -394272.94549   -308795.43047                  21374572.2014
        50.7504         39.0004
  22719899.8654    5692525.80949   4412796.47747                  22719897.9964
        44.0004         27.0004
  23276899.2144   -4176885.60549  -3247189.68747                  23276897.5704
        43.5004         27.5004
  20708019.7814    -541526.01649   -422712.00848                  20708017.8614
        51.5004         42.0004
 04  7  7 20 27 45.0000000  0  5G 1G11G14G20G25
  23171402.8514   -3640196.37549  -2829325.21547                  23171403.3234
        41.0004         26.7504
  21375277.1404    -390582.30149   -305919.60547                  21375274.3334
        49.5004         38.5004
  22728591.6084    5738199.85949   4448386.62147                  22728589.6434
        43.2504         26.5004
  23270232.3324   -4211919.20749  -3274488.56647                  23270230.5984
        44.2504         27.0004
  20708489.9464    -539055.50449   -420786.93748                  20708488.3604
        50.7504         41.7504
 04  7  7 20 28  0.0000000  0  5G 1G11G14G20G25
  23166166.7864   -3667711.51249  -2850765.55947                  23166167.0604
        42.5004         27.2504
  21376001.7924    -386773.75849   -302951.92247                  21375999.1784
        51.5004         38.5004
  22737282.5794    5783870.71549   4483974.28547                  22737280.6534
        42.5004         27.0004
  23263564.1594   -4246961.56249  -3301794.27047                  23263562.3954
        44.2504         28.5004
  20708981.8864    -536468.83249   -418771.34448                  20708980.2524
        51.2504         41.7504
 04  7  7 20 28 15.0000000  0  5G 1G11G14G20G25
  23160937.2504   -3695193.97349  -2872180.44547                  23160937.2114
        42.7504         28.5004
  21376749.0754    -382846.97749   -299892.09447                  21376746.6594
        51.0004         38.0004
  22745972.7554    5829538.37549   4519559.47747                  22745971.2464
        43.2504         27.0004
  23256894.1874   -4282012.35949  -3329106.56247                  23256892.4544
        44.0004         28.5004
  20709496.3414    -533765.65649   -416664.96948                  20709494.3914
        51.5004         41.7504
 04  7  7 20 28 30.0000000  0  5G 1G11G14G20G25
  23155713.7574   -3722643.62949  -2893569.75847                  23155713.9034
        42.5004         26.5004
  21377519.1094    -378801.85549   -296740.05947                  21377516.3204
        50.5004         38.0004
  22754661.7614    5875202.87549   4555142.17646                  22754660.6114
        42.2504         25.0004
  23250222.6044   -4317071.29749  -3356425.18447                  23250221.3764
        44.2504         30.2504
  20710033.0144    -530945.92249   -414467.77348                  20710031.2784
        50.5004         41.7504
 04  7  7 20 28 45.0000000  0  5G 1G11G14G20G25
  23150496.7904   -3750058.10949  -2914931.67647                  23150497.1924
        44.0004         27.7504
  21378311.5974    -374636.29349   -293494.16847                  21378308.8164
        51.0004         38.7504
  22763351.5274    5920866.24649   4590723.98447                  22763350.1404
        41.5004         26.0004
  23243549.8694   -4352135.98049  -3383748.28547                  23243548.7404
        45.5004         29.5004
  20710592.2514    -528007.37949   -412177.99248                  20710590.2314
        50.5004         42.0004
 04  7  7 20 29  0.0000000  0  5G 1G11G14G20G25
  23145286.7684   -3777437.28549  -2936266.08247                  23145286.7204
        43.2504         28.2504
  21379127.3954    -370349.88749   -290154.11747                  21379124.5704
        51.7504         38.7504
  22772040.8074    5966528.63749   4626305.06646                  22772039.2664
        42.7504         24.5004
  23236876.3644   -4387205.94949  -3411075.51247                  23236874.7334
        45.0004         29.5004
  20711174.0984    -524949.84449   -409795.50848                  20711171.9944
        52.2504         42.2504
 04  7  7 20 29 15.0000000  0  5G 1G11G14G20G25
  23140083.7654   -3804781.05949  -2957572.90647                  23140083.9404
        42.0004         28.2504
  21379965.9744    -365942.50449   -286719.79347                  21379963.5804
        52.0004         39.0004
  22780729.6934    6012189.85949   4661885.20346                  22780727.9414
        44.0004         24.7504
  23230201.9614   -4422280.99649  -3438406.70347                  23230200.5334
        44.2504         28.5004
  20711778.7404    -521773.28149   -407320.25448                  20711776.6384
        51.5004         41.7504
 04  7  7 20 29 30.0000000  0  5G 1G11G14G20G25
  23134887.3704   -3832087.62149  -2978850.72347                  23134887.2024
        43.0004         28.7504
  21380827.9364    -361412.27049   -283189.75447                  21380825.5754
        52.0004         39.0004
  22789419.1384    6057851.69949   4697465.83647                  22789417.9524
        43.7504         25.7504
  23223526.4394   -4457359.29349  -3465740.40647                  23223524.9404
        45.0004         28.5004
  20712405.9534    -518475.89849   -404750.86748                  20712404.1444
        51.5004         41.7504
 04  7  7 20 29 45.0000000  0  5G 1G11G14G20G25
  23129698.6174   -3859355.52749  -3000098.41047                  23129699.0234
        41.7504         29.5004
  21381713.7904    -356757.73449   -279562.84847                  21381711.3454
        52.0004         38.2504
  22798109.2574    6103515.48049   4733048.00046                  22798106.9934
        44.0004         23.0004
  23216851.2214   -4492439.10949  -3493075.31247                  23216849.9054
        44.5004         29.2504
  20713057.0054    -515056.28149   -402086.22748                  20713054.9604
        51.2504         42.0004
 04  7  7 20 30  0.0000000  0  5G 1G11G14G20G25
  23124516.7204   -3886584.33649  -3021315.64847                  23124517.6304
        44.0004         29.5004
  21382623.4024    -351978.53949   -275838.80947                  21382620.7304
        51.5004         38.5004
  22806798.9724    6149181.45749   4768631.85947                  22806797.3124
        43.2504         25.7504
  23210175.6764   -4527519.96949  -3520411.02747                  23210174.1294
        45.5004         29.5004
  20713730.8774    -511514.00449   -399326.01248                  20713729.0684
        51.5004         42.2504
 04  7  7 20 30 15.0000000  0  5G 1G11G14G20G25
  23119343.3394   -3913773.87549  -3042502.28947                  23119343.2804
        45.2504         29.7504
  21383556.3714    -347074.50449   -272017.48047                  21383553.7964
        51.2504         38.7504
  22815489.4904    6194849.64149   4804217.43046                  22815487.3474
        43.5004         23.0004
  23203499.3364   -4562601.57849  -3547747.31647                  23203498.2594
        45.0004         29.5004
  20714428.3704    -507848.79349   -396470.00448                  20714426.2404
        52.5004         42.0004
 04  7  7 20 30 30.0000000  0  5G 1G11G14G20G25
  23114176.5494   -3940923.85949  -3063658.08247                  23114176.8794
        44.7504         30.0004
  21384513.1834    -342045.38749   -268098.69147                  21384510.7734
        51.2504         39.2504
  22824179.8514    6240520.09849   4839804.83246                  22824177.7164
        42.7504         22.5004
  23196823.6744   -4597683.38749  -3575083.76647                  23196822.4014
        44.0004         29.0004
  20715149.5524    -504060.55949   -393518.13748                  20715147.0984
        52.0004         42.2504
 04  7  7 20 30 45.0000000  0  5G 1G11G14G20G25
  23109017.7834   -3968033.44549  -3084782.42647                  23109017.9764
        44.5004         30.5004
  21385494.2274    -336890.44949   -264081.86747                  21385491.9034
        50.0004         38.5004
  22832871.3114    6286193.50449   4875394.44546                  22832868.6984
        43.5004         23.0004
  23190147.8294   -4632764.50449  -3602419.68447                  23190146.6114
        45.0004         28.7504
  20715893.9334    -500148.55949   -390469.82848                  20715891.4224
        51.5004         42.2504
 04  7  7 20 31  0.0000000  0  5G 1G11G14G20G25
  23103866.1214   -3995102.55549  -3105875.21947                  23103867.0024
        44.7504         30.2504
  21386499.3424    -331609.24249   -259966.63747                  21386496.5164
        50.5004         38.0004
  22841563.5804    6331869.88749   4910986.44146                  22841560.6534
        42.0004         22.7504
  23183472.2024   -4667844.55949  -3629754.75447                  23183470.4554
        45.2504         29.5004
  20716661.7764    -496112.58649   -387324.91048                  20716659.6944
        51.2504         41.7504
 04  7  7 20 31 15.0000000  0  5G 1G11G14G20G25
  23098723.2044   -4022131.09449  -3126936.39547                  23098723.6714
        46.0004         30.5004
  21387528.3184    -326201.87949   -255753.10947                  21387525.7964
        51.2504         38.5004
  22850256.2364    6377549.26649   4946580.72346                  22850253.2644
        42.5004         22.5004
  23176797.4704   -4702923.39549  -3657088.88347                  23176795.4154
        45.0004         29.5004
  20717453.1874    -491952.68749   -384083.43048                  20717451.2504
        52.5004         41.7504
 04  7  7 20 31 30.0000000  0  5G 1G11G14G20G25
  23093587.6804   -4049119.12549  -3147966.01247                  23093587.9784
        45.2504         30.2504
  21388581.3954    -320668.47749   -251441.37947                  21388578.7364
        51.2504         38.5004
  22858949.5304    6423231.25449   4982177.07046                  22858946.6374
        42.7504         22.2504
  23170122.2004   -4738000.93049  -3684422.00447                  23170120.0494
        45.5004         29.2504
  20718268.6144    -487668.79349   -380745.33248                  20718266.3264
        52.2504         42.0004
 04  7  7 20 31 45.0000000  0  5G 1G11G14G20G25
  23088459.9474   -4076067.15649  -3168964.46147                  23088459.7504
        46.5004         30.5004
  21389657.9664    -315009.50849   -247031.78947                  21389655.3664
        51.5004         38.5004
  22867642.2854    6468915.41049   5017775.11746                  22867640.2094
        41.7504         22.5004
  23163447.2714   -4773077.50849  -3711754.37947                  23163445.8604
        45.2504         29.0004
  20719107.5214    -483261.61749   -377311.17648                  20719105.0604
        52.0004         42.0004
 04  7  7 20 32  0.0000000  0  5G 1G11G14G20G25
  23083339.2774   -4102974.07849  -3189930.86747                  23083339.6244
        46.7504         30.5004
  21390758.9964    -309223.82449   -242523.46547                  21390756.3604
        49.0004         38.7504
  22876336.6764    6514602.59849   5053375.49246                  22876334.6264
        42.5004         22.5004
  23156773.2084   -4808151.88749  -3739085.02747                  23156771.0074
        46.0004         29.2504
  20719969.4584    -478729.98449   -373780.03548                  20719967.2994
        51.5004         42.0004
 04  7  7 20 32 15.0000000  0  5G 1G11G14G20G25
  23078226.9374   -4129839.58649  -3210865.01647                  23078227.3574
        46.5004         29.7504
  21391884.1984    -303311.34449   -237916.34847                  21391881.8014
        51.0004         38.2504
  22885031.0484    6560292.95349   5088978.34046                  22885029.2164
        42.2504         22.2504
  23150098.5154   -4843223.57049  -3766413.58647                  23150097.5084
        46.0004         28.7504
  20720855.5154    -474073.71549   -370151.76648                  20720853.8594
        51.0004         42.0004
 04  7  7 20 32 30.0000000  0  5G 1G11G14G20G25
  23073122.2034   -4156664.55149  -3231767.55947                  23073122.5354
        45.7504         31.5004
  21393033.3884    -297272.68449   -233210.90647                  21393030.9094
        51.2504         38.0004
  22893726.3614    6605985.44149   5124582.86746                  22893724.0694
        41.7504         22.7504
  23143425.7144   -4878293.27349  -3793740.60947                  23143423.9174
        47.0004         29.7504
  20721765.3964    -469293.61349   -366427.01248                  20721763.2724
        52.7504         42.0004
 04  7  7 20 32 45.0000000  0  5G 1G11G14G20G25
  23068025.3544   -4183449.89549  -3252639.24647                  23068025.5864
        46.7504         31.2504
  21394206.0564    -291108.83649   -228407.90247                  21394204.0174
        51.0004         38.2504
  22902420.7444    6651678.99649   5160188.19146                  22902420.1894
        41.0004         22.2504
  23136752.2494   -4913361.84049  -3821066.73847                  23136750.1584
        46.0004         30.0004
  20722698.2604    -464390.75049   -362606.60248                  20722696.1044
        51.7504         42.0004
 04  7  7 20 33  0.0000000  0  5G 1G11G14G20G25
  23062935.9514   -4210195.37949  -3273479.86347                  23062935.7174
        47.0004         30.2504
  21395402.7634    -284819.55149   -223507.16447                  21395400.7074
        49.5004         38.2504
  22911116.5994    6697373.71949   5195794.44146                  22911114.9534
        41.0004         22.5004
  23130079.3894   -4948428.84049  -3848391.63747                  23130077.0164
        46.7504         29.5004
  20723654.0494    -459364.85249   -358690.32448                  20723652.1454
        51.0004         42.0004
 04  7  7 20 33 15.0000000  0  5G 1G11G14G20G25
  23057853.6324   -4236901.31649  -3294289.65647                  23057853.6404
        47.0004         30.7504
  21396623.4644    -278405.29749   -218509.05547                  21396621.1854
        51.2504         37.7504
  22919811.2734    6743069.19549   5231401.34046                  22919810.4314
        41.0004         19.5004
  23123406.1934   -4983494.38749  -3875715.42247                  23123404.4484
        46.5004         29.2504
  20724634.1814    -454216.21949   -354678.40248                  20724632.5244
        51.7504         41.5004
 04  7  7 20 33 30.0000000  0  5G 1G11G14G20G25
  23052779.4764   -4263566.43749  -3315067.65647                  23052779.3004
        47.2504         31.0004
  21397868.2294    -271864.82049   -213412.57447                  21397866.1574
        51.0004         38.2504
  22928507.9664    6788766.53149   5267009.59446                  22928506.0184
        40.7504         21.0004
  23116734.5444   -5018557.10249  -3903037.00847                  23116732.0144
        47.0004         28.2504
  20725637.4504    -448943.69949   -350569.95348                  20725635.5684
        51.7504         42.0004
 04  7  7 20 33 45.0000000  0  5G 1G11G14G20G25
  23047713.1044   -4290191.24249  -3335814.23847                  23047713.0004
        46.5004         30.0004
  21399136.6484    -265198.55149   -208218.08647                  21399134.2304
        51.0004         38.2504
  22937204.7564    6834465.18449   5302618.90246                  22937202.2874
        41.7504         20.5004
  23110062.6834   -5053617.27049  -3930356.60547                  23110060.5204
        47.0004         28.5004
  20726664.1784    -443547.68449   -346365.26248                  20726662.6804
        52.0004         41.7504
 04  7  7 20 34  0.0000000  0  5G 1G11G14G20G25
  23042654.1724   -4316776.09849  -3356529.68747                  23042653.6654
        46.5004         29.2504
  21400429.2104    -258406.84849   -202925.85547                  21400426.6794
        50.7504         38.0004
  22945900.4594    6880164.55149   5338228.83646                  22945898.4834
        40.2504         20.0004
  23103391.2484   -5088675.10249  -3957674.35947                  23103389.2144
        47.2504         28.7504
  20727714.3104    -438028.68449   -342064.74248                  20727712.8334
        51.5004         42.0004
 04  7  7 20 34 15.0000000  0  5G 1G11G14G20G25
  23037602.8564   -4343320.05949  -3377213.26647                  23037602.8634
        46.7504         29.0004
  21401745.3054    -251488.80149   -197535.17647                  21401743.2584
        50.0004         38.5004
  22954597.4194    6925865.41049   5373839.89146                  22954594.6844
        41.2504         21.5004
  23096720.3904   -5123729.55549  -3984989.49647                  23096718.1724
        46.7504         27.5004
  20728788.4814    -432385.80149   -337667.68748                  20728786.7314
        50.7504         42.7504
 04  7  7 20 34 30.0000000  0  5G 1G11G14G20G25
  23032559.4644   -4369820.91449  -3397863.27047                  23032559.5104
        46.5004         29.5004
  21403086.4844    -244442.42249   -192044.49247                  21403084.2284
        50.2504         38.0004
  22963294.4674    6971569.80949   5409453.66846                  22963292.2964
        41.7504         21.7504
  23090051.3104   -5158778.35949  -4012300.23847                  23090049.1174
        47.0004         29.0004
  20729886.3364    -426617.11349   -333172.61348                  20729884.4094
        51.7504         42.5004
 04  7  7 20 34 45.0000000  0  5G 1G11G14G20G25
  23027525.0394   -4396278.88349  -3418479.85247                  23027524.4584
        45.5004         30.2504
  21404451.8844    -237267.76249   -186453.85547                  21404449.7374
        51.0004         38.2504
  22971991.7434    7017277.50449   5445070.01646                  22971990.2914
        39.5004         20.5004
  23083382.3254   -5193821.44549  -4039606.52047                  23083380.4884
        47.0004         29.0004
  20731008.0534    -420722.68049   -328579.55548                  20731005.8714
        52.0004         41.7504
 04  7  7 20 35  0.0000000  0  5G 1G11G14G20G25
  23022498.9704   -4422692.52749  -3439061.88347                  23022498.0124
        45.7504         29.5004
  21405841.6634    -229963.28549   -180762.05147                  21405839.4104
        51.0004         37.7504
  22980690.6754    7062989.84449   5480689.97746                  22980689.1464
        38.7504         21.0004
  23076714.9554   -5228857.21149  -4066907.09447                  23076713.3004
        47.0004         30.0004
  20732153.8594    -414701.19549   -323887.48448                  20732151.5704
        52.0004         41.7504
 04  7  7 20 35 15.0000000  0  5G 1G11G14G20G25
  23017481.0694   -4449061.21549  -3459608.90247                  23017480.2684
        46.0004         29.2504
  21407256.4974    -222528.45749   -174968.68747                  21407254.0844
        51.0004         38.0004
  22989390.5324    7108707.23049   5516313.88346                  22989388.9734
        40.0004         21.2504
  23070049.6794   -5263884.82049  -4094201.31647                  23070047.4264
        46.5004         29.2504
  20733324.3474    -408551.97349   -319095.88348                  20733321.7534
        51.5004         41.5004
 04  7  7 20 35 30.0000000  0  5G 1G11G14G20G25
  23012472.1234   -4475384.78949  -3480120.77047                  23012471.1514
        46.5004         29.5004
  21408696.0754    -214963.23049   -169073.71147                  21408693.8984
        50.5004         38.2504
  22998091.1024    7154429.71549   5551941.77346                  22998090.0454
        38.5004         21.0004
  23063385.6224   -5298904.00849  -4121488.96547                  23063383.4724
        47.0004         29.7504
  20734518.6994    -402275.00849   -314204.73448                  20734516.2434
        52.2504         41.5004
 04  7  7 20 35 45.0000000  0  5G 1G11G14G20G25
  23007471.1984   -4501662.58249  -3500596.94547                  23007470.8524
        46.5004         30.2504
  21410160.4374    -207266.91449   -163076.59047                  21410158.3634
        49.7504         38.5004
  23006793.4534    7200157.92249   5587574.07846                  23006791.5094
        39.7504         20.5004
  23056723.3664   -5333913.85249  -4148769.34847                  23056721.5624
        46.7504         29.2504
  20735737.8134    -395869.54749   -309213.47348                  20735735.2404
        51.0004         41.2504
 04  7  7 20 36  0.0000000  0  5G 1G11G14G20G25
  23002479.3674   -4527895.14849  -3521037.88747                  23002479.0974
        46.5004         29.5004
  21411650.4584    -199440.13749   -156977.80547                  21411647.5294
        51.2504         38.0004
  23015496.4084    7245890.94549   5623210.17646                  23015494.4934
        41.0004         20.0004
  23050062.8684   -5368914.89149  -4176042.86747                  23050060.7754
        47.0004         30.0004
  20736980.5914    -389336.36349   -304122.67248                  20736978.2444
        52.0004         41.5004
 04  7  7 20 36 15.0000000  0  5G 1G11G14G20G25
  22997496.0924   -4554082.33649  -3541443.45747                  22997495.6034
        46.5004         30.2504
  21413164.4824    -191482.65249   -150777.18447                  21413161.8204
        51.5004         38.0004
  23024199.8174    7291628.98449   5658850.22746                  23024197.4414
        41.7504         20.5004
  23043404.0384   -5403906.69549  -4203309.18747                  23043402.4944
        46.5004         30.2504
  20738247.9984    -382675.14849   -298932.11348                  20738245.8294
        52.0004         41.5004
 04  7  7 20 36 30.0000000  0  5G 1G11G14G20G25
  22992521.4814   -4580223.59849  -3561813.24247                  22992521.3004
        47.0004         29.2504
  21414703.6834    -183393.95749   -144474.30547                  21414700.9404
        50.2504         38.0004
  23032904.4554    7337372.43449   5694494.43046                  23032902.4284
        40.0004         19.5004
  23036747.1924   -5438888.60249  -4230567.78947                  23036745.5364
        46.5004         29.7504
  20739540.4054    -375885.58249   -293641.53948                  20739538.1864
        51.2504         42.0004
 04  7  7 20 36 45.0000000  0  5G 1G11G14G20G25
  22987555.2974   -4606318.86349  -3582147.19947                  22987555.7944
        46.5004         30.0004
  21416267.6334    -175174.03149   -138069.17647                  21416265.3574
        49.5004         38.0004
  23041610.0764    7383121.21949   5730142.81346                  23041608.2944
        39.2504         19.5004
  23030092.2634   -5473860.32849  -4257818.45747                  23030090.4504
        46.5004         28.7504
  20740856.5144    -368967.61349   -288250.91048                  20740854.1364
        51.0004         42.0004
 04  7  7 20 37  0.0000000  0  5G 1G11G14G20G25
  22982598.5854   -4632369.00049  -3602445.98047                  22982598.3364
        46.2504         29.2504
  21417856.7954    -166823.83649   -131562.53547                  21417854.2424
        51.0004         37.5004
  23050316.7714    7428874.35949   5765794.59046                  23050314.7214
        40.7504         19.0004
  23023439.2854   -5508822.55949  -4285061.73447                  23023437.6054
        47.0004         30.0004
  20742197.4074    -361922.14849   -282760.93748                  20742195.0374
        51.7504         41.2504
 04  7  7 20 37 15.0000000  0  5G 1G11G14G20G25
  22977649.9724   -4658373.18449  -3622708.96147                  22977649.7884
        45.5004         29.5004
  21419470.5904    -158342.56649   -124953.75847                  21419468.3354
        50.7504         37.5004
  23059023.9484    7474632.57449   5801450.30946                  23059021.9014
        42.0004         19.0004
  23016788.0644   -5543774.34049  -4312296.85947                  23016785.9914
        46.5004         28.7504
  20743562.7124    -354748.47349   -277171.05948                  20743560.2214
        52.0004         41.7504
 04  7  7 20 37 30.0000000  0  5G 1G11G14G20G25
  22972710.1224   -4684331.37149  -3642936.09447                  22972710.0204
        45.7504         30.0004
  21421109.6804    -149730.20349   -118242.83647                  21421107.0824
        51.2504         37.5004
  23067733.3674    7520395.83649   5837109.97746                  23067730.7954
        40.7504         18.5004
  23010138.8984   -5578715.44549  -4339523.65647                  23010136.4754
        46.2504         28.7504
  20744951.8924    -347446.54749   -271481.24648                  20744949.5544
        52.0004         42.0004
 04  7  7 20 37 45.0000000  0  5G 1G11G14G20G25
  22967779.6534   -4710242.45749  -3663126.53147                  22967779.8414
        47.0004         31.2504
  21422773.6344    -140985.60949   -111428.87547                  21422771.0424
        51.0004         36.7504
  23076441.9654    7566164.98849   5872774.26246                  23076440.1754
        40.5004         17.7504
  23003491.9984   -5613644.54349  -4366741.12547                  23003490.1214
        45.2504         29.0004
  20746365.9524    -340015.40249   -265690.73848                  20746363.8534
        52.2504         42.2504
 04  7  7 20 38  0.0000000  0  5G 1G11G14G20G25
  22962856.9304   -4736106.36349  -3683280.19947                  22962858.0054
        45.5004         30.0004
  21424462.9554    -132108.79349   -104511.88347                  21424460.4144
        50.7504         37.5004
  23085152.9194    7611940.05949   5908443.10946                  23085150.7954
        40.2504         17.7504
  22996847.4604   -5648561.45349  -4393949.08247                  22996845.5864
        45.5004         28.5004
  20747804.7204    -332454.82849   -259799.38348                  20747802.6674
        52.0004         41.7504
 04  7  7 20 38 15.0000000  0  5G 1G11G14G20G25
  22957945.2764   -4761920.78949  -3703395.30947                  22957945.4244
        46.0004         30.2504
  21426177.6604    -123097.49249    -97490.09447                  21426175.1834
        50.7504         37.5004
  23093865.4764    7657723.19549   5944118.29746                  23093862.9054
        40.2504         17.7504
  22990205.6534   -5683463.69149  -4421145.59847                  22990203.5244
        44.7504         28.5004
  20749268.5474    -324762.55149   -253805.39548                  20749266.3954
        52.0004         42.2504
 04  7  7 20 38 30.0000000  0  5G 1G11G14G20G25
  22953042.7234   -4787685.78949  -3723471.91447                  22953042.0564
        46.5004         31.0004
  21427917.9624    -113951.84849    -90363.61747                  21427915.4034
        50.5004         37.7504
  23102579.2634    7703514.26649   5979799.60946                  23102576.7944
        40.0004         18.5004
  22983566.7284   -5718351.08649  -4448330.54747                  22983564.8674
        43.2504         29.0004
  20750757.4174    -316938.79749   -247708.96548                  20750754.8534
        53.0004         42.2504
 04  7  7 20 38 45.0000000  0  5G 1G11G14G20G25
  22948148.1904   -4813402.19949  -3743510.65247                  22948148.9734
        45.7504         31.2504
  21429683.6594    -104672.62949    -83133.06647                  21429681.2024
        50.5004         38.0004
  23111294.0394    7749312.27349   6015486.32846                  23111291.9254
        39.5004         19.5004
  22976930.7114   -5753224.34049  -4475504.48847                  22976928.8984
        43.7504         29.2504
  20752271.0874    -308984.48849   -241510.79348                  20752268.8334
        52.7504         42.0004
 04  7  7 20 39  0.0000000  0  5G 1G11G14G20G25
  22943264.4714   -4839069.12549  -3763510.82047                  22943264.4444
        46.5004         30.5004
  21431475.1804     -95258.94549    -75797.73447                  21431472.7374
        50.2504         38.2504
  23120010.7434    7795118.07049   6051179.14146                  23120008.8424
        40.2504         18.2504
  22970297.5024   -5788082.38749  -4502666.59047                  22970295.1654
        43.7504         29.7504
  20753809.8644    -300898.77049   -235210.23848                  20753807.3084
        52.5004         42.0004
 04  7  7 20 39 15.0000000  0  5G 1G11G14G20G25
  22938389.8524   -4864685.53949  -3783471.63747                  22938389.8864
        46.2504         30.5004
  21433292.3414     -85709.92249    -68356.94947                  21433289.7674
        50.7504         38.5004
  23128728.9244    7840932.56349   6086878.75046                  23128727.0854
        39.7504         18.5004
  22963667.6454   -5822924.05549  -4529815.91047                  22963665.4534
        44.5004         29.7504
  20755373.4824    -292680.69549   -228806.54348                  20755371.4114
        52.0004         41.7504
 04  7  7 20 39 30.0000000  0  5G 1G11G14G20G25
  22933524.7274   -4890249.16449  -3803391.30947                  22933525.5344
        46.7504         31.0004
  21435135.7554     -76023.21949    -60808.87147                  21435133.3894
        50.5004         38.0004
  23137449.1784    7886757.95349   6122586.82046                  23137447.7724
        39.5004         18.2504
  22957040.7234   -5857746.73449  -4556950.43447                  22957038.7064
        44.7504         30.2504
  20756963.0164    -284327.96949   -222297.92648                  20756960.9934
        52.2504         41.7504
 04  7  7 20 39 45.0000000  0  5G 1G11G14G20G25
  22928670.7004   -4915760.36749  -3823270.14547                  22928670.8534
        47.5004         31.0004
  21437005.0374     -66199.19949    -53153.79747                  21437002.6974
        51.5004         37.5004
  23146171.0134    7932593.63349   6158302.89146                  23146169.9684
        38.2504         16.2504
  22950417.7414   -5892550.67649  -4584070.37547                  22950415.9724
        44.5004         30.5004
  20758578.2254    -275841.19549   -215684.85248                  20758576.1974
        52.2504         42.0004
 04  7  7 20 40  0.0000000  0  5G 1G11G14G20G25
  22923825.7894   -4941221.39149  -3843109.87147                  22923825.8434
        47.2504         31.5004
  21438900.2704     -56240.21549    -45393.55947                  21438897.6264
        50.5004         38.5004
  23154894.9524    7978437.30149   6194025.23846                  23154893.4224
        37.5004         15.5004
  22943797.9704   -5927337.90249  -4611177.28547                  22943796.4314
        45.7504         30.2504
  20760217.9784    -267222.46949   -208968.95748                  20760216.2184
        51.5004         42.0004
 04  7  7 20 40 15.0000000  0  5G 1G11G14G20G25
  22918990.2994   -4966632.75049  -3862910.91447                  22918989.6224
        48.0004         31.7504
  21440821.1514     -46146.81249    -37528.57047                  21440819.0454
        51.5004         37.7504
  23163621.0814    8024288.34449   6229753.30946                  23163618.6844
        36.5004         14.7504
  22937181.5584   -5962108.79749  -4638271.45747                  22937179.5584
        45.7504         30.0004
  20761883.1004    -258472.35549   -202150.68748                  20761881.3174
        52.2504         42.5004
 04  7  7 20 40 30.0000000  0  5G 1G11G14G20G25
  22914164.2094   -4991993.28549  -3882672.33647                  22914163.8034
        47.5004         31.0004
  21442767.3064     -35917.90249    -29558.00447                  21442764.9194
        51.2504         38.0004
  23172348.1514    8070147.78548
        34.7504
  22930567.9914   -5996862.09449  -4665351.92647                  22930566.4494
        45.0004         30.7504
  20763573.5424    -249590.04349   -195229.40648                  20763571.1834
        52.0004         41.7504
 04  7  7 20 40 45.0000000  0  5G 1G11G14G20G25
  22909347.5694   -5017303.00049  -3902394.16047                  22909347.7874
        47.5004         30.5004
  21444739.8874     -25553.53949    -21481.88347                  21444737.3164
        50.5004         38.0004
  23181076.0254    8116015.50848
        34.0004
  22923958.2004   -6031597.62549  -4692418.54747                  22923956.4434
        44.2504         30.0004
  20765288.6824    -240575.48849   -188205.08248                  20765287.0674
        51.5004         42.0004
 04  7  7 20 41  0.0000000  0  5G 1G11G14G20G25
  22904541.5664   -5042560.42649  -3922075.25447                  22904541.0494
        47.5004         31.2504
  21446738.2074     -15052.43449    -13299.20347                  21446735.7164
        50.0004         38.2504
  23189805.1274    8161892.85948
        32.2504
  22917351.8834   -6066313.59049  -4719469.93047                  22917350.4034
        44.5004         29.7504
  20767029.6144    -231427.28549   -181076.60548                  20767027.7284
        51.5004         41.7504
 04  7  7 20 41 15.0000000  0  5G 1G11G14G20G25
  22899744.8244   -5067766.05949  -3941715.96547                  22899744.2204
        47.5004         31.5004
  21448762.2964      -4415.08249     -5010.36747                  21448759.9374
        49.7504         38.2504
  23198538.5704    8207779.36348
        31.5004
  22910749.6444   -6101010.29349  -4746506.30147                  22910748.0684
        43.5004         30.7504
  20768795.8494    -222145.98449   -173844.42648                  20768793.8054
        50.2504         42.0004
 04  7  7 20 41 30.0000000  0  5G 1G11G14G20G25
  22894957.7854   -5092921.58249  -3961317.64147                  22894957.3184
        47.5004         31.5004
  21450812.2624       6356.97349      3383.43047                  21450809.9804
        50.0004         38.5004
  23207271.7554
        30.5004
  22904150.3134   -6135689.43049  -4773528.98847                  22904148.4794
        44.7504         31.5004
  20770587.0714    -212733.34449   -166509.90648                  20770585.0794
        50.5004         42.5004
 04  7  7 20 41 45.0000000  0  5G 1G11G14G20G25
  22890180.9004   -5118027.00449  -3980880.27047                  22890179.8544
        47.5004         31.0004
  21452887.6544      17263.61749     11882.11347                  21452885.2844
        50.2504         38.5004
  23216005.2764    8299573.90248
        28.0004
  22897554.3394   -6170350.71549  -4800537.75847                  22897552.7674
        44.0004         31.0004
  20772403.3714    -203189.42649   -159073.08248                  20772401.1864
        51.5004         41.7504
 04  7  7 20 42  0.0000000  0  5G 1G11G14G20G25
  22885412.5534   -5143083.07449  -4000404.45347                  22885411.7594
        48.7504         31.0004
  21454988.6174      28303.98049     20484.98847                  21454986.3394
        51.0004         38.0004
  23224741.7854
        27.2504
  22890961.9834   -6204994.66049  -4827533.02347                  22890960.1944
        43.7504         31.5004
  20774244.2944    -193515.05549   -151534.60948                  20774242.2864
        52.0004         42.0004
 04  7  7 20 42 15.0000000  0  5G 1G11G14G20G25
  22880653.9634   -5168091.02349  -4019891.14147                  22880652.5714
        48.0004         30.7504
  21457114.9024      39476.96549     29191.20747                  21457112.5004
        50.5004         38.7504
  23233478.6054
        26.7504
  22884372.8264   -6239622.26249  -4854515.55547                  22884371.1124
        43.5004         31.2504
  20776109.8854    -183711.55949   -143895.52348                  20776107.8824
        50.7504         42.2504
 04  7  7 20 42 30.0000000  0  4G 1G11G20G25
  22875904.0284   -5193049.94949  -4039339.62947                  22875903.4864
        48.2504         31.7504
  21459266.2974      50783.24249     38001.28947                  21459263.8304
        50.5004         38.2504
  22877786.3434   -6274232.61349  -4881484.64847                  22877784.7364
        43.2504         31.2504
  20777999.8994    -173778.20749   -136155.24248                  20777997.5734
        49.7504         42.0004
 04  7  7 20 42 45.0000000  0  4G 1G11G20G25
  22871163.9624   -5217958.66049  -4058748.98847                  22871163.6374
        48.0004         31.5004
  21461443.2184      62223.94949     46916.12547                  21461441.4954
        50.2504         37.7504
  22871203.8144   -6308824.16849  -4908439.08647                  22871202.0604
        45.0004         31.2504
  20779914.9684    -163713.73049   -128312.79348                  20779913.0604
        51.5004         42.0004
 04  7  7 20 43  0.0000000  0  4G 1G11G20G25
  22866433.3474   -5242817.49649  -4078119.47747                  22866433.0884
        48.0004         32.0004
  21463645.9274      73798.69549     55935.39847                  21463643.6594
        50.7504         38.0004
  22864624.5534   -6343397.16049  -4935379.06247                  22864623.1904
        45.0004         30.7504
  20781855.3564    -153518.63349   -120368.56248                  20781853.0604
        51.5004         42.2504
 04  7  7 20 43 15.0000000  0  4G 1G11G20G25
  22861712.6894   -5267626.62149  -4097451.23447                  22861711.8914
        47.5004         31.2504
  21465874.2874      85507.15649     65058.86747                  21465871.4514
        50.5004         38.2504
  22858049.3354   -6377951.43749  -4962304.46147                  22858047.5554
        44.0004         30.7504
  20783820.2084    -143193.09449   -112322.69148                  20783817.7204
        51.2504         42.0004
 04  7  7 20 43 30.0000000  0  4G 1G11G20G25
  22857001.4454   -5292382.71549  -4116741.66847                  22857001.2834
        47.5004         31.5004
  21468128.2364      97352.64549     74289.11347                  21468125.3934
        51.5004         38.0004
  22851478.0514   -6412483.53949  -4989212.57447                  22851476.1654
        44.2504         31.0004
  20785810.2474    -132733.95349   -104172.71148                  20785808.4314
        51.5004         42.0004
 04  7  7 20 43 45.0000000  0  4G 1G11G20G25
  22852300.5564   -5317084.77749  -4135989.99647                  22852300.7664
        47.5004         31.2504
  21470408.5564     109336.27749     83627.01247                  21470405.7834
        51.5004         38.0004
  22844910.8774   -6446992.39149  -5016102.57047                  22844909.5484
        44.5004         31.0004
  20787826.1904    -122140.24249    -95917.87148                  20787823.9574
        52.5004         42.5004
 04  7  7 20 44  0.0000000  0  4G 1G11G20G25
  22847610.6564   -5341733.03549  -4155196.40247                  22847610.2924
        47.7504         31.2504
  21472715.1034     121457.87549     93072.39847                  21472712.6874
        50.0004         38.2504
  22838348.4584   -6481477.91849  -5042974.38747                  22838347.5264
        44.7504         31.5004
  20789867.8874    -111412.36749    -87558.48848                  20789865.4654
        51.0004         42.2504
 04  7  7 20 44 15.0000000  0  4G 1G11G20G25
  22842930.0294   -5366326.50849  -4174360.12147                  22842930.2034
        47.0004         32.0004
  21475048.1324     133718.19949    102625.89547                  21475045.9064
        50.7504         38.2504
  22831791.2794   -6515938.88349  -5069827.07447                  22831789.3684
        44.0004         31.2504
  20791934.9794    -100549.30149    -79093.75848                  20791932.6054
        50.7504         42.5004
 04  7  7 20 44 30.0000000  0  4G 1G11G20G25
  22838260.5744   -5390865.81649  -4193481.64147                  22838260.6684
        47.5004         31.5004
  21477407.6774     146116.49649    112286.90247                  21477405.2464
        50.5004         38.2504
  22825237.4714   -6550375.76249  -5096660.99247                  22825236.2124
        45.5004         31.0004
  20794027.7204     -89551.72349    -70524.22348                  20794025.6604
        51.0004         41.7504
 04  7  7 20 44 45.0000000  0  4G 1G11G20G25
  22833601.8464   -5415349.87949  -4212560.09447                  22833601.2034
        47.5004         31.5004
  21479793.5614     158653.88749    122056.29347                  21479791.4084
        51.5004         38.2504
  22818689.5284   -6584787.20749  -5123475.08247                  22818687.7354
        43.5004         30.5004
  20796146.4414     -78418.71549    -61849.14848                  20796144.2614
        51.2504         42.2504
 04  7  7 20 45  0.0000000  0  4G 1G11G20G25
  22828952.6854   -5439778.44149  -4231595.30547                  22828952.6214
        47.0004         32.0004
  21482205.7554     171330.55949    131934.21147                  21482203.0354
        51.2504         38.5004
  22812145.8614   -6619172.79749  -5150269.03547                  22812144.4754
        45.0004         31.5004
  20798290.6364     -67150.16049    -53068.45748                  20798288.6594
        51.5004         41.7504
 04  7  7 20 45 15.0000000  0  4G 1G11G20G25
  22824314.4534   -5464152.89549  -4250588.36747                  22824314.1954
        47.2504         32.0004
  21484644.2224     184144.84449    141919.36347                  21484641.8384
        51.7504         38.0004
  22805607.4614   -6653533.80149  -5177043.81647                  22805605.4054
        44.5004         30.2504
  20800460.4004     -55747.46549    -44183.24648                  20800458.0944
        51.7504         42.2504
 04  7  7 20 45 30.0000000  0  4G 1G11G20G25
  22819686.4814   -5488474.15249  -4269539.96547                  22819686.1164
        47.2504         31.2504
  21487108.7454     197095.98049    152011.15247                  21487106.4584
        51.0004         38.0004
  22799072.8644   -6687870.89149  -5203799.97747                  22799071.7734
        44.5004         31.5004
  20802655.4864     -44211.51649    -35194.19148                  20802653.2884
        50.5004         42.0004
 04  7  7 20 45 45.0000000  0  4G 1G11G20G25
  22815068.4684   -5512742.71549  -4288450.50047                  22815067.9004
        47.5004         32.0004
  21489599.0184     210183.33649    162209.08647                  21489596.5514
        51.5004         37.7504
  22792543.1934   -6722184.44549  -5230537.78147                  22792541.8114
        45.5004         31.2504
  20804875.8364     -32542.98849    -26101.82448                  20804873.9664
        51.5004         41.5004
 04  7  7 20 46  0.0000000  0  4G 1G11G20G25
  22810460.1194   -5536957.14549  -4307318.87547                  22810460.3754
        47.5004         32.0004
  21492115.6684     223408.24249    172514.20347                  21492113.1544
        51.0004         38.0004
  22786018.6724   -6756472.77749  -5257255.94947                  22786016.4664
        46.2504         31.0004
  20807122.1984     -20740.69149    -16905.23448                  20807119.8604
        52.0004         42.0004
 04  7  7 20 46 15.0000000  0  4G 1G11G20G25
  22506069.9394   -5561119.21549  -4326146.42647                  22506069.7344
        47.7504         31.5004
  21194865.6944     236771.34849    182927.00047                  21194863.8334
        51.0004         37.5004
  22479705.5914   -6790738.17249  -5283956.23847                  22479703.4644
        46.5004         31.0004
  20509601.0714      -8804.05949     -7603.96548                  20509598.9154
        52.2504         42.0004
 04  7  7 20 46 30.0000000  0  4G 1G11G20G25
  22501482.6654   -5585225.12549  -4344930.21947                  22501482.9844
        47.7504         32.0004
  21197435.3224     250271.41449    193446.53147                  21197433.0294
        51.0004         38.2504
  22473190.3364   -6824975.14149  -5310634.36347                  22473188.5294
        47.2504         30.5004
  20511897.7864       3265.90249      1801.20748                  20511895.6274
        52.0004         42.2504
 04  7  7 20 46 45.0000000  0  4G 1G11G20G25
  22496905.6264   -5609276.09049  -4363671.21947                  22496905.8974
        47.2504         31.5004
  21200030.6224     263909.64549    204073.71547                  21200028.1664
        51.2504         37.7504
  22466680.3654   -6859185.48049  -5337291.75047                  22466678.2424
        47.0004         30.7504
  20514220.3434      15470.30549     11311.12548                  20514217.8374
        52.0004         42.2504
 04  7  7 20 47  0.0000000  0  4G 1G11G20G25
  22492339.6054   -5633272.38749  -4382369.60947                  22492339.3794
        47.5004         31.7504
  21202651.8724     277685.66449    214808.27347                  21202649.7704
        50.7504         37.7504
  22460175.7764   -6893369.19149  -5363928.39147                  22460173.2444
        47.2504         31.0004
  20516568.3094      27808.72749     20925.48448                  20516566.0594
        51.5004         42.2504
 04  7  7 20 47 15.0000000  0  4G 1G11G20G25
  22487783.2624   -5657216.27049  -4401027.15247                  22487783.3244
        46.7504         32.0004
  21205299.2644     291597.30149    225648.50047                  21205297.2074
        51.2504         38.5004
  22453675.2204   -6927528.29749  -5390545.84847                  22453673.1844
        47.5004         31.5004
  20518941.2084      40278.91449     30642.51248                  20518939.1584
        52.0004         42.2504
 04  7  7 20 47 30.0000000  0  4G 1G11G20G25
  22483236.8104   -5681108.21949  -4419644.23047                  22483237.0534
        47.0004         32.2504
  21207972.2424     305644.00449    236593.97347                  21207970.0994
        51.5004         37.5004
  22447179.6594   -6961663.03949  -5417144.32847                  22447177.1614
        47.5004         31.7504
  20521339.2484      52880.30549     40461.77748                  20521337.0814
        52.7504         42.0004
 04  7  7 20 47 45.0000000  0  4G 1G11G20G25
  22478700.1214   -5704947.17649  -4438220.02747                  22478699.9594
        48.2504         32.0004
  21210671.1454     319826.66049    247645.39147                  21210668.8574
        51.0004         38.2504
  22440689.2424   -6995772.16849  -5443722.84047                  22440686.7294
        47.2504         31.5004
  20523762.2844      65613.70749     50383.90648                  20523760.1764
        52.0004         42.2504
 04  7  7 20 48  0.0000000  0  4G 1G11G20G25
  22474173.4554   -5728734.27749  -4456755.41047                  22474173.4694
        47.2504         32.0004
  21213395.8354     334144.04349    258801.78147                  21213393.4254
        50.2504         38.0004
  22434203.1614   -7029856.69949  -5470282.20747                  22434200.6484
        47.7504         31.5004
  20526210.3284      78477.96149     60407.99648                  20526208.3144
        51.0004         41.5004
 04  7  7 20 48 15.0000000  0  4G 1G11G20G25
  22469656.7034   -5752470.75049  -4475251.34447                  22469656.5854
        47.0004         32.0004
  21216145.6074     348594.82849    270062.12947                  21216143.1494
        50.5004         38.7504
  22427721.7954   -7063917.64849  -5496823.18747                  22427718.6404
        48.7504         31.0004
  20528682.9104      91471.80149     70533.07048                  20528680.7504
        51.7504         42.2504
 04  7  7 20 48 30.0000000  0  4G 1G11G20G25
  22465149.4794   -5776157.23449  -4493708.31647                  22465149.1534
        47.7504         31.7504
  21218920.6144     363178.33249    281425.89147                  21218918.0924
        50.7504         38.0004
  22421244.0684   -7097955.39849  -5523346.09047                  22421241.8574
        48.7504         31.5004
  20531180.2304     104594.45749     80758.51248                  20531177.9134
        52.0004         42.2504
 04  7  7 20 48 45.0000000  0  4G 1G11G20G25
  22460651.4384   -5799793.42249  -4512126.09847                  22460650.8574
        48.2504         31.5004
  21221721.3554     377894.70749    292893.19547                  21221718.7474
        50.7504         38.0004
  22414771.6994   -7131969.40249  -5549850.48847                  22414769.2064
        47.5004         32.0004
  20533701.7234     117846.13749     91084.49648                  20533699.7054
        51.5004         42.0004
 04  7  7 20 49  0.0000000  0  4G 1G11G20G25
  22456163.5084   -5823378.37949  -4530503.97747                  22456162.7734
        47.5004         31.2504
  21224547.2254     392744.93049    304464.78947                  21224544.4904
        48.2504         38.0004
  22408304.1484   -7165958.59849  -5576335.56247                  22408300.9744
        48.0004         32.0004
  20536248.1624     131227.62949    101511.63348                  20536245.9874
        51.7504         41.5004
 04  7  7 20 49 15.0000000  0  4G 1G11G20G25
  22451685.0704   -5846913.46149  -4548842.98047                  22451684.0294
        47.2504         31.7504
  21227398.3654     407727.60549    316139.59447                  21227395.9484
        47.0004         38.5004
  22401840.2884   -7199924.10949  -5602802.16447                  22401837.5484
        48.0004         31.7504
  20538818.9864     144737.51649    112038.81648                  20538816.6514
        51.2504         41.7504
 04  7  7 20 49 30.0000000  0  4G 1G11G20G25
  22447215.9274   -5870398.28549  -4567142.82047                  22447215.3034
        47.5004         31.5004
  21230274.7244     422842.97749    327917.79347                  21230272.1984
        49.7504         38.7504
  22395381.5334   -7233865.24649  -5629249.78947                  22395378.5414
        48.0004         31.5004
  20541414.3594     158376.02749    122666.23048                  20541412.1654
        51.7504         41.5004
 04  7  7 20 49 45.0000000  0  4G 1G11G20G25
  22442756.2784   -5893832.73049  -4585403.41447                  22442755.9074
        47.7504         32.0004
  21233176.2264     438090.94149    339799.31647                  21233173.7404
        49.2504         38.0004
  22388927.3134   -7267781.69549  -5655678.17247                  22388924.9784
        48.2504         32.7504
  20544034.1794     172143.29749    133393.97348                  20544032.0514
        52.5004         42.0004
 04  7  7 20 50  0.0000000  0  4G 1G11G20G25
  22438306.6544   -5917217.24249  -4603625.08647                  22438305.7634
        48.2504         32.5004
  21236102.9244     453471.04349    351783.80947                  21236100.5094
        49.0004         38.5004
  22382478.1154   -7301673.74649  -5682087.53947                  22382475.3314
        49.0004         32.0004
  20546678.5804     186038.76649    144221.60948                  20546676.2144
        52.2504         41.7504
 04  7  7 20 50 15.0000000  0  4G 1G11G20G25
  22433866.0134   -5940553.14149  -4621808.87147                  22433865.3964
        47.7504         32.0004
  21239054.8024     468981.91849    363870.19547                  21239052.3464
        50.0004         38.2504
  22376032.9034   -7335542.50049  -5708478.75047                  22376030.3724
        48.2504         33.0004
  20549346.9854     200060.84049    155147.90248                  20549344.9864
        52.2504         42.5004
 04  7  7 20 50 30.0000000  0  4G 1G11G20G25
  22429434.5064   -5963839.98449  -4639954.44147                  22429433.8094
        48.0004         31.5004
  21242031.4414     484623.92249    376058.76647                  21242028.6034
        50.2504         38.2504
  22369592.2324   -7369387.25849  -5734851.26247                  22369590.1854
        49.0004         31.2504
  20552039.2244     214209.95349    166173.18448                  20552036.9674
        52.0004         42.2504
 04  7  7 20 50 45.0000000  0  4G 1G11G20G25
  22425012.5984   -5987078.24649  -4658062.16047                  22425011.6584
        48.0004         31.5004
  21245032.9474     500396.48449    388349.07047                  21245030.3404
        51.2504         38.2504
  22363156.3324   -7403208.23849  -5761205.24647                  22363153.8124
        48.0004         31.7504
  20554755.9944     228485.59049    177297.06348                  20554753.5254
        52.7504         42.0004
 04  7  7 20 51  0.0000000  0  4G 1G11G20G25
  22420599.4124   -6010268.98449  -4676132.83647                  22420598.5484
        48.5004         31.7504
  21248058.9284     516298.46149    400740.20747                  21248056.3904
        50.5004         38.2504
  22356724.7264   -7437006.27749  -5787541.36747                  22356722.1674
        48.2504         32.5004
  20557496.1674     242886.55149    188518.58648                  20557493.8344
        52.0004         42.0004
 04  7  7 20 51 15.0000000  0  4G 1G11G20G25
  22416195.2204   -6033412.74649  -4694166.92247                  22416194.3954
        48.2504         32.0004
  21251109.4754     532329.19149    413231.68047                  21251106.7074
        51.5004         38.0004
  22350297.3394   -7470781.75449  -5813859.90647                  22350295.0314
        48.5004         32.0004
  20560260.5084     257412.20749    199837.27748                  20560258.1914
        51.5004         42.7504
 04  7  7 20 51 30.0000000  0  4G 1G11G20G25
  22411799.6064   -6056508.90649  -4712163.91047                  22411799.0664
        48.2504         31.5004
  21254184.9894     548489.27749    425823.95347                  21254181.8654
        51.0004         38.2504
  22343874.7224   -7504533.84049  -5840160.21947                  22343872.3994
        49.0004         32.0004
  20563048.4744     272063.02049    211253.49248                  20563046.3474
        52.0004         42.2504
 04  7  7 20 51 45.0000000  0  4G 1G11G20G25
  22407414.4004   -6079556.27349  -4730122.87147                  22407413.3284
        48.5004         31.5004
  21257284.5644     564779.83249    438517.88347                  21257281.9604
        51.0004         38.2504
  22337456.3844   -7538261.14549  -5866441.20347                  22337454.7194
        48.0004         32.2504
  20565860.2084     286840.03149    222768.04748                  20565857.9224
        51.0004         42.7504
 04  7  7 20 52  0.0000000  0  4G 1G11G20G25
  22403037.6964   -6102555.06249  -4748043.96947                  22403036.9554
        48.2504         32.5004
  21260409.0454     581200.48049    451313.19147                  21260406.3144
        52.2504         38.2504
  22331042.9604   -7571963.53149  -5892702.78547                  22331041.1924
        48.0004         32.0004
  20568696.3504     301742.97349    234380.73448                  20568693.7444
        52.2504         42.2504
 04  7  7 20 52 15.0000000  0  4G 1G11G20G25
  22398670.6984   -6125504.62149  -4765926.72347                  22398669.4554
        48.0004         32.5004
  21263559.0534     597751.73849    464210.27347                  21263556.2194
        52.0004         38.0004
  22324634.5174   -7605640.22749  -5918944.34847                  22324632.8174
        47.7504         32.5004
  20571556.1574     316772.33649    246091.92248                  20571553.5084
        52.5004         42.2504
 04  7  7 20 52 30.0000000  0  4G 1G11G20G25
  22394312.0734   -6148407.09049  -4783772.78147                  22394311.3044
        48.5004         32.5004
  21266732.8994     614431.38349    477207.39147                  21266730.4244
        50.0004         38.0004
  22318230.5964   -7639293.13349  -5945167.36747                  22318228.4534
        48.5004         31.7504
  20574439.8664     331925.93049    257899.91848                  20574437.8014
        52.7504         42.0004
 04  7  7 20 52 45.0000000  0  4G 1G11G20G25
  22389963.4984   -6171262.01649  -4801581.78947                  22389962.3624
        48.0004         32.2504
  21269931.3444     631239.84449    490304.88747                  21269928.7194
        50.5004         38.0004
  22311831.3104   -7672921.59049  -5971371.34047                  22311829.6564
        48.0004         32.2504
  20577347.0424     347204.08249    269804.97348                  20577345.2214
        52.2504         42.5004
 04  7  7 20 53  0.0000000  0  4G 1G11G20G25
  22385623.0834   -6194070.30149  -4819354.44947                  22385622.3634
        48.5004         31.5004
  21273154.1994     648176.12549    503501.98447                  21273151.6114
        50.2504         38.5004
  22305436.6964   -7706526.12949  -5997556.68047                  22305434.4994
        47.7504         32.5004
  20580277.9064     362605.78549    281806.30548                  20580275.7664
        52.5004         42.0004
 04  7  7 20 53 15.0000000  0  4G 1G11G20G25
  22381291.8404   -6216831.26249  -4837090.23447                  22381290.5534
        48.5004         33.0004
  21276401.4074     665240.60249    516798.96947                  21276398.9794
        49.0004         38.0004
  22299046.6914   -7740106.06249  -6023722.83647                  22299044.7764
        48.0004         32.2504
  20583232.5394     378131.57849    293904.32048                  20583230.1964
        52.0004         42.2504
 04  7  7 20 53 30.0000000  0  4G 1G11G20G25
  22376969.3774   -6239544.68449  -4854788.98047                  22376968.6244
        48.5004         32.7504
  21279673.2794     682433.55949    530196.07447                  21279670.7784
        50.2504         38.0004
  22292661.4594   -7773660.77049  -6049869.34847                  22292659.5754
        48.2504         32.5004
  20586210.7124     393781.59049    306099.13348                  20586208.4164
        52.0004         42.2504
 04  7  7 20 53 45.0000000  0  4G 1G11G20G25
  22372656.1104   -6262210.63349  -4872450.73847                  22372655.4934
        48.0004         32.7504
  21282969.4824     699754.80549    543693.14847                  21282966.8404
        49.0004         38.5004
  22286280.7204   -7807190.10549  -6075996.09047                  22286279.2824
        48.2504         33.2504
  20589212.4174     409555.48849    318390.47748                  20589210.3144
        51.5004         42.5004
 04  7  7 20 54  0.0000000  0  4G 1G11G20G25
  22368352.2304   -6284829.50449  -4890075.82047                  22368351.4644
        48.0004         32.5004
  21286290.0314     717204.13349    557290.02047                  21286287.4494
        48.5004         38.2504
  22279905.1274   -7840694.25449  -6102103.20347                  22279903.7204
        48.5004         32.7504
  20592237.5954     425452.84049    330778.02348                  20592235.1054
        51.0004         42.0004
 04  7  7 20 54 15.0000000  0  4G 1G11G20G25
  22364056.5814   -6307401.22349  -4907664.14847                  22364056.1554
        48.5004         33.0004
  21289634.6444     734781.33649    570986.54347                  21289632.1694
        47.2504         38.0004
  22273534.2284   -7874172.92649  -6128190.44947                  22273532.8544
        48.0004         33.5004
  20595285.8414     441473.71149    343261.81648                  20595283.5394
        49.5004         42.0004
 04  7  7 20 54 30.0000000  0  4G 1G11G20G25
  22359770.1924   -6329925.70749  -4925215.66847                  22359769.7794
        48.2504         33.0004
  21293003.5984     752486.32049    584782.62547                  21293001.3694
        50.0004         38.0004
  22267168.8614   -7907625.76249  -6154257.58647                  22267166.5144
        48.0004         32.7504
  20598357.9894     457617.85549    355841.66848                  20598356.0024
        51.0004         42.0004
 04  7  7 20 54 45.0000000  0  4G 1G11G20G25
  22355493.0294   -6352403.11749  -4942730.51247                  22355492.6074
        48.2504         33.5004
  21296397.0004     770318.75049    598678.02047                  21296394.5144
        49.2504         38.2504
  22260807.7644   -7941052.73449  -6180304.56247                  22260805.6934
        48.0004         33.0004
  20601454.1824     473885.27349    368517.57448                  20601451.5384
        50.0004         41.7504
 04  7  7 20 55  0.0000000  0  4G 1G11G20G25
  22351224.2964   -6374835.51249  -4960210.28947                  22351224.1374
        48.2504         32.7504
  21299814.5864     788276.43049    612671.01647                  21299812.0414
        50.5004         38.2504
  22254451.4384   -7974455.62549  -6206332.77047                  22254449.5424
        48.5004         33.0004
  20604572.4364     490273.67249    381287.76248                  20604570.0664
        49.7504         42.0004
 04  7  7 20 55 15.0000000  0  4G 1G11G20G25
  22346963.7804   -6397223.70349  -4977655.61747                  22346963.5004
        47.7504         32.5004
  21303255.2804     806358.57449    626760.99647                  21303253.2534
        50.0004         38.5004
  22248099.1394   -8007835.10549  -6232342.73447                  22248097.5974
        48.0004         33.5004
  20607713.9684     506782.03549    394151.42248                  20607711.5064
        51.0004         41.7504
 04  7  7 20 55 30.0000000  0  4G 1G11G20G25
  22342712.2574   -6419567.01249  -4995065.97747                  22342711.5434
        48.0004         32.7504
  21306720.3064     824565.68449    640948.35247                  21306717.6034
        50.7504         37.7504
  22241751.7294   -8041190.19549  -6258333.69947                  22241750.3784
        48.0004         33.2504
  20610878.1094     523411.01249    407109.06348                  20610876.1794
        50.0004         42.0004
 04  7  7 20 55 45.0000000  0  4G 1G11G20G25
  22338468.8654   -6441866.39849  -5012442.09847                  22338467.8414
        48.0004         33.0004
  21310208.3274     842896.66049    655232.21947                  21310205.9654
        50.5004         38.0004
  22235409.2724   -8074521.64849  -6284306.24247                  22235407.2474
        47.5004         32.5004
  20614065.2364     540159.55949    420159.87948                  20614062.8864
        49.7504         42.0004
 04  7  7 20 56  0.0000000  0  4G 1G11G20G25
  22334233.2524   -6464122.74249  -5029784.69147                  22334233.1964
        48.0004         33.7504
  21313719.9534     861350.54349    669611.86347                  21313717.6194
        51.5004         38.5004
  22229070.6004   -8107830.16449  -6310260.92247                  22229069.0714
        48.2504         32.7504
  20617274.6824     557026.58249    433303.02048                  20617272.8934
        50.0004         41.7504
 04  7  7 20 56 15.0000000  0  4G 1G11G20G25
  22330006.6844   -6486335.93049  -5047093.66447                  22330006.0134
        48.0004         34.0004
  21317255.3104     879927.34849    684087.28547                  21317252.6944
        51.5004         38.2504
  22222736.7514   -8141115.35549  -6336197.43047                  22222734.9074
        47.5004         32.5004
  20620507.4704     574012.02349    446538.42648                  20620505.1294
        49.5004         42.5004
 04  7  7 20 56 30.0000000  0  4G 1G11G20G25
  22325787.5234   -6508506.27049  -5064369.23047                  22325787.4664
        47.5004         33.5004
  21320813.2724     898626.60549    698658.13347                  21320810.9694
        51.2504         38.0004
  22216407.2284   -8174377.17249  -6362115.71547                  22216405.5204
        48.0004         33.0004
  20623762.1364     591115.45749    459865.77348                  20623759.6204
        50.5004         42.0004
 04  7  7 20 56 45.0000000  0  4G 1G11G20G25
  22321577.0284   -6530633.04349  -5081610.85947                  22321576.3024
        47.7504         33.7504
  21324395.1884     917448.91049    713324.85547                  21324392.5344
        52.0004         38.2504
  22210082.0794   -8207614.78149  -6388015.12947                  22210080.1874
        48.0004         32.5004
  20627039.2074     608337.48449    473285.54348                  20627037.2204
        50.7504         41.5004
 04  7  7 20 57  0.0000000  0  4G 1G11G20G25
  22317374.8184   -6552715.77349  -5098818.16447                  22317374.3264
        48.5004         33.7504
  21328000.3934     936394.69549    728087.79747                  21327997.5534
        51.0004         38.0004
  22203762.2654   -8240827.43049  -6413895.09847                  22203760.1014
        48.0004         32.5004
  20630339.2174     625678.43449    486797.96948                  20630336.6364
        51.2504         41.7504
 04  7  7 20 57 15.0000000  0  4G 1G11G20G25
  22313180.4374   -6574755.37549  -5115991.86747                  22313180.0454
        47.5004         33.0004
  21331628.9934     955462.97349    742946.19147                  21331626.2754
        51.0004         38.0004
  22197446.6624   -8274015.76649  -6439756.12947                  22197444.2384
        48.2504         32.5004
  20633661.6344     643137.30149    500402.28548                  20633659.3264
        50.5004         41.2504
 04  7  7 20 57 30.0000000  0  4G 1G11G20G25
  22308994.9294   -6596751.25849  -5133131.49647                  22308994.4654
        48.0004         33.5004
  21335280.9864     974654.19549    757900.37147                  21335278.7154
        51.0004         37.7504
  22191135.8744   -8307179.05149  -6465597.64847                  22191133.9514
        48.2504         32.5004
  20637005.9994     660714.51249    514098.81348                  20637004.0894
        51.7504         42.0004
 04  7  7 20 57 45.0000000  0  4G 1G11G20G25
  22304817.6994   -6618703.62149  -5150237.21947                  22304816.8724
        47.5004         33.5004
  21338956.2814     993967.98849    772950.06647                  21338953.9324
        51.0004         38.0004
  22184829.5514   -8340317.20349  -6491419.57047                  22184827.9554
        48.0004         32.5004
  20640373.7944     678409.79749    527887.34448                  20640371.0414
        51.7504         41.5004
 04  7  7 20 58  0.0000000  0  4G 1G11G20G25
  22300648.5004   -6640611.54749  -5167308.31247                  22300648.2594
        47.7504         33.7504
  21342654.9344    1013405.14849    788095.89847                  21342652.7304
        52.2504         38.0004
  22178528.8134   -8373428.95749  -6517220.92647                  22178527.0544
        48.2504         32.5004
  20643763.3224     696224.03549    541768.57448                  20643760.7714
        52.0004         41.7504
 04  7  7 20 58 15.0000000  0  4G 1G11G20G25
  22296488.4414   -6662474.01649  -5184343.98447                  22296488.0194
        48.0004         33.7504
  21346377.6794    1032966.52049    803338.51647                  21346375.2304
        51.0004         37.7504
  22172232.7924   -8406513.18749  -6543000.83247                  22172231.1944
        48.0004         33.0004
  20647175.9384     714157.90649    555743.01648                  20647173.7914
        51.2504         41.7504
 04  7  7 20 58 30.0000000  0  4G 1G11G20G25
  22292336.2514   -6684292.86749  -5201345.66847                  22292335.7074
        48.0004         33.5004
  21350123.0724    1052650.23049    818676.46947                  21350120.7064
        50.7504         37.5004
  22165942.6644   -8439571.44949  -6568760.50447                  22165940.4244
        48.7504         32.7504
  20650611.3744     732209.50449    569809.19948                  20650609.1114
        51.5004         41.7504
 04  7  7 20 58 45.0000000  0  4G 1G11G20G25
  22288192.7284   -6706067.80949  -5218313.13747                  22288192.2284
        48.5004         33.7504
  21353892.3484    1072456.50449    834109.92247                  21353890.0984
        52.2504         37.2504
  22159656.7224   -8472603.15649  -6594499.48447                  22159654.9964
        48.2504         32.5004
  20654068.8534     750379.00849    583967.25448                  20654066.6694
        52.0004         41.5004
 04  7  7 20 59  0.0000000  0  4G 1G11G20G25
  22284057.8044   -6727798.71949  -5235246.29347                  22284056.9994
        48.2504         34.5004
  21357684.3384    1092385.21949    849638.77747                  21357682.2904
        51.2504         38.0004
  22153376.1414   -8505607.93749  -6620217.48447                  22153374.5634
        48.7504         32.0004
  20657548.8404     768666.37949    598217.15648                  20657546.7344
        51.0004         41.7504
 04  7  7 20 59 15.0000000  0  4G 1G11G20G25
  22279930.7864   -6749485.21949  -5252144.84447                  22279930.0934
        48.2504         34.0004
  21361499.9954    1112436.76649    865263.35547                  21361497.7714
        51.5004         38.0004
  22147101.0664   -8538585.21549  -6645914.05547                  22147099.0764
        49.0004         32.5004
  20661051.1134     787071.93449    612559.14548                  20661048.9414
        50.7504         41.7504
 04  7  7 20 59 30.0000000  0  4G 1G11G20G25
  22275812.1504   -6771127.69949  -5269009.09047                  22275811.4334
        48.0004         34.2504
  21365339.1924    1132610.41049    880983.06647                  21365337.2144
        51.2504         38.0004
  22140830.6594   -8571535.21149  -6671589.35947                  22140828.3844
        49.5004         33.5004
  20664576.0084     805595.05549    626992.74248                  20664573.6474
        50.0004         41.2504
 04  7  7 20 59 45.0000000  0  4G 1G11G20G25
  22271702.2764   -6792726.69549  -5285839.44547                  22271701.4874
        48.2504         33.7504
  21369201.4154    1152905.71149    896797.57447                  21369199.0324
        51.5004         38.0004
  22134565.7034   -8604458.07449  -6697243.52347                  22134563.7274
        48.5004         34.2504
  20668123.0054     824235.10949    641517.46548                  20668120.9594
        51.0004         42.0004
 04  7  7 21  0  0.0000000  0  4G 1G11G20G25
  22267600.4744   -6814281.64549  -5302635.49247                  22267599.5694
        48.0004         33.7504
  21373086.6044    1173322.98449    912707.12547                  21373084.2394
        51.0004         38.5004
  22128305.9454   -8637352.93749  -6722875.87547                  22128303.6874
        48.5004         33.7504
  20671692.9034     842992.56649    656133.66448                  20671690.5864
        48.7504         41.5004
 04  7  7 21  0 15.0000000  0  4G 1G11G20G25
  22263506.7934   -6835791.87149  -5319396.69547                  22263506.2104
        47.5004         33.7504
  21376994.6954    1193862.87549    928712.22747                  21376992.5404
        50.7504         38.2504
  22122051.9114   -8670218.98849  -6748485.77047                  22122049.5654
        48.5004         33.2504
  20675284.3554     861867.97349    670841.77348                  20675282.3714
        49.2504         41.7504
 04  7  7 21  0 30.0000000  0  4G 1G11G20G25
  22259422.1104   -6857258.12549  -5336123.62147                  22259421.6284
        47.7504         34.2504
  21380926.9064    1214524.39549    944812.09847                  21380924.7564
        50.7504         38.5004
  22115803.0694   -8703056.80149  -6774073.66447                  22115800.9464
        49.0004         33.5004
  20678898.5124     880860.34449    685641.01248                  20678896.3774
        50.2504         42.2504
 04  7  7 21  0 45.0000000  0  4G 1G11G20G25
  22255345.3064   -6878681.26249  -5352816.95347                  22255344.8854
        48.0004         33.5004
  21384881.7304    1235306.54349    961005.97347                  21384879.2484
        51.0004         37.7504
  22109559.3974   -8735866.81249  -6799639.89147                  22109557.3264
        48.7504         34.2504
  20682534.6814     899968.79749    700530.71948                  20682532.3474
        49.0004         42.2504
 04  7  7 21  1  0.0000000  0  4G 1G11G20G25
  22251277.0754   -6900060.20749  -5369475.85947                  22251276.8144
        48.2504         33.5004
  21388859.3054    1256210.40649    977294.69147                  21388857.0054
        50.5004         37.7504
  22103321.0024   -8768647.77049  -6825183.48047                  22103319.4004
        48.7504         34.0004
  20686193.1634     919194.16049    715511.52048                  20686190.8734
        49.7504         41.7504
 04  7  7 21  1 15.0000000  0  4G 1G11G20G25
  22247217.4344   -6921392.99649  -5386098.78947                  22247216.8444
        48.5004         33.0004
  21392861.0234    1277237.73049    993679.60547                  21392858.2964
        51.5004         37.7504
  22097089.4914   -8801397.41449  -6850702.67647                  22097087.9204
        49.0004         34.2504
  20689874.3284     938538.41849    730584.96148                  20689872.1134
        49.0004         41.5004
 04  7  7 21  1 30.0000000  0  4G 1G11G20G25
  22243167.0424   -6942678.78949  -5402685.10547                  22243166.3754
        48.2504         33.5004
  21396886.0274    1298389.17649   1010161.24247                  21396883.4554
        51.0004         37.7504
  22090863.4454   -8834114.71949  -6876196.65647                  22090861.7564
        49.5004         34.2504
  20693578.0974     958002.07049    745751.44548                  20693575.4564
        51.0004         41.2504
 04  7  7 21  1 45.0000000  0  4G 1G11G20G25
  22239125.2414   -6963916.62549  -5419234.04347                  22239124.5274
        48.0004         33.0004
  21400934.4584    1319665.67649   1026740.32447                  21400931.8984
        50.7504         37.7504
  22084643.4674   -8866798.51249  -6901664.52747                  22084642.1634
        48.5004         33.7504
  20697304.7324     977586.16449    761011.77048                  20697302.6184
        50.0004         41.2504
 04  7  7 21  2  0.0000000  0  4G 1G11G20G25
  22235093.2324   -6985106.57049  -5435745.67247                  22235092.1644
        48.2504         33.0004
  21405007.1394    1341066.90649   1043416.60947                  21405004.9364
        50.2504         37.7504
  22078430.8874   -8899448.54749  -6927106.10547                  22078428.7414
        49.0004         33.7504
  20701054.4114     997290.26249    776365.60548                  20701052.2804
        50.0004         41.7504
 04  7  7 21  2 15.0000000  0  4G 1G11G20G25
  22231070.2184   -7006248.82449  -5452220.13747                  22231068.8334
        48.2504         33.5004
  21409103.2404    1362592.55149   1060189.82447                  21409100.8424
        51.0004         37.5004
  22072224.2864   -8932064.68449  -6952521.27047                  22072222.1434
        49.2504         34.2504
  20704826.6974    1017114.07849    791812.73048                  20704824.6824
        50.5004         41.2504
 04  7  7 21  2 30.0000000  0  4G 1G11G20G25
  22227055.6124   -7027343.90249  -5468657.84447                  22227054.9424
        48.5004         34.0004
  21413223.1574    1384241.99649   1077059.51247                  21413220.9174
        50.5004         37.5004
  22066023.9404   -8964647.24249  -6977910.25847                  22066022.1464
        49.7504         35.0004
  20708621.8444    1037056.91449    807352.60548                  20708620.0584
        50.5004         41.7504
 04  7  7 21  2 45.0000000  0  4G 1G11G20G25
  22223050.2714   -7048392.14549  -5485059.06647                  22223049.3764
        48.5004         33.7504
  21417366.3294    1406014.72349   1094025.26647                  21417364.2074
        50.2504         37.7504
  22059830.4394   -8997196.37149  -7003273.19547                  22059828.1494
        49.5004         34.5004
  20712439.4324    1057118.36349    822984.89148                  20712437.3544
        51.0004         42.0004
 04  7  7 21  3  0.0000000  0  4G 1G11G20G25
  22219053.5804   -7069394.18049  -5501424.26247                  22219052.8124
        49.0004         33.5004
  21421532.5694    1427909.95749   1111086.47747                  21421530.5854
        51.0004         37.5004
  22053642.2974   -9029712.44149  -7028610.37947                  22053640.4884
        50.5004         34.7504
  20716279.4274    1077297.60949    838708.97748                  20716277.1594
        52.0004         41.5004
 04  7  7 21  3 15.0000000  0  4G 1G11G20G25
  22215066.7404   -7090347.53549  -5517751.54347                  22215065.6604
        48.5004         33.7504
  21425723.0714    1449930.12549   1128245.05147                  21425720.7214
        50.7504         37.5004
  22047461.7674   -9062192.58649  -7053919.57047                  22047459.1364
        49.0004         34.0004
  20720142.3184    1097596.99249    854526.68048                  20720140.1324
        51.7504         42.0004
 04  7  7 21  3 30.0000000  0  4G 1G11G20G25
  22211088.1394   -7111253.79749  -5534042.12147                  22211087.4974
        49.5004         33.0004
  21429936.7294    1472073.50849   1145499.61347                  21429934.6654
        51.0004         37.2504
  22041287.0694   -9094638.25449  -7079201.88747                  22041285.5474
        48.7504         34.0004
  20724027.7294    1118014.84849    870436.69148                  20724025.8194
        52.0004         41.7504
 04  7  7 21  3 45.0000000  0  4G 1G11G20G25
  22207118.6354   -7132114.63749  -5550297.30147                  22207117.7984
        48.5004         33.0004
  21434173.5844    1494338.22349   1162848.73847                  21434171.3904
        50.5004         37.2504
  22035119.2564   -9127050.84049  -7104458.43447                  22035117.3144
        49.0004         34.0004
  20727935.0834    1138549.30149    886437.55948                  20727933.2264
        52.0004         41.7504
 04  7  7 21  4  0.0000000  0  4G 1G11G20G25
  22203157.6134   -7152929.65249  -5566516.78147                  22203156.3804
        48.5004         33.0004
  21438433.2334    1516724.62549   1180292.68047                  21438431.6344
        49.7504         37.0004
  22028957.9084   -9159429.66049  -7129688.66047                  22028955.5694
        50.0004         34.5004
  20731864.9544    1159200.42649    902529.34448                  20731862.8174
        51.5004         42.0004
 04  7  7 21  4 15.0000000  0  4G 1G11G20G25
  22199205.1854   -7173699.43049  -5582701.01647                  22199204.2124
        49.0004         34.2504
  21442716.6844    1539231.90249   1197830.81647                  21442714.8494
        51.0004         37.5004
  22022802.6124   -9191775.01649  -7154892.81247                  22022800.7244
        49.0004         34.7504
  20735816.9944    1179967.69149    918711.62548                  20735814.6284
        52.0004         41.7504
 04  7  7 21  4 30.0000000  0  4G 1G11G20G25
  22195261.3464   -7194423.94549  -5598849.97347                  22195260.2884
        48.7504         33.2504
  21447022.6374    1561859.78949   1215462.92647                  21447020.7724
        50.5004         37.2504
  22016654.0064   -9224086.68749  -7180070.72347                  22016651.9434
        49.0004         34.0004
  20739790.9604    1200850.94949    934984.29348                  20739788.4114
        52.0004         42.0004
 04  7  7 21  4 45.0000000  0  4G 1G11G20G25
  22191326.4024   -7215103.62949  -5614964.00047                  22191324.9594
        48.7504         33.5004
  21451351.2664    1584607.79749   1233188.62547                  21451349.0164
        50.2504         37.2504
  22010511.5754   -9256364.85249  -7205222.53147                  22010509.5824
        49.7504         34.5004
  20743786.8054    1221849.65249    951346.91448                  20743784.6404
        52.5004         41.7504
 04  7  7 21  5  0.0000000  0  4G 1G11G20G25
  22187400.1074   -7235737.39149  -5631042.23847                  22187398.1184
        49.5004         33.5004
  21455703.1494    1607476.86349   1251008.67647                  21455700.8194
        51.0004         37.2504
  22004376.0134   -9288608.19949  -7230347.19947                  22004373.9564
        49.7504         34.5004
  20747804.8404    1242964.57449    967800.10548                  20747802.6544
        52.0004         42.0004
 04  7  7 21  5 15.0000000  0  4G 1G11G20G25
  22183481.8244   -7256325.63749  -5647085.01647                  22183480.6604
        49.5004         33.7504
  21460077.9864    1630466.55549   1268922.71147                  21460075.6344
        51.2504         37.2504
  21998246.6784   -9320816.69549  -7255444.71947                  21998244.7034
        49.2504         34.5004
  20751844.7814    1264195.38749    984343.59848                  20751842.5834
        52.2504         42.0004
 04  7  7 21  5 30.0000000  0  4G 1G11G20G25
  22179573.3494   -7276867.30949  -5663091.50047                  22179571.6714
        49.0004         33.7504
  21464475.9124    1653577.66849   1286931.35947                  21464473.4604
        50.2504         37.5004
  21992124.8464   -9352989.07049  -7280514.08247                  21992122.7354
        49.5004         34.7504
  20755906.9254    1285542.71549   1000977.87548                  20755905.2374
        52.5004         41.5004
 04  7  7 21  5 45.0000000  0  4G 1G11G20G25
  22175672.7664   -7297363.12149  -5679062.25447                  22175671.6494
        48.2504         33.7504
  21468896.7304    1676809.30149   1305033.91847                  21468894.9234
        50.2504         37.2504
  21986009.3714   -9385125.92649  -7305555.76647                  21986007.5104
        48.7504         35.2504
  20759991.5194    1307005.73049   1017702.30148                  20759989.3954
        52.7504         41.7504
 04  7  7 21  6  0.0000000  0  4G 1G11G20G25
  22171781.0774   -7317814.21149  -5694998.15647                  22171779.7404
        48.7504         34.0004
  21473340.2924    1700160.16049   1323229.38347                  21473338.3274
        50.5004         37.2504
  21979900.0034   -9417228.04349  -7330570.38347                  21979898.2524
        50.0004         35.2504
  20764097.3924    1328583.19549   1034515.91448                  20764095.1084
        52.0004         41.5004
 04  7  7 21  6 15.0000000  0  4G 1G11G20G25
  22167897.6024   -7338221.25049  -5710899.73447                  22167896.3024
        48.0004         33.2504
  21477806.3544    1723629.48049   1341517.15247                  21477804.0264
        50.5004         37.5004
  21973798.3424   -9449295.66049  -7355558.12547                  21973796.3474
        49.0004         35.0004
  20768225.2484    1350274.34049   1051418.10548                  20768222.8624
        52.0004         41.7504
 04  7  7 21  6 30.0000000  0  4G 1G11G20G25
  22164022.4324   -7358584.98049  -5726767.55947                  22164021.4624
        47.2504         33.2504
  21482294.7534    1747216.39849   1359896.55947                  21482292.8354
        50.2504         37.5004
  21967702.4214   -9481329.52049  -7380519.56647                  21967700.2684
        49.2504         35.2504
  20772374.2934    1372078.28549   1068408.19148                  20772371.8974
        52.0004         42.0004
 04  7  7 21  6 45.0000000  0  4G 1G11G20G25
  22160155.3664   -7378905.87549  -5742602.00847                  22160154.7324
        47.5004         33.2504
  21486805.6484    1770920.21549   1378367.05947                  21486803.5224
        50.2504         37.5004
  21961613.1364   -9513329.69549  -7405454.74647                  21961610.8094
        49.5004         35.5004
  20776544.8044    1393994.41449   1085485.69548                  20776542.5724
        51.7504         41.7504
 04  7  7 21  7  0.0000000  0  4G 1G11G20G25
  22156296.6184   -7399183.53549  -5758402.77047                  22156295.8754
        47.2504         33.5004
  21491338.5264    1794741.17249   1396928.83247                  21491336.3524
        50.5004         37.5004
  21955530.0244   -9545295.55549  -7430363.19147                  21955528.0464
        49.5004         35.0004
  20780736.7484    1416022.91449   1102650.75048                  20780734.4634
        51.5004         42.0004
 04  7  7 21  7 15.0000000  0  4G 1G11G20G25
  22152446.0164   -7419417.38749  -5774169.39547                  22152445.3404
        45.5004         33.7504
  21495893.9534    1818679.74249   1415582.24647                  21495892.0214
        49.0004         37.5004
  21949453.5544   -9577226.23449  -7455244.22347                  21949452.0534
        49.7504         35.2504
  20784949.8704    1438164.03549   1119903.57448                  20784948.0344
        51.2504         42.0004
 04  7  7 21  7 30.0000000  0  4G 1G11G20G25
  22148603.7854   -7439609.50049  -5789903.48847                  22148602.5694
        47.0004         33.5004
  21500471.2604    1842733.64149   1434325.54347                  21500468.6184
        50.0004         37.2504
  21943384.0204   -9609123.53149  -7480099.24647                  21943381.9944
        50.0004         34.7504
  20789184.4064    1460415.68849   1137242.52048                  20789182.1234
        51.5004         41.7504
 04  7  7 21  7 45.0000000  0  4G 1G11G20G25
  22144769.0924   -7459760.90649  -5805605.86347                  22144768.3584
        45.5004         34.0004
  21505070.4554    1866901.73049   1453157.80147                  21505067.8914
        49.5004         37.2504
  21937320.2044   -9640988.11349  -7504928.77347                  21937318.2104
        49.5004         34.7504
  20793439.5114    1482776.86349   1154666.80948                  20793437.4504
        51.2504         41.7504
 04  7  7 21  8  0.0000000  0  4G 1G11G20G25
  22140942.3714   -7479871.31649  -5821276.30147                  22140941.5704
        45.7504         34.0004
  21509691.2474    1891184.10549   1472079.12147                  21509688.8444
        49.7504         37.2504
  21931262.9184   -9672819.56649  -7529732.49247                  21931261.0384
        49.7504         34.2504
  20797715.4644    1505247.44949   1172176.35248                  20797713.2904
        51.5004         41.5004
 04  7  7 21  8 15.0000000  0  4G 1G11G20G25
  22137122.7934   -7499942.77349  -5836916.38747                  22137121.7764
        46.0004         33.5004
  21514333.1914    1915578.47349   1491087.70747                  21514330.9094
        49.5004         37.5004
  21925211.4354   -9704619.78549  -7554511.85947                  21925209.4494
        49.5004         35.2504
  20802011.7964    1527825.18049   1189769.39148                  20802009.5324
        51.2504         41.5004
 04  7  7 21  8 30.0000000  0  4G 1G11G20G25
  22133310.6654   -7519975.16049  -5852526.02347                  22133309.9234
        47.0004         34.0004
  21518996.5964    1940084.91449   1510183.62547                  21518994.3674
        49.5004         37.2504
  21919166.0174   -9736388.18049  -7579266.44147                  21919163.9494
        49.7504         35.5004
  20806328.5354    1550510.00049   1207445.86748                  20806326.6604
        51.7504         41.5004
 04  7  7 21  8 45.0000000  0  4G 1G11G20G25
  22129506.2724   -7539968.18449  -5868104.98847                  22129505.3934
        47.0004         34.2504
  21523681.5594    1964703.44949   1529366.88747                  21523679.1934
        49.7504         37.5004
  21913126.6784   -9768124.27749  -7603995.84847                  21913124.7294
        50.0004         34.2504
  20810666.1024    1573302.31349   1225206.10548                  20810664.1294
        50.7504         41.5004
 04  7  7 21  9  0.0000000  0  4G 1G11G20G25
  22125709.2744   -7559921.43049  -5883652.94947                  22125708.6404
        48.0004         34.5004
  21528387.6594    1989434.47749   1548637.80547                  21528385.5494
        50.5004         37.5004
  21907093.8214   -9799827.35249  -7628699.53147                  21907091.6294
        49.5004         34.5004
  20815023.8574    1596202.24649   1243050.20748                  20815021.7294
        51.7504         42.0004
 04  7  7 21  9 15.0000000  0  4G 1G11G20G25
  22121920.0594   -7579834.80949  -5899169.85247                  22121919.4374
        48.0004         35.0004
  21533115.0584    2014277.80949   1567996.22347                  21533112.9274
        50.2504         37.0004
  21901067.5514   -9831497.00449  -7653377.17247                  21901065.4514
        49.2504         35.2504
  20819401.7974    1619209.73449   1260978.11748                  20819399.9494
        52.0004         41.7504
 04  7  7 21  9 30.0000000  0  5G 1G11G16G20G25
  22118137.7814   -7599710.32849  -5914657.25047                  22118136.9134
        47.5004         34.5004
  21537863.6574    2039231.30549   1587440.49247                  21537861.0614
        50.7504         37.2504
  24595607.2404     -28755.16859    -17780.30956                  24595608.0194
        39.7504         20.5004
  21895046.4614   -9863134.93449  -7678030.09447                  21895044.5874
        49.5004         35.2504
  20823800.1664    1642322.66449   1278988.18048                  20823797.6844
        52.0004         41.7504
 04  7  7 21  9 45.0000000  0  5G 1G11G16G20G25
  22114363.0224   -7619545.80149  -5930113.44547                  22114362.8904
        48.0004         34.5004
  21542633.5404    2064296.93449   1606972.14147                  21542631.0434
        51.0004         37.2504
  24588427.8654     -66483.12149    -47178.59446                  24588428.9004
        38.2504         17.7504
  21889032.8774   -9894738.81249  -7702656.48047                  21889030.9114
        49.0004         34.5004
  20828218.8554    1665542.87549   1297081.84848                  20828216.4844
        51.5004         41.7504
 04  7  7 21 10  0.0000000  0  5G 1G11G16G20G25
  22110596.4104   -7639340.69949  -5945538.02747                  22110595.9534
        48.7504         34.5004
  21547424.4784    2089475.03149   1626591.42647                  21547422.2264
        50.7504         37.0004
  24581243.9444    -104233.40649    -76594.32446                  24581244.9614
        40.2504         18.2504
  21883025.6514   -9926307.77349  -7727255.65247                  21883023.6194
        49.5004         34.5004
  20832657.9774    1688870.78549   1315259.43448                  20832655.8104
        52.0004         41.5004
 04  7  7 21 10 15.0000000  0  5G 1G11G16G20G25
  22106836.6484   -7659097.77349  -5960933.12547                  22106836.2154
        48.0004         35.0004
  21552236.8504    2114762.84449   1646296.19947                  21552234.2774
        51.2504         37.2504
  24574055.9684    -142008.62549   -106029.47746                  24574056.2224
        40.5004         20.0004
  21877023.9874   -9957844.25049  -7751829.52047                  21877022.0664
        49.0004         35.0004
  20837116.9094    1712303.48449   1333518.68048                  20837114.8794
        51.2504         42.0004
 04  7  7 21 10 30.0000000  0  5G 1G11G16G20G25
  22103083.3024   -7678818.46149  -5976299.88347                  22103082.9704
        48.2504         34.5004
  21557069.5714    2140158.57049   1666085.07447                  21557066.7744
        50.7504         36.7504
  24566862.6694    -179809.80149   -135484.86346                  24566862.5294
        41.2504         21.2504
  21871028.9734   -9989349.44549  -7776379.00447                  21871027.0794
        50.0004         34.7504
  20841595.7814    1735839.34049   1351858.29748                  20841593.6044
        51.7504         41.7504
 04  7  7 21 10 45.0000000  0  5G 1G11G16G20G25
  22099337.2844   -7698504.18449  -5991639.39147                  22099336.9264
        47.2504         34.7504
  21561922.3264    2165660.78149   1685956.91047                  21561920.2614
        50.2504         36.7504
  24559663.9584    -217637.89849   -164961.25046                  24559664.6584
        41.5004         21.5004
  21865039.4174  -10020824.39149  -7800904.93047                  21865037.6094
        49.5004         35.5004
  20846093.8594    1759476.95349   1370277.21948                  20846091.7854
        51.5004         41.7504
 04  7  7 21 11  0.0000000  0  5G 1G11G16G20G25
  22095598.2674   -7718156.98849  -6006953.25047                  22095597.1924
        48.0004         34.5004
  21566795.3734    2191267.21549   1705909.96947                  21566792.8204
        50.7504         37.0004
  24552459.6424    -255494.47749   -194459.79346                  24552460.6674
        40.7504         21.0004
  21859055.1664  -10052270.93449  -7825408.71547                  21859053.6234
        50.0004         35.0004
  20850610.7684    1783213.87149   1388773.50448                  20850608.9144
        51.5004         42.0004
 04  7  7 21 11 15.0000000  0  5G 1G11G16G20G25
  22091864.7624   -7737774.62949  -6022239.70347                  22091863.9014
        47.2504         34.5004
  21571687.8474    2216979.95749   1725945.85247                  21571685.6814
        50.0004         37.0004
  24545251.1484    -293377.00449   -223978.58246                  24545251.6634
        40.5004         19.0004
  21853077.1034  -10083686.54349  -7849888.40247                  21853075.0844
        49.7504         35.2504
  20855147.1774    1807052.27049   1407348.87948                  20855144.8144
        52.2504         42.0004
 04  7  7 21 11 30.0000000  0  5G 1G11G16G20G25
  22088138.8934   -7757354.69149  -6037496.87147                  22088137.9384
        46.7504         34.7504
  21576601.8864    2242801.20749   1746066.29747                  21576599.6454
        49.2504         37.5004
  24538037.9154    -331282.70749   -253515.48846                  24538038.2374
        39.5004         18.5004
  21847105.2524  -10115068.59049  -7874341.93747                  21847103.4824
        50.2504         35.2504
  20859702.8734    1830994.36749   1426005.05548                  20859701.4124
        51.2504         41.5004
 04  7  7 21 11 45.0000000  0  5G 1G11G16G20G25
  22084419.7144   -7776899.96949  -6052726.94547                  22084418.4224
        46.2504         34.7504
  21581535.3054    2268727.89849   1766268.90647                  21581533.2954
        50.0004         37.5004
  24530819.8704    -369214.01649   -283072.29346                  24530819.4924
        39.0004         17.0004
  21841139.3854  -10146419.52049  -7898771.23047                  21841137.6414
        49.2504         36.0004
  20864278.4964    1855037.18849   1444739.70348                  20864276.8504
        51.2504         41.5004
 04  7  7 21 12  0.0000000  0  5G 1G11G16G20G25
  22080706.9924   -7796410.95749  -6067930.29747                  22080705.7154
        45.7504         34.5004
  21586489.3304    2294759.48849   1786553.25447                  21586487.1684
        48.5004         37.2504
  24523596.3544    -407170.92249   -312649.04346                  24523596.1834
        39.5004         18.2504
  21835179.3604  -10177739.59849  -7923176.46947                  21835177.5284
        49.7504         35.5004
  20868872.5624    1879180.15249   1463552.40648                  20868870.8394
        52.5004         41.7504
 04  7  7 21 12 15.0000000  0  5G 1G11G16G20G25
  22077000.5354   -7815887.44149  -6083106.75447                  22076999.1804
        46.2504         34.2504
  21591462.8064    2320896.01649   1806919.35947                  21591460.9084
        49.0004         36.7504
  24516368.8114    -445152.85949   -342245.30546                  24516368.6764
        38.7504         20.0004
  21829225.2924  -10209028.25449  -7947557.23047                  21829223.2234
        49.0004         35.0004
  20873485.9054    1903423.28549   1482443.14848                  20873483.7924
        51.5004         41.2504
 04  7  7 21 12 30.0000000  0  5G 1G11G16G20G25
  22073300.7184   -7835329.92649  -6098256.72347                  22073299.5604
        45.5004         35.0004
  21596456.2074    2347136.84849   1827366.73847                  21596453.8814
        49.0004         37.5004
  24509136.4534    -483159.96549   -371861.17246                  24509136.5964
        38.5004         19.5004
  21823277.3984  -10240285.80149  -7971913.75447                  21823275.4994
        49.5004         35.0004
  20878118.1384    1927765.84049   1501411.37148                  20878116.0574
        51.5004         41.0004
 04  7  7 21 12 45.0000000  0  5G 1G11G16G20G25
  22069607.0004   -7854739.15649  -6113380.78547                  22069605.6394
        45.7504         34.0004
  21601469.2864    2373480.88349   1847894.55547                  21601467.0204
        48.5004         37.5004
  24501898.9944    -521192.57449   -401496.91846                  24501899.5634
        38.0004         20.0004
  21817334.7804  -10271512.68449  -7996246.37947                  21817333.0244
        49.2504         35.5004
  20882769.2724    1952206.97749   1520456.40648                  20882766.8014
        51.0004         41.5004
 04  7  7 21 13  0.0000000  0  5G 1G11G16G20G25
  22065920.0504   -7874114.96949  -6128478.79747                  22065918.5454
        46.7504         34.0004
  21606502.1824    2399928.13749   1868502.78947                  21606499.7704
        50.5004         37.2504
  24494656.8304    -559250.14849   -431152.10246                  24494656.8954
        38.7504         20.5004
  21811398.8974  -10302708.40649  -8020554.73047                  21811396.6894
        50.0004         36.0004
  20887438.6944    1976746.55949   1539578.17248                  20887436.9424
        50.7504         41.2504
 04  7  7 21 13 15.0000000  0  5G 1G11G16G20G25
  22062239.3734   -7893457.41049  -6143550.82047                  22062238.2544
        47.0004         34.2504
  21611554.2764    2426478.39549   1889191.29347                  21611552.3154
        50.5004         37.2504
  24487410.0884    -597332.41449   -460826.54346                  24487410.1144
        37.2504         20.5004
  21805468.1814  -10333872.84049  -8044838.69147                  21805466.4664
        49.5004         36.0004
  20892127.0164    2001384.35549   1558776.44148                  20892125.3784
        50.5004         40.7504
 04  7  7 21 13 30.0000000  0  5G 1G11G16G20G25
  22058564.8214   -7912766.59849  -6158596.93047                  22058563.7604
        46.7504         34.5004
  21616626.1374    2453131.43849   1909959.87547                  21616624.2394
        49.2504         37.5004
  24480158.0744    -635438.87149   -490519.82046                  24480159.7324
        38.0004         21.7504
  21799543.3554  -10365005.73449  -8069098.07847                  21799542.0094
        49.5004         36.0004
  20896834.1464    2026120.17649   1578051.10548                  20896832.0944
        51.0004         41.0004
 04  7  7 21 13 45.0000000  0  5G 1G11G16G20G25
  22054896.9034   -7932041.24249  -6173616.11747                  22054896.0564
        47.0004         35.5004
  21621718.1224    2479888.30949   1930809.37547                  21621716.1294
        50.2504         37.2504
  24472903.2474    -673568.03949   -520230.85246                  24472903.4914
        38.0004         21.0004
  21793625.6884  -10396105.62949  -8093331.74647                  21793624.0044
        49.0004         36.7504
  20901560.2904    2050955.12149   1597403.01248                  20901558.1744
        50.5004         41.0004
 04  7  7 21 14  0.0000000  0  5G 1G11G16G20G25
  22051236.0164   -7951280.69949  -6188607.88747                  22051234.7644
        46.7504         35.5004
  21626829.5304    2506749.54749   1951740.19547                  21626827.5024
        50.0004         36.7504
  24465642.4294    -711718.76249   -549958.64146                  24465643.8394
        37.7504         20.0004
  21787713.9634  -10427171.42649  -8117538.85247                  21787712.2074
        49.5004         36.0004
  20906304.8894    2075889.64149   1616832.50448                  20906302.7954
        50.0004         40.7504
 04  7  7 21 14 15.0000000  0  5G 1G11G16G20G25
  22047581.6074   -7970483.47749  -6203571.06647                  22047580.4924
        46.7504         34.2504
  21631961.4954    2533716.38349   1972753.29747                  21631958.8044
        50.0004         36.2504
  24458379.0344    -749889.14849   -579701.74646                  24458379.3304
        37.5004         20.0004
  21781809.2644  -10458201.32849  -8141717.99247                  21781807.1874
        49.5004         36.0004
  20911069.2774    2100925.03549   1636340.60248                  20911067.1344
        50.5004         41.2504
 04  7  7 21 14 30.0000000  0  5G 1G11G16G20G25
  22043934.7224   -7989648.11749  -6218504.54747                  22043933.7104
        45.7504         34.5004
  21637113.1784    2560790.09049   1993849.68047                  21637111.1134
        50.5004         36.5004
  24451112.6484    -788077.59849   -609458.96146                  24451112.0954
        38.7504         21.2504
  21775911.4614  -10489193.72749  -8165867.89847                  21775909.8574
        50.0004         36.2504
  20915852.8394    2126062.52349   1655928.25448                  20915850.6534
        49.2504         41.2504
 04  7  7 21 14 45.0000000  0  5G 1G11G16G20G25
  22040295.0324   -8008774.16449  -6233407.94147                  22040294.4024
        47.2504         34.7504
  21642285.6324    2587971.02349   2015029.61347                  21642283.5334
        51.7504         36.7504
  24443841.9404    -826283.01649   -639229.39146                  24443842.1574
        38.5004         20.0004
  21770021.4804  -10520147.79349  -8189987.93447                  21770019.6354
        50.0004         36.2504
  20920655.8774    2151302.56349   1675595.81648                  20920653.7704
        50.5004         41.0004
 04  7  7 21 15  0.0000000  0  5G 1G11G16G20G25
  22036663.1054   -8027861.55549  -6248281.22347                  22036661.6804
        46.5004         35.0004
  21647478.3274    2615258.99649   2036292.95747                  21647475.9134
        50.5004         36.5004
  24436568.1424    -864504.96149   -669012.66846                  24436569.0414
        37.2504         19.2504
  21764138.1464  -10551063.19949  -8214077.85547                  21764136.5254
        50.0004         36.2504
  20925478.2544    2176644.97349   1695343.15248                  20925476.0894
        50.0004         41.2504
 04  7  7 21 15 15.0000000  0  5G 1G11G16G20G25
  22033038.9414   -8046908.26649  -6263122.79747                  22033037.3184
        46.5004         35.0004
  21652691.5854    2642655.79349   2057641.09447                  21652689.2114
        50.5004         36.7504
  24429292.4184    -902741.03549   -698806.98446                  24429292.7064
        38.7504         20.5004
  21758262.7534  -10581937.71949  -8238135.91847                  21758261.0554
        50.5004         35.7504
  20930320.5404    2202091.55549   1715171.66048                  20930318.4744
        50.5004         41.0004
 04  7  7 21 15 30.0000000  0  5G 1G11G16G20G25
  22029422.4244   -8065913.18049  -6277931.81247                  22029420.9304
        47.7504         35.5004
  21657925.9264    2670162.31349   2079074.73447                  21657923.6584
        50.5004         36.2504
  24422014.0204    -940989.80949   -728611.18046                  24422012.8724
        41.0004         20.0004
  21752395.8824  -10612769.92649  -8262161.00047                  21752393.8064
        50.0004         36.5004
  20935182.9344    2227643.12549   1735081.96948                  20935180.7854
        50.0004         40.5004
 04  7  7 21 15 45.0000000  0  5G 1G11G16G20G25
  22025813.2634   -8084877.82049  -6292709.44147                  22025811.8604
        47.5004         35.2504
  21663180.7604    2697776.81649   2100592.50447                  21663178.6594
        50.0004         36.2504
  24414733.1864    -979252.38349   -758426.14146                  24414732.2244
        39.5004         21.7504
  21746536.4584  -10643560.97749  -8286154.01647                  21746534.7114
        49.2504         36.2504
  20940065.0784    2253298.10249   1755072.85548                  20940062.9484
        50.2504         41.0004
 04  7  7 21 16  0.0000000  0  5G 1G11G16G20G25
  22022212.0584   -8103802.90249  -6307456.23847                  22022210.5564
        48.5004         35.0004
  21668456.2374    2725498.45749   2122193.77047                  21668453.8024
        50.0004         36.2504
  24407449.1474   -1017528.97849   -788251.96946                  24407449.2444
        38.5004         20.5004
  21740684.9444  -10674311.34049  -8310115.32047                  21740682.9704
        50.0004         36.0004
  20944966.1844    2279055.60549   1775143.64148                  20944964.4194
        51.5004         41.5004
 04  7  7 21 16 15.0000000  0  5G 1G11G16G20G25
  22018618.2094   -8122687.21149  -6322171.27047                  22018616.8164
        48.7504         35.0004
  21673751.8624    2753328.27749   2143879.32847                  21673749.8324
        49.5004         36.0004
  24400162.0434   -1055817.86349   -818087.45746                  24400163.7584
        38.2504         22.2504
  21734841.2044  -10705019.52049  -8334043.76247                  21734839.3294
        49.7504         36.0004
  20949887.6074    2304916.53949   1795295.01648                  20949885.1944
        51.5004         41.2504
 04  7  7 21 16 30.0000000  0  5G 1G11G16G20G25
  22015032.3964   -8141531.21549  -6336854.90647                  22015031.6764
        49.2504         35.2504
  21679068.1884    2781265.61749   2165648.68047                  21679066.1104
        50.7504         35.5004
  24392874.5934   -1094119.36349   -847932.71146                  24392874.7764
        40.7504         22.5004
  21729005.8354  -10735685.73449  -8357939.50047                  21729003.7524
        49.5004         36.7504
  20954828.2904    2330880.30549   1815526.52048                  20954826.0404
        51.0004         41.5004
 04  7  7 21 16 45.0000000  0  5G 1G11G16G20G25
  22011453.8774   -8160336.03149  -6351507.98847                  22011452.8604
        48.7504         35.7504
  21684404.9304    2809309.19949   2187500.80147                  21684402.7754
        50.7504         35.7504
  24385583.8624   -1132434.08249   -877788.28946                  24385583.2704
        40.2504         22.2504
  21723177.9604  -10766310.77349  -8381803.15247                  21723176.3214
        49.5004         36.5004
  20959788.3754    2356945.56649   1835837.11748                  20959785.9734
        51.5004         41.5004
 04  7  7 21 17  0.0000000  0  5G 1G11G16G20G25
  22007883.7104   -8179099.97349  -6366129.22747                  22007882.3414
        49.2504         35.2504
  21689761.8844    2837460.29749   2209436.71147                  21689759.6654
        50.7504         36.0004
  24378289.8204   -1170760.05149   -907652.62546                  24378289.9014
        40.5004         20.5004
  21717358.8594  -10796892.70749  -8405633.21547                  21717356.7474
        50.0004         37.5004
  20964767.8604    2383113.94149   1856228.05548                  20964765.8904
        52.0004         41.0004
 04  7  7 21 17 15.0000000  0  5G 1G11G16G20G25
  22004320.3854   -8197824.20749  -6380719.52047                  22004319.2404
        49.2504         36.0004
  21695138.9864    2865717.68449   2231455.43847                  21695136.9134
        50.2504         36.2504
  24370994.1094   -1209097.89149   -937526.20346                  24370994.5244
        39.5004         20.5004
  21711546.9284  -10827432.39849  -8429430.36347                  21711544.7874
        49.5004         37.0004
  20969766.9374    2409384.01649   1876698.24248                  20969764.5644
        52.0004         41.2504
 04  7  7 21 17 30.0000000  0  5G 1G11G16G20G25
  22000764.2664   -8216509.78549  -6395279.69947                  22000763.0584
        49.0004         36.0004
  21700536.2564    2894080.09449   2253556.00047                  21700533.8524
        50.2504         36.0004
  24363696.6354   -1247448.30149   -967409.62946                  24363696.5054
        38.5004         21.7504
  21705742.6954  -10857930.56649  -8453195.15647                  21705741.1394
        49.7504         36.2504
  20974785.3074    2435754.47749   1897246.65648                  20974782.9364
        52.0004         40.5004
 04  7  7 21 17 45.0000000  0  5G 1G11G16G20G25
  21997215.8034   -8235157.59449  -6409810.44147                  21997214.6524
        49.0004         35.0004
  21705953.1424    2922546.57449   2275737.65647                  21705951.0864
        50.0004         36.0004
  24356396.5324   -1285811.78149   -997303.22746                  24356396.8434
        38.5004         21.0004
  21699947.2114  -10888387.81249  -8476928.06247                  21699945.5984
        49.2504         36.7504
  20979822.2244    2462224.29349   1917872.48048                  20979820.0154
        51.2504         41.2504
 04  7  7 21 18  0.0000000  0  5G 1G11G16G20G25
  21993674.1314   -8253767.94949  -6424312.00047                  21993673.2514
        48.2504         35.5004
  21711389.9444    2951116.48049   2297999.91447                  21711387.7394
        48.7504         36.0004
  24349093.5364   -1324188.28949  -1027206.93446                  24349093.2584
        40.5004         21.5004
  21694159.4854  -10918804.19549  -8500629.12147                  21694157.3094
        49.5004         36.7504
  20984878.2964    2488792.91049   1938575.30148                  20984876.1674
        51.0004         41.0004
 04  7  7 21 18 15.0000000  0  5G 1G11G16G20G25
  21990140.3764   -8272338.91849  -6438782.86747                  21990139.5264
        47.7504         35.5004
  21716846.5724    2979791.53949   2320344.09847                  21716844.7084
        49.0004         35.5004
  24341789.2514   -1362575.47349  -1057118.96546                  24341788.1444
        40.2504         22.5004
  21688379.5674  -10949177.50049  -8524296.61747                  21688377.5684
        49.2504         36.7504
  20989952.9604    2515462.22349   1959356.57448                  20989951.0824
        51.0004         41.0004
 04  7  7 21 18 30.0000000  0  5G 1G11G16G20G25
  21986613.6974   -8290869.55549  -6453222.30947                  21986613.2514
        48.2504         35.5004
  21722323.3294    3008572.52349   2342770.81647                  21722321.7174
        48.7504         36.0004
  24334480.9494   -1400971.86749  -1087038.18046                  24334481.9644
        41.2504         21.0004
  21682608.2804  -10979506.47349  -8547929.57847                  21682606.0634
        48.5004         37.0004
  20995047.4884    2542232.92249   1980216.85948                  20995045.1864
        51.2504         41.2504
 04  7  7 21 18 45.0000000  0  5G 1G11G16G20G25
  21983095.9854   -8309359.25449  -6467629.85247                  21983094.4844
        47.7504         35.0004
  21727820.5694    3037459.80149   2365280.37147                  21727818.7924
        48.5004         36.0004
  24327173.2324   -1439376.68049  -1116963.95346                  24327174.0914
        37.5004         21.7504
  21676845.4744  -11009790.21549  -8571527.28147                  21676843.0444
        48.5004         36.7504
  21000161.1074    2569105.37549   2001156.43048                  21000158.7654
        50.5004         41.0004
 04  7  7 21 19  0.0000000  0  5G 1G11G16G20G25
  21979584.3344   -8327808.82849  -6482006.13347                  21979583.7714
        47.2504         35.5004
  21733337.6824    3066452.37549   2387871.96947                  21733335.5004
        48.5004         35.7504
  24319863.9524   -1477790.07049  -1146896.44546                  24319863.8474
        40.0004         21.0004
  21671090.8344  -11040029.13749  -8595090.06647                  21671088.6134
        47.7504         36.5004
  21005293.6854    2596078.75049   2022174.64548                  21005291.8594
        50.5004         41.0004
 04  7  7 21 19 15.0000000  0  5G 1G11G16G20G25
  21976081.7844   -8346217.01249  -6496350.15247                  21976080.8064
        47.5004         35.2504
  21738875.1554    3095551.39849   2410546.51647                  21738873.0524
        48.0004         36.2504
  24312553.3104   -1516210.36349  -1176834.31646                  24312551.7504
        41.2504         21.0004
  21665345.4194  -11070221.75049  -8618616.77347                  21665343.4734
        47.2504         36.0004
  21010446.2694    2623154.05949   2043272.27748                  21010444.1274
        51.0004         41.0004
 04  7  7 21 19 30.0000000  0  5G 1G11G16G20G25
  21972586.7534   -8364582.81249  -6510661.15247                  21972585.9624
        46.5004         35.7504
  21744432.8144    3124757.55149   2433304.53547                  21744430.9854
        47.2504         36.2504
  24305239.9184   -1554636.32849  -1206776.60246                  24305239.6444
        41.0004         21.2504
  21659609.0924  -11100366.82449  -8642106.42247                  21659606.9934
        47.0004         36.2504
  21015618.3024    2650331.96549   2064449.85948                  21015615.8864
        50.5004         41.0004
 04  7  7 21 19 45.0000000  0  5G 1G11G16G20G25
  21969099.2854   -8382906.66849  -6524939.46547                  21969098.9224
        46.0004         35.5004
  21750010.7774    3154070.27349   2456145.59447                  21750008.5754
        47.7504         36.0004
  24297926.7114   -1593067.94549  -1236723.26646                  24297926.6834
        40.2504         21.0004
  21653881.5824  -11130464.47349  -8665559.12147                  21653879.3154
        47.0004         36.5004
  21020809.2754    2677611.89549   2085706.94148                  21020807.0804
        50.2504         41.0004
 04  7  7 21 20  0.0000000  0  5G 1G11G16G20G25
  21965620.8944   -8401188.60549  -6539185.11347                  21965620.3604
        46.0004         35.5004
  21755608.8014    3183489.25449   2479069.46147                  21755606.7824
        48.5004         36.0004
  24290612.4394   -1631504.82449  -1266674.02046                  24290612.1874
        41.0004         21.0004
  21648163.4994  -11160514.30149  -8688974.56247                  21648161.5014
        47.5004         36.7504
  21026019.7054    2704993.70349   2107043.42648                  21026017.7614
        49.7504         41.2504
 04  7  7 21 20 15.0000000  0  5G 1G11G16G20G25
  21962149.8114   -8419428.75449  -6553398.20347                  21962149.1054
        46.5004         35.7504
  21761227.4764    3213014.28149   2502075.95747                  21761225.7524
        48.2504         35.7504
  24283298.1314   -1669946.62149  -1296628.65646                  24283297.1314
        41.5004         21.2504
  21642454.1934  -11190516.21149  -8712352.66447                  21642452.0034
        47.5004         36.2504
  21031249.5344    2732477.02349   2128458.98048                  21031247.2664
        49.7504         41.2504
 04  7  7 21 20 30.0000000  0  5G 1G11G16G20G25
  21958687.2044   -8437626.25049  -6567578.06247                  21958686.2114
        48.0004         35.7504
  21766866.0944    3242645.84449   2525165.47747                  21766864.1654
        48.7504         36.0004
  24275981.6764   -1708392.15649  -1326586.15246                  24275981.7254
        43.0004         22.2504
  21636754.3234  -11220469.13349  -8735692.60247                  21636752.3464
        48.0004         36.2504
  21036499.0314    2760062.53949   2149954.18848                  21036496.7784
        51.0004         40.5004
 04  7  7 21 20 45.0000000  0  5G 1G11G16G20G25
  21955232.7754   -8455778.58649  -6581722.72347                  21955232.1154
        46.5004         35.2504
  21772525.8074    3272386.38749   2548339.91047                  21772523.4834
        48.5004         35.2504
  24268665.1954   -1746838.40249  -1356544.23446                  24268665.0984
        42.5004         22.2504
  21631064.3024  -11250370.19949  -8758992.10547                  21631062.1834
        47.7504         36.5004
  21041767.8864    2787752.44549   2171530.73848                  21041765.7094
        50.5004         40.5004
 04  7  7 21 21  0.0000000  0  5G 1G11G16G20G25
  21951786.4974   -8473888.09449  -6595834.02047                  21951785.8274
        47.2504         35.5004
  21778205.1834    3302233.20749   2571597.15647                  21778203.2174
        49.0004         35.7504
  24261349.2014   -1785287.36349  -1386504.44946                  24261348.8354
        42.2504         21.0004
  21625383.9114  -11280221.46149  -8782252.82847                  21625381.4204
        48.5004         37.0004
  21047056.5944    2815544.24649   2193186.67648                  21047054.5264
        51.0004         40.5004
 04  7  7 21 21 15.0000000  0  5G 1G11G16G20G25
  21948348.3924   -8491955.11749  -6609912.20347                  21948347.4534
        47.7504         35.5004
  21783905.1894    3332185.78149   2594936.80547                  21783903.0254
        49.5004         36.0004
  24254031.8354   -1823739.00049  -1416466.73046                  24254031.2884
        41.7504         21.5004
  21619712.9354  -11310022.95749  -8805474.77047                  21619710.5494
        48.7504         36.5004
  21052364.8964    2843437.44149   2214921.63348                  21052362.4174
        51.2504         41.0004
 04  7  7 21 21 30.0000000  0  5G 1G11G16G20G25
  21944918.1374   -8509980.37149  -6623957.84447                  21944917.5234
        48.2504         35.0004
  21789624.9354    3362243.21949   2618358.16447                  21789622.7324
        49.5004         36.0004
  24246714.0614   -1862193.56249  -1446431.27046                  24246713.6714
        41.5004         21.0004
  21614051.0394  -11339775.12949  -8828658.26647                  21614048.5724
        48.7504         36.7504
  21057691.6084    2871431.16449   2236734.93048                  21057689.6674
        51.2504         41.2504
 04  7  7 21 21 45.0000000  0  5G 1G11G16G20G25
  21941496.3754   -8527961.52049  -6637969.12147                  21941495.5694
        47.5004         35.5004
  21795364.9934    3392407.60249   2641862.86347                  21795363.1674
        50.2504         35.7504
  24239395.7704   -1900648.38349  -1476396.03546                  24239395.8814
        41.0004         20.0004
  21608399.5244  -11369475.28949  -8851801.24647                  21608396.9234
        49.2504         36.0004
  21063038.1404    2899527.43449   2258628.10948                  21063035.7974
        50.7504         41.2504
 04  7  7 21 22  0.0000000  0  5G 1G11G16G20G25
  21938083.4664   -8545898.71549  -6651946.13747                  21938082.5514
        48.7504         35.5004
  21801125.3164    3422678.63749   2665450.66447                  21801123.2954
        49.5004         35.7504
  24232078.2304   -1939103.20349  -1506360.79346                  24232078.0264
        40.5004         20.0004
  21602757.7214  -11399123.32049  -8874903.59847                  21602755.0854
        50.0004         37.0004
  21068404.2734    2927726.05149   2280601.05948                  21068402.2204
        50.7504         41.0004
 04  7  7 21 22 15.0000000  0  5G 1G11G16G20G25
  21934678.0174   -8563793.73849  -6665890.29747                  21934677.2024
        48.2504         35.7504
  21806905.7894    3453054.19949   2689119.91447                  21806903.7614
        50.0004         36.0004
  24224760.3314   -1977559.40649  -1536326.65246                  24224759.9054
        42.5004         20.0004
  21597125.4604  -11428720.79349  -8897966.55147                  21597123.2244
        50.5004         37.0004
  21073789.8104    2956025.03549   2302652.20748                  21073787.7564
        52.0004         41.0004
 04  7  7 21 22 30.0000000  0  5G 1G11G16G20G25
  21931280.4854   -8581647.77749  -6679802.52047                  21931279.4774
        48.7504         36.0004
  21812705.6194    3483532.93049   2712869.55547                  21812703.5044
        50.7504         36.5004
  24217441.7444   -2016017.59049  -1566294.04746                  24217441.1304
        42.2504         20.5004
  21591502.5434  -11458268.53949  -8920990.75847                  21591500.2554
        50.2504         37.0004
  21079193.3904    2984422.93049   2324780.43848                  21079191.5244
        51.5004         41.0004
 04  7  7 21 22 45.0000000  0  5G 1G11G16G20G25
  21927890.9874   -8599460.11349  -6693682.24647                  21927889.7334
        49.0004         35.0004
  21818525.2004    3514115.26649   2736699.93047                  21818523.4694
        50.0004         36.0004
  24210123.2944   -2054476.77049  -1596262.23846                  24210123.2714
        42.2504         20.0004
  21585889.5774  -11487765.52049  -8943975.41447                  21585887.6264
        49.5004         37.0004
  21084616.4084    3012920.29349   2346986.17248                  21084614.3364
        51.2504         40.5004
 04  7  7 21 23  0.0000000  0  5G 1G11G16G20G25
  21924509.8684   -8617229.37149  -6707528.41447                  21924508.4054
        49.5004         35.0004
  21824365.0234    3544802.48449   2760612.03547                  21824363.2984
        50.5004         36.2504
  24202805.4114   -2092935.09049  -1626229.68746                  24202804.8374
        43.5004         22.2504
  21580286.5774  -11517210.10949  -8966919.24647                  21580284.6954
        49.7504         36.7504
  21090058.2174    3041518.28149   2369270.30948                  21090056.1404
        51.2504         40.7504
 04  7  7 21 23 15.0000000  0  5G 1G11G16G20G25
  21921136.4924   -8634955.34449  -6721340.84847                  21921135.2194
        48.5004         35.5004
  21830224.3664    3575594.52049   2784605.81347                  21830222.6554
        48.5004         36.0004
  24195486.8944   -2131391.90249  -1656196.00046                  24195486.8864
        43.0004         21.7504
  21574693.1924  -11546601.75049  -8989821.80947                  21574691.4824
        49.0004         37.5004
  21095519.2544    3070216.81649   2391632.80148                  21095517.1904
        50.7504         40.7504
 04  7  7 21 23 30.0000000  0  5G 1G11G16G20G25
  21917771.3184   -8652637.89149  -6735119.43747                  21917770.0684
        49.2504         35.5004
  21836103.8354    3606491.37549   2808681.26247                  21836102.2484
        48.7504         36.2504
  24188169.6494   -2169846.81249  -1686160.80946                  24188169.7084
        42.0004         22.0004
  21569110.1964  -11575940.03549  -9012682.80547                  21569108.3644
        48.7504         37.5004
  21100999.4664    3099015.86349   2414073.60948                  21100997.6034
        51.0004         40.5004
 04  7  7 21 23 45.0000000  0  5G 1G11G16G20G25
  21914415.0674   -8670275.94549  -6748863.36347                  21914413.8824
        49.2504         35.5004
  21842003.2814    3637493.82049   2832839.00447                  21842001.8424
        49.0004         36.2504
  24180852.7584   -2208298.35549  -1716123.03946                  24180852.2044
        44.2504         21.0004
  21563538.1034  -11605223.57449  -9035501.13347                  21563535.8644
        48.5004         37.2504
  21106499.3584    3127916.21149   2436593.35948                  21106497.4094
        51.2504         41.5004
 04  7  7 21 24  0.0000000  0  5G 1G11G16G20G25
  21911067.4374   -8687868.09449  -6762571.52347                  21911066.6584
        49.2504         35.5004
  21847923.6664    3668603.16049   2857080.02047                  21847921.6434
        49.2504         36.2504
  24173536.4624   -2246744.60949  -1746081.17246                  24173536.4244
        44.2504         23.0004
  21557976.6984  -11634450.64549  -9058275.47347                  21557974.3654
        49.0004         38.0004
  21112018.2794    3156919.07849   2459192.99648                  21112016.3534
        51.5004         41.0004
 04  7  7 21 24 15.0000000  0  5G 1G11G16G20G25
  21907728.5044   -8705414.02049  -6776243.66047                  21907727.7164
        48.7504         36.0004
  21853863.4554    3699819.44549   2881404.37947                  21853861.7204
        48.0004         36.0004
  24166221.7894   -2285184.73849  -1776034.45746                  24166221.1554
        44.7504         22.5004
  21552425.4274  -11663620.55549  -9081005.26647                  21552423.4464
        48.2504         38.0004
  21117556.7994    3186024.86749   2481872.82448                  21117554.7644
        51.2504         40.5004
 04  7  7 21 24 30.0000000  0  5G 1G11G16G20G25
  21904398.5694   -8722912.23849  -6789878.62947                  21904397.5454
        49.2504         35.5004
  21859824.6924    3731143.93849   2905813.05947                  21859822.9234
        48.5004         36.2504
  24158908.6694   -2323616.92249  -1805981.57846                  24158907.4734
        44.2504         22.5004
  21546885.7064  -11692731.57049  -9103689.16047                  21546883.4734
        49.0004         38.2504
  21123115.3254    3215234.69149   2504633.72348                  21123113.5084
        50.5004         40.5004
 04  7  7 21 24 45.0000000  0  5G 1G11G16G20G25
  21901078.2814   -8740362.65649  -6803476.34447                  21901077.4134
        48.7504         35.5004
  21865806.0294    3762576.45349   2930305.91447                  21865804.1664
        48.2504         36.0004
  24151596.4944   -2362040.70749  -1835922.11746                  24151595.6424
        44.7504         23.0004
  21541357.3504  -11721783.35949  -9126326.91447                  21541355.3744
        48.2504         37.5004
  21128693.6604    3244548.53949   2527475.66848                  21128691.7334
        51.0004         40.5004
 04  7  7 21 25  0.0000000  0  5G 1G11G16G20G25
  21897766.5044   -8757765.35549  -6817036.87547                  21897765.6224
        49.0004         35.5004
  21871807.7794    3794116.64849   2954882.66447                  21871805.6084
        47.7504         36.0004
  24144286.1384   -2400455.73449  -1865855.87546                  24144285.7214
        43.7504         22.2504
  21535840.4644  -11750775.64149  -9148918.28547                  21535838.4204
        48.0004         37.5004
  21134291.6634    3273965.99649   2550398.36348                  21134289.4864
        51.0004         41.0004
 04  7  7 21 25 15.0000000  0  5G 1G11G16G20G25
  21894464.1234   -8775118.97349  -6830559.16447                  21894462.9224
        49.2504         35.5004
  21877830.7094    3825765.63749   2979544.19947                  21877828.7534
        48.5004         36.0004
  24136977.7814   -2438860.12949  -1895781.35246                  24136977.1424
        44.5004         24.0004
  21530334.8584  -11779706.73849  -9171461.99247                  21530332.7464
        48.5004         38.0004
  21139909.7434    3303488.30149   2573402.75848                  21139907.2954
        50.7504         40.5004
 04  7  7 21 25 30.0000000  0  5G 1G11G16G20G25
  21891171.1894   -8792423.14549  -6844042.92647                  21891170.2984
        49.5004         36.2504
  21883873.5624    3857523.73449   3004290.74247                  21883871.4404
        48.5004         36.0004
  24129671.9914   -2477253.16449  -1925697.93446                  24129671.6694
        44.0004         23.0004
  21524841.4344  -11808576.01649  -9193957.52347                  21524839.2354
        48.5004         37.7504
  21145547.3094    3333115.61749   2596488.96948                  21145545.3314
        51.7504         40.7504
 04  7  7 21 25 45.0000000  0  5G 1G11G16G20G25
  21887888.0494   -8809677.52749  -6857487.88747                  21887886.9654
        49.5004         35.5004
  21889938.0404    3889390.96149   3029122.34447                  21889935.9784
        49.0004         35.7504
  24122368.3874   -2515634.06249  -1955605.10546                  24122367.3064
        43.7504         22.5004
  21519359.3644  -11837382.84849  -9216404.38747                  21519357.2264
        48.7504         38.0004
  21151205.2864    3362848.07449   2619657.11748                  21151203.3424
        51.5004         40.0004
 04  7  7 21 26  0.0000000  0  5G 1G11G16G20G25
  21884613.8284   -8826882.66449  -6870894.47347                  21884613.0014
        49.5004         36.2504
  21896023.1324    3921366.48849   3054038.31647                  21896020.4664
        47.5004         35.0004
  24115067.2954   -2554003.00849  -1985502.92646                  24115066.1684
        44.2504         22.5004
  21513889.9174  -11866127.48049  -9238802.80147                  21513887.3704
        48.5004         38.5004
  21156883.1674    3392684.84049   2642906.53948                  21156881.0724
        50.7504         40.0004
 04  7  7 21 26 15.0000000  0  5G 1G11G16G20G25
  21881349.0314   -8844039.30549  -6884263.27047                  21881348.2884
        49.5004         36.7504
  21902128.0074    3953449.41449   3079037.97747                  21902126.0554
        48.0004         35.2504
  24107767.5864   -2592360.35549  -2015391.71546                  24107766.6354
        42.7504         22.5004
  21508431.3994  -11894810.30549  -9261153.03947                  21508429.2824
        48.7504         37.5004
  21162580.6924    3422624.96149   2666236.49648                  21162578.4964
        50.7504         40.5004
 04  7  7 21 26 30.0000000  0  5G 1G11G16G20G25
  21878093.5054   -8861147.09449  -6897593.99247                  21878092.6864
        49.5004         37.0004
  21908253.4734    3985639.78149   3104121.36347                  21908251.5974
        48.7504         35.5004
  24100470.2874   -2630705.29349  -2045270.89146                  24100470.0164
        42.2504         21.7504
  21502985.3174  -11923430.67249  -9283454.61747                  21502983.1824
        49.2504         37.5004
  21168297.8294    3452668.55549   2689647.07848                  21168295.6164
        51.7504         40.5004
 04  7  7 21 26 45.0000000  0  5G 1G11G16G20G25
  21874847.2514   -8878206.10249  -6910886.71547                  21874846.5264
        50.0004         36.5004
  21914399.9574    4017937.38349   3129288.30147                  21914397.4784
        49.0004         36.0004
  24093175.5684   -2669037.52349  -2075140.12546                  24093175.3964
        41.5004         21.5004
  21497550.8354  -11951988.33649  -9305707.33647                  21497548.7794
        49.0004         38.2504
  21174034.4664    3482815.43849   2713138.14548                  21174032.2214
        51.2504         40.5004
 04  7  7 21 27  0.0000000  0  5G 1G11G16G20G25
  21871610.2314   -8895215.64549  -6924140.88347                  21871609.4074
        49.5004         36.2504
  21920566.2374    4050342.56349   3154539.06647                  21920564.0384
        48.7504         35.7504
  24085883.9454   -2707355.93449  -2104998.57446                  24085882.9874
        41.7504         21.0004
  21492128.7154  -11980482.28549  -9327910.40247                  21492126.3624
        50.0004         38.2504
  21179790.7734    3513065.96949   2736709.98448                  21179788.6484
        51.2504         39.7504
 04  7  7 21 27 15.0000000  0  5G 1G11G16G20G25
  21868382.3984   -8912177.29349  -6937357.74647                  21868381.7924
        49.5004         36.2504
  21926753.0074    4082853.52349   3179872.27047                  21926750.5354
        48.5004         35.2504
  24078594.9324   -2745661.66049  -2134847.14546                  24078594.7314
        41.0004         20.5004
  21486718.3564  -12008913.84449  -9350064.85547                  21486716.0374
        49.0004         38.2504
  21185567.0184    3543418.48849   2760361.28548                  21185564.7474
        50.2504         40.5004
 04  7  7 21 27 30.0000000  0  5G 1G11G16G20G25
  21865163.7644   -8929091.51249  -6950537.63347                  21865163.0814
        49.7504         36.7504
  21932959.6704    4115469.62149   3205287.38747                  21932957.2454
        49.0004         35.5004
  24071307.5374   -2783954.65649  -2164685.80546                  24071307.4924
        41.0004         20.5004
  21481319.6004  -12037283.25049  -9372170.87147                  21481317.3264
        50.2504         37.7504
  21191362.0014    3573872.30149   2784091.52348                  21191360.1574
        50.5004         40.2504
 04  7  7 21 27 45.0000000  0  5G 1G11G16G20G25
  21861954.2554   -8945958.52349  -6963680.74247                  21861953.4154
        50.0004         35.5004
  21939185.9364    4148190.30549   3230784.00447                  21939183.9514
        49.5004         35.2504
  24064022.5274   -2822234.92649  -2194514.53946                  24064023.6534
        41.0004         23.2504
  21475933.3394  -12065590.39849  -9394228.38347                  21475930.7644
        49.5004         38.2504
  21197176.2634    3604426.99249   2807900.35948                  21197174.3744
        50.5004         40.0004
 04  7  7 21 28  0.0000000  0  5G 1G11G16G20G25
  21858753.6214   -8962778.62149  -6976787.29747                  21858752.2674
        49.5004         36.5004
  21945432.3414    4181015.09449   3256361.73447                  21945430.4264
        49.5004         35.5004
  24056741.2914   -2860502.16449  -2224333.15246                  24056741.3244
        40.5004         23.0004
  21470558.2314  -12093835.14149  -9416237.25847                  21470555.7534
        50.0004         38.0004
  21203009.9674    3635082.00049   2831787.38348                  21203007.5204
        50.2504         40.5004
 04  7  7 21 28 15.0000000  0  5G 1G11G16G20G25
  21855561.3414   -8979552.96549  -6989858.20347                  21855560.7194
        49.0004         36.0004
  21951698.5204    4213942.73049   3282019.61347                  21951696.2414
        50.0004         35.7504
  24049460.7794   -2898757.18049  -2254142.20346                  24049461.8914
        39.5004         22.5004
  21465195.2454  -12122018.25849  -9438198.12147                  21465192.9924
        50.0004         38.5004
  21208861.7564    3665836.01649   2855751.53948                  21208859.5984
        51.0004         40.2504
 04  7  7 21 28 30.0000000  0  5G 1G11G16G20G25
  21852378.0164   -8996282.60949  -7002894.27747                  21852377.0734
        49.5004         36.5004
  21957983.4794    4246971.80549   3307756.53947                  21957981.6364
        49.5004         35.5004
  24042183.5454   -2937000.53949  -2283942.14846                  24042183.6204
        40.5004         22.2504
  21459843.9924  -12150140.70349  -9460111.69947                  21459841.5954
        50.7504         39.0004
  21214732.8894    3696687.79749   2879791.88748                  21214730.6684
        50.2504         40.0004
 04  7  7 21 28 45.0000000  0  5G 1G11G16G20G25
  21849202.6424   -9012967.96149  -7015895.84047                  21849201.7144
        49.0004         36.0004
  21964288.1494    4280101.67249   3333571.99647                  21964286.0854
        49.7504         34.7504
  24034908.3794   -2975232.28949  -2313733.08646                  24034908.9124
        41.5004         23.0004
  21454503.5674  -12178202.56249  -9481978.07447                  21454501.6074
        49.5004         38.5004
  21220622.3654    3727636.68849   2903907.89548                  21220620.2364
        50.2504         40.5004
 04  7  7 21 29  0.0000000  0  5G 1G11G16G20G25
  21846035.7314   -9029610.28949  -7028863.87547                  21846034.6324
        50.0004         36.5004
  21970611.3464    4313330.78149   3359464.78547                  21970609.0014
        50.0004         35.5004
  24027635.1014   -3013453.33249  -2343515.66846                  24027635.4764
        41.7504         22.5004
  21449174.4674  -12206204.80949  -9503798.00047                  21449172.8444
        50.2504         38.2504
  21226530.0544    3758681.11749   2928098.35248                  21226527.6674
        50.7504         40.5004
 04  7  7 21 29 15.0000000  0  5G 1G11G16G20G25
  21842877.1064   -9046209.79749  -7041798.53947                  21842875.7674
        49.5004         36.5004
  21976953.5574    4346658.69949   3385434.55947                  21976951.2334
        50.2504         35.5004
  24020364.3734   -3051663.35549  -2373289.68746                  24020364.5284
        41.7504         23.0004
  21443857.5934  -12234147.22349  -9525571.29747                  21443855.2544
        49.0004         38.5004
  21232455.7104    3789820.69149   2952362.94548                  21232453.4114
        50.0004         40.2504
 04  7  7 21 29 30.0000000  0  5G 1G11G16G20G25
  21839726.7054   -9062765.23849  -7054698.87147                  21839725.4824
        50.2504         36.5004
  21983314.4734    4380086.34849   3411482.05947                  21983312.4784
        49.5004         35.5004
  24013095.4084   -3089860.67249  -2403053.77346                  24013095.5714
        42.0004         22.2504
  21438552.0414  -12262028.34449  -9547296.83247                  21438549.8844
        48.7504         38.5004
  21238399.5904    3821056.48849   2976702.52348                  21238397.4614
        49.2504         40.5004
 04  7  7 21 29 45.0000000  0  5G 1G11G16G20G25
  21836584.3624   -9079277.27349  -7067565.37547                  21836583.6504
        49.5004         36.7504
  21989694.2684    4413613.01249   3437606.71547                  21989692.1864
        49.7504         34.7504
  24005829.3254   -3128045.64849  -2432808.27346                  24005829.2254
        41.5004         23.0004
  21433257.9894  -12289848.55949  -9568974.90647                  21433255.5984
        49.7504         38.5004
  21244361.4254    3852387.66849   3001116.42648                  21244359.8054
        50.0004         39.7504
 04  7  7 21 30  0.0000000  0  5G 1G11G16G20G25
  21833450.4334   -9095746.97749  -7080398.89847                  21833449.5814
        50.0004         36.5004
  21996092.7754    4447237.09049   3463807.27747                  21996091.2374
        49.0004         35.5004
  23998564.8584   -3166218.81649  -2462553.57046                  23998565.1004
        41.0004         22.2504
  21427975.4184  -12317608.50449  -9590606.02347                  21427972.9734
        48.5004         38.2504
  21250341.6964    3883812.90649   3025603.60948                  21250339.6124
        48.7504         40.0004
 04  7  7 21 30 15.0000000  0  5G 1G11G16G20G25
  21830324.2474   -9112174.30949  -7093199.39847                  21830323.5744
        50.0004         36.0004
  22002509.8494    4480958.85249   3490083.95347                  22002508.0694
        50.7504         35.0004
  23991302.8104   -3204379.74249  -2492289.32846                  23991302.6404
        40.0004         21.5004
  21422704.3964  -12345307.82049  -9612189.89547                  21422702.1674
        48.0004         38.0004
  21256339.5724    3915332.11749   3050164.02748                  21256337.3584
        49.0004         40.2504
 04  7  7 21 30 30.0000000  0  5G 1G11G16G20G25
  21827206.7974   -9128558.18749  -7105966.05147                  21827205.7224
        49.0004         36.0004
  22008945.7364    4514778.89149   3516437.20347                  22008943.7054
        50.2504         34.5004
  23984043.6424   -3242526.96549  -2522014.38746                  23984043.6464
        40.7504         21.7504
  21417445.3894  -12372945.16049  -9633725.48447                  21417443.0824
        47.5004         37.7504
  21262355.8094    3946946.07449   3074798.27048                  21262353.9654
        49.0004         40.2504
 04  7  7 21 30 45.0000000  0  5G 1G11G16G20G25
  21824096.9194   -9144899.94149  -7118699.86747                  21824095.9954
        50.0004         36.5004
  22015400.2074    4548695.59049   3542865.78147                  22015398.0394
        50.0004         35.0004
  23976786.8084   -3280661.45349  -2551729.50446                  23976786.9164
        42.2504         22.7504
  21412197.5284  -12400521.62949  -9655213.62147                  21412195.3014
        48.0004         38.0004
  21268389.3654    3978653.23449   3099505.14548                  21268387.6864
        49.5004         40.0004
 04  7  7 21 31  0.0000000  0  5G 1G11G16G20G25
  21820995.2174   -9161198.21549  -7131399.80947                  21820994.3284
        50.0004         36.5004
  22021872.4104    4582710.05149   3569370.53547                  22021870.6304
        50.0004         35.2504
  23969533.5324   -3318781.35249  -2581433.30146                  23969533.0544
        42.5004         22.7504
  21406961.5454  -12428035.55549  -9676653.03947                  21406959.5294
        48.7504         37.7504
  21274440.6354    4010454.76249   3124285.54348                  21274438.7224
        49.7504         40.0004
 04  7  7 21 31 15.0000000  0  5G 1G11G16G20G25
  21817901.9924   -9177454.54749  -7144067.07847                  21817900.7814
        49.5004         37.2504
  22028363.8794    4616820.60549   3595950.16447                  22028361.7644
        50.2504         35.0004
  23962282.3084   -3356887.75049  -2611126.55146                  23962281.1164
        43.5004         22.5004
  21401737.5374  -12455488.12149  -9698044.64147                  21401735.4164
        48.0004         38.0004
  21280510.5284    4042348.82449   3149138.04748                  21280508.5064
        49.5004         40.0004
 04  7  7 21 31 30.0000000  0  5G 1G11G16G20G25
  21814816.1604   -9193669.14149  -7156701.81647                  21814815.5284
        49.7504         36.5004
  22034872.9084    4651026.75849   3622604.28547                  22034871.1984
        50.2504         35.0004
  23955033.0014   -3394980.47749  -2640809.16846                  23955032.7774
        43.0004         24.5004
  21396525.3124  -12482879.22749  -9719388.34847                  21396523.2394
        48.0004         38.5004
  21286597.1544    4074335.13349   3174062.44148                  21286594.7984
        48.7504         39.5004
 04  7  7 21 31 45.0000000  0  5G 1G11G16G20G25
  21811738.7114   -9209842.35549  -7169304.30547                  21811738.1054
        50.0004         37.0004
  22041400.2314    4685327.73849   3649332.29747                  22041398.3404
        49.7504         35.0004
  23947787.0704   -3433059.43749  -2670481.04346                  23947787.3664
        43.7504         23.5004
  21391324.7054  -12510208.91449  -9740684.20347                  21391322.2604
        48.5004         39.0004
  21292701.0444    4106412.99649   3199058.16848                  21292698.9434
        49.0004         40.0004
 04  7  7 21 32  0.0000000  0  5G 1G11G16G20G25
  21808668.8214   -9225973.75049  -7181874.21947                  21808667.7644
        49.0004         36.5004
  22047945.3724    4719723.70749   3676134.33247                  22047943.9124
        50.2504         35.5004
  23940543.2954   -3471123.76249  -2700141.50846                  23940543.2974
        44.0004         25.2504
  21386135.7444  -12537476.38749  -9761931.57447                  21386133.5684
        47.5004         38.0004
  21298823.2604    4138582.71549   3224125.47348                  21298820.4624
        49.5004         40.2504
 04  7  7 21 32 15.0000000  0  5G 1G11G16G20G25
  21805607.1684   -9242063.27049  -7194411.49647                  21805606.1444
        50.2504         36.5004
  22054508.8394    4754214.68449   3703010.40247                  22054507.2234
        50.0004         34.7504
  23933302.8094   -3509172.95749  -2729790.22346                  23933302.5004
        43.5004         24.7504
  21380959.1124  -12564681.28549  -9783130.19547                  21380956.5904
        47.5004         38.0004
  21304962.1274    4170844.07849   3249264.19948                  21304960.0064
        48.7504         41.0004
 04  7  7 21 32 30.0000000  0  5G 1G11G16G20G25
  21802553.6684   -9258111.02349  -7206916.22347                  21802552.5704
        50.5004         36.5004
  22061090.1614    4788800.30549   3729960.21547                  22061088.7834
        49.2504         35.0004
  23926065.0404   -3547206.75049  -2759426.89546                  23926064.3884
        43.5004         25.5004
  21375794.0574  -12591823.52749  -9804279.99647                  21375791.6644
        46.2504         38.7504
  21311118.5854    4203196.68849   3274474.02048                  21311116.5414
        47.5004         40.5004
 04  7  7 21 32 45.0000000  0  5G 1G11G16G20G25
  21799507.3514   -9274116.66049  -7219388.13347                  21799506.2014
        50.2504         37.0004
  22067689.7114    4823480.59049   3756983.80147                  22067687.9744
        49.5004         34.5004
  23918831.5344   -3585224.30549  -2789050.91446                  23918830.2634
        43.2504         24.0004
  21370641.0344  -12618902.48849  -9825380.48047                  21370638.8684
        47.2504         38.5004
  21317292.4144    4235640.77049   3299755.11748                  21317290.1204
        49.0004         40.0004
 04  7  7 21 33  0.0000000  0  5G 1G11G16G20G25
  21796470.0704   -9290079.72749  -7231826.87547                  21796468.8814
        50.0004         36.5004
  22074307.3804    4858255.82849   3784081.36747                  22074305.5984
        48.2504         34.7504
  23911599.9774   -3623224.74649  -2818661.62946                  23911598.5324
        43.7504         22.2504
  21365500.5104  -12645917.25849  -9846430.94147                  21365497.8794
        47.7504         38.2504
  21323483.5254    4268176.49649   3325107.62548                  21323481.5184
        48.7504         39.5004
 04  7  7 21 33 15.0000000  0  5G 1G11G16G20G25
  21793440.7624   -9305999.67649  -7244232.02047                  21793439.4214
        50.5004         37.0004
  22080942.5014    4893126.22749   3811253.09047                  22080941.0744
        49.5004         35.2504
  23904371.9474   -3661207.25049  -2848258.32046                  23904370.8664
        43.7504         24.7504
  21360371.5864  -12672866.98449  -9867430.71547                  21360369.4154
        47.5004         38.7504
  21329692.5704    4300804.33649   3350531.91448                  21329690.4454
        48.7504         39.7504
 04  7  7 21 33 30.0000000  0  5G 1G11G16G20G25
  21790418.9554   -9321876.38349  -7256603.46547                  21790417.9284
        50.0004         36.7504
  22087596.6444    4928091.77049   3838498.95347                  22087594.9264
        49.7504         35.7504
  23897147.6604   -3699171.19149  -2877840.58646                  23897146.5384
        43.0004         22.7504
  21355256.0854  -12699751.26249  -9888379.49647                  21355253.9134
        48.0004         38.2504
  21335918.6664    4333524.20749   3376027.91048                  21335916.9814
        49.2504         40.0004
 04  7  7 21 33 45.0000000  0  5G 1G11G16G20G25
  21787406.0654   -9337710.92649  -7268942.05947                  21787404.7264
        50.5004         36.2504
  22094267.9074    4963150.82849   3865817.67247                  22094266.8644
        50.2504         35.0004
  23889926.0284   -3737117.13349  -2907408.81246                  23889926.2454
        43.0004         23.0004
  21350152.2924  -12726570.85949  -9909277.87947                  21350150.1644
        47.5004         38.0004
  21342162.7784    4366334.71549   3401594.53948                  21342160.8704
        49.0004         39.7504
 04  7  7 21 34  0.0000000  0  5G 1G11G16G20G25
  21784401.1744   -9353502.17249  -7281246.91447                  21784399.7444
        50.2504         36.2504
  22100957.5164    4998304.57849   3893210.18447                  22100956.1704
        49.5004         35.2504
  23882709.3734   -3775043.59849  -2936961.85946                  23882708.6984
        43.7504         22.5004
  21345061.7454  -12753324.28149  -9930124.68447                  21345058.8444
        50.0004         38.2504
  21348423.5404    4399236.75049   3427232.48048                  21348421.8424
        50.0004         40.0004
 04  7  7 21 34 15.0000000  0  5G 1G11G16G20G25
  21781404.5414   -9369248.47349  -7293516.74247                  21781403.1984
        50.2504         36.7504
  22107665.5394    5033554.32049   3920677.50047                  22107663.9674
        49.7504         35.5004
  23875495.9274   -3812948.53949  -2966498.12946                  23875495.0234
        43.7504         23.7504
  21339983.3104  -12780009.67649  -9950918.49647                  21339981.0044
        48.7504         38.2504
  21354702.7774    4432231.85249   3452942.94148                  21354700.7124
        50.0004         40.2504
 04  7  7 21 34 30.0000000  0  5G 1G11G16G20G25
  21778417.1474   -9384948.37549  -7305750.41847                  21778415.7044
        50.2504         36.7504
  22114391.8364    5068901.20349   3948220.50847                  22114390.3414
        49.2504         35.2504
  23868287.2504   -3850830.02749  -2996016.11746                  23868286.5904
        44.0004         24.2504
  21334918.7154  -12806625.21549  -9971657.87147                  21334916.3504
        49.2504         38.7504
  21360999.2724    4465321.04749   3478726.73048                  21360997.2604
        49.7504         40.2504
 04  7  7 21 34 45.0000000  0  5G 1G11G16G20G25
  21775438.2364   -9400602.41049  -7317948.35947                  21775436.7164
        50.2504         36.5004
  22121136.4874    5104344.48049   3975838.62947                  22121134.9644
        49.0004         35.2504
  23861083.9984   -3888688.07049  -3025515.85546                  23861082.5524
        45.0004         24.2504
  21329866.8514  -12833171.13349  -9992342.99247                  21329864.9344
        49.7504         38.5004
  21367313.6474    4498503.69949   3504583.33248                  21367311.4354
        50.2504         39.5004
 04  7  7 21 35  0.0000000  0  5G 1G11G16G20G25
  21772468.0594   -9416209.18449  -7330109.46147                  21772466.8884
        49.5004         36.2504
  22127899.6634    5139885.18849   4003532.66447                  22127898.2744
        49.7504         35.2504
  23853883.8834   -3926520.96949  -3054995.98446                  23853883.4514
        44.0004         24.7504
  21324828.8914  -12859645.71549 -10012972.53547                  21324826.7084
        50.0004         38.5004
  21373645.9774    4531781.07449   3530513.75848                  21373643.6314
        50.2504         40.0004
 04  7  7 21 35 15.0000000  0  5G 1G11G16G20G25
  21769507.1194   -9431768.73849  -7342233.77747                  21769506.3784
        50.0004         36.7504
  22134681.6214    5175523.13749   4031302.47747                  22134679.8514
        50.2504         34.7504
  23846689.6084   -3964328.35549  -3084456.24246                  23846688.8344
        44.0004         23.0004
  21319804.6634  -12886048.66449 -10033546.25047                  21319802.3614
        50.5004         39.2504
  21379996.5734    4565152.88349   3556517.76248                  21379994.3174
        51.2504         40.0004
 04  7  7 21 35 30.0000000  0  5G 1G11G16G20G25
  21766555.2644   -9447280.91049  -7354321.17247                  21766554.4854
        49.5004         37.0004
  22141481.5594    5211258.03149   4059147.84047                  22141480.0964
        50.0004         35.0004
  23839500.0254   -4002109.67649  -3113896.18046                  23839499.5584
        43.5004         23.0004
  21314793.8824  -12912379.63349 -10054063.87947                  21314791.6724
        50.0004         38.5004
  21386364.8334    4598618.93049   3582595.19148                  21386362.6154
        51.0004         40.0004
 04  7  7 21 35 45.0000000  0  5G 1G11G16G20G25
  21763612.5734   -9462746.93449  -7366372.60247                  21763611.2494
        50.0004         37.0004
  22148299.6854    5247088.66449   4087067.78947                  22148298.1314
        49.5004         35.0004
  23832314.7924   -4039865.66849  -3143316.39546                  23832314.0464
        43.0004         22.5004
  21309797.1434  -12938639.44949 -10074526.06647                  21309794.6644
        50.0004         38.7504
  21392751.1474    4632177.83649   3608744.99248                  21392748.9814
        51.2504         40.5004
 04  7  7 21 36  0.0000000  0  5G 1G11G16G20G25
  21760677.6504   -9478168.55549  -7378389.44547                  21760676.5854
        50.5004         37.0004
  22155135.9264    5283013.07049   4115060.81347                  22155134.4944
        49.7504         35.0004
  23825134.8014   -4077597.63749  -3172717.87146                  23825133.5964
        41.7504         22.5004
  21304813.1514  -12964829.52049 -10094933.90647                  21304811.0524
        50.0004         38.5004
  21399154.5004    4665827.65649   3634965.62948                  21399152.3344
        51.2504         40.2504
 04  7  7 21 36 15.0000000  0  5G 1G11G16G20G25
  21757751.2244   -9493544.91449  -7390371.00847                  21757750.1764
        50.0004         36.7504
  22161990.3004    5319031.64849   4143127.21547                  22161988.7274
        48.0004         34.7504
  23817959.5934   -4115304.27749  -3202099.64546                  23817958.4374
        43.0004         23.5004
  21299842.9534  -12990948.67249 -10115286.48847                  21299840.8684
        49.7504         38.5004
  21405574.9784    4699568.91849   3661257.51648                  21405572.9524
        50.7504         40.2504
 04  7  7 21 36 30.0000000  0  5G 1G11G16G20G25
  21754834.1734   -9508876.59449  -7402317.76247                  21754832.8944
        49.7504         37.0004
  22168861.9294    5355143.52349   4171266.32047                  22168860.9514
        49.2504         34.5004
  23810788.1234   -4152985.88349  -3231461.89146                  23810787.7734
        42.5004         23.5004
  21294885.8404  -13016997.29349 -10135584.10947                  21294883.6434
        50.0004         39.0004
  21412013.4704    4733400.88349   3687620.09048                  21412011.0244
        51.0004         40.5004
 04  7  7 21 36 45.0000000  0  5G 1G11G16G20G25
  21751924.9894   -9524164.31249  -7414230.25447                  21751923.7744
        49.7504         36.2504
  22175751.2884    5391347.81349   4199477.43447                  22175750.2354
        48.2504         34.2504
  23803622.9314   -4190642.68049  -3260804.78146                  23803621.6444
        43.2504         24.2504
  21289942.3234  -13042975.67249 -10155826.98847                  21289940.3294
        50.5004         39.0004
  21418468.4834    4767322.62949   3714052.60548                  21418465.9064
        50.7504         40.0004
 04  7  7 21 37  0.0000000  0  5G 1G11G16G20G25
  21749024.1714   -9539407.88749  -7426108.35947                  21749022.8674
        50.5004         36.5004
  22182658.6064    5427644.40649   4227760.46947                  22182656.8454
        48.7504         34.0004
  23796461.8164   -4228274.03949  -3290127.89846                  23796460.9044
        42.7504         23.0004
  21285012.3364  -13068883.42649 -10176014.84447                  21285010.1574
        50.7504         39.0004
  21424940.2554    4801334.11349   3740555.07048                  21424938.3024
        51.5004         39.7504
 04  7  7 21 37 15.0000000  0  5G 1G11G16G20G25
  21746131.4554   -9554608.61349  -7437953.06247                  21746130.2804
        49.7504         36.5004
  22189583.0444    5464031.77049   4256114.24247                  22189581.2884
        49.2504         34.7504
  23789305.5034   -4265880.80549  -3319431.79746                  23789304.9344
        42.5004         25.0004
  21280095.5144  -13094721.46549 -10196148.37547                  21280093.2724
        51.2504         38.7504
  21431429.1994    4835433.82449   3767126.27347                  21431427.1354
        51.5004         39.2504
 04  7  7 21 37 30.0000000  0  5G 1G11G16G20G25
  21743247.0994   -9569766.18749  -7449764.14847                  21743246.1874
        49.7504         37.5004
  22196524.4234    5500510.05549   4284538.86347                  22196522.5584
        49.0004         34.5004
  23782154.4244   -4303462.15249  -3348715.93047                  23782153.9194
        41.7504         26.0004
  21275192.0954  -13120489.07849 -10216227.02747                  21275189.9244
        51.0004         38.2504
  21437935.1834    4869621.94949   3793766.36348                  21437933.0014
        52.2504         39.7504
 04  7  7 21 37 45.0000000  0  5G 1G11G16G20G25
  21740371.0134   -9584880.07449  -7461541.19947                  21740370.1594
        50.0004         37.2504
  22203483.4124    5537079.32449   4313034.38347                  22203481.6294
        48.2504         34.0004
  23775007.1614   -4341017.30149  -3377979.64846                  23775007.0604
        42.0004         24.0004
  21270302.2354  -13146185.52749 -10236250.23047                  21270300.1004
        51.0004         38.2504
  21444457.6454    4903898.62949   3820475.46148                  21444455.8994
        52.0004         39.7504
 04  7  7 21 38  0.0000000  0  5G 1G11G16G20G25
  21737503.5034   -9599949.48449  -7473283.58247                  21737502.6494
        50.0004         37.2504
  22210459.7444    5573740.23449   4341601.31347                  22210457.9324
        49.0004         34.2504
  23767866.0014   -4378544.89149  -3407221.87146                  23767865.1424
        41.7504         24.5004
  21265426.1804  -13171809.76649 -10256217.16847                  21265423.8874
        50.5004         38.7504
  21450997.2454    4938264.50449   3847254.05948                  21450995.6384
        52.0004         40.0004
 04  7  7 21 38 15.0000000  0  5G 1G11G16G20G25
  21734644.9454   -9614973.33649  -7484990.46547                  21734644.0634
        50.0004         37.2504
  22217453.9474    5610493.53149   4370240.23047                  22217451.8264
        49.0004         34.7504
  23760730.2764   -4416043.39149  -3436441.41846                  23760729.5984
        42.5004         24.5004
  21260563.8924  -13197360.21149 -10276126.59447                  21260561.8684
        50.7504         39.0004
  21457554.2494    4972720.37949   3874102.77748                  21457552.3394
        51.2504         40.2504
 04  7  7 21 38 30.0000000  0  5G 1G11G16G20G25
  21731794.6104   -9629950.22749  -7496660.75847                  21731793.5124
        49.7504         37.0004
  22224465.3854    5647340.27349   4398951.95747                  22224463.6904
        49.2504         34.0004
  23753600.1984   -4453511.17249  -3465637.03946                  23753599.5844
        42.0004         23.0004
  21255716.0944  -13222835.28949 -10295977.29747                  21255713.7994
        51.0004         39.2504
  21464128.3864    5007267.50049   3901022.61748                  21464126.1254
        51.2504         39.5004
 04  7  7 21 38 45.0000000  0  5G 1G11G16G20G25
  21728953.0784   -9644880.75849  -7508294.93047                  21728952.3264
        50.0004         37.5004
  22231494.5084    5684279.64549   4427735.86747                  22231492.9414
        48.7504         33.5004
  23746476.5144   -4490948.23449  -3494808.74247                  23746475.6694
        42.5004         27.0004
  21250882.8374  -13248235.27749 -10315769.49647                  21250880.0764
        50.5004         39.0004
  21470719.6014    5041904.99249   3928012.86348                  21470717.3074
        51.7504         39.5004
 04  7  7 21 39  0.0000000  0  5G 1G11G16G20G25
  21726120.9154   -9659765.87149  -7519893.70347                  21726119.6354
        49.7504         37.5004
  22238541.4934    5721310.51649   4456591.05547                  22238540.0164
        48.5004         34.2504
  23739358.1314   -4528355.15649  -3523956.93747                  23739358.6164
        42.7504         27.0004
  21246063.3124  -13273560.84049 -10335503.69147                  21246060.6344
        50.7504         39.0004
  21477327.6504    5076631.73849   3955072.66448                  21477326.1354
        51.0004         39.7504
 04  7  7 21 39 15.0000000  0  5G 1G11G16G20G25
  21723297.0564   -9674604.64849  -7531456.37147                  21723296.0924
        50.2504         37.2504
  22245605.5024    5758433.34849   4485517.91847                  22245604.1534
        49.0004         33.5004
  23732245.8064   -4565730.60249  -3553080.61347                  23732245.7584
        42.2504         26.5004
  21241258.8414  -13298810.72349 -10355178.92247                  21241256.2744
        50.0004         39.0004
  21483953.3714    5111448.35249   3982202.47348                  21483951.5164
        51.7504         40.2504
 04  7  7 21 39 30.0000000  0  5G 1G11G16G20G25
  21720482.1654   -9689396.35249  -7542982.36747                  21720481.4334
        50.2504         37.5004
  22252687.4734    5795648.85549   4514516.98847                  22252686.1724
        48.5004         34.0004
  23725139.9334   -4603073.34049  -3582178.80947                  23725138.8554
        42.5004         26.5004
  21236468.1624  -13323983.76249 -10374794.27347                  21236465.8724
        49.5004         39.0004
  21490595.6334    5146355.37949   4009402.75848                  21490593.9744
        50.7504         40.0004
 04  7  7 21 39 45.0000000  0  5G 1G11G16G20G25
  21717676.1324   -9704143.58649  -7554473.70747                  21717675.0664
        50.0004         37.0004
  22259786.6504    5832953.99249   4543585.91047                  22259784.5844
        49.0004         34.2504
  23718039.1874   -4640385.56249  -3611253.21947                  23718038.8834
        42.7504         26.5004
  21231692.2704  -13349082.34049 -10394351.59447                  21231689.6994
        50.2504         38.2504
  21497255.1074    5181350.00849   4036671.28948                  21497253.0474
        51.2504         39.5004
 04  7  7 21 40  0.0000000  0  5G 1G11G16G20G25
  21714878.3194   -9718845.50449  -7565929.74247                  21714877.5444
        50.2504         36.7504
  22266902.9704    5870349.39849   4572725.16447                  22266901.0654
        49.2504         34.0004
  23710945.3014   -4677666.08649  -3640302.92647                  23710944.8164
        43.5004         26.0004
  21226930.6104  -13374105.28149 -10413849.98847                  21226928.0354
        50.0004         38.5004
  21503931.2824    5216432.82449   4064008.54748                  21503929.0524
        51.2504         39.5004
 04  7  7 21 40 15.0000000  0  5G 1G11G16G20G25
  21712089.0644   -9733501.32449  -7577349.84447                  21712088.4744
        50.0004         37.0004
  22274036.5384    5907835.58649   4601935.15647                  22274034.7464
        49.5004         34.0004
  23703856.8844   -4714913.60549  -3669326.91847                  23703856.3934
        43.2504         27.0004
  21222183.3904  -13399051.51649 -10433288.60947                  21222180.8274
        49.5004         38.7504
  21510624.0444    5251604.41049   4091414.97348                  21510621.5854
        51.2504         39.5004
 04  7  7 21 40 30.0000000  0  5G 1G11G16G20G25
  21709308.9764   -9748111.76249  -7588734.59047                  21709308.0244
        50.2504         37.0004
  22281186.8774    5945411.56649   4631215.11747                  22281184.8034
        48.2504         34.2504
  23696774.5614   -4752128.41849  -3698325.43747                  23696775.0114
        43.0004         26.0004
  21217450.7334  -13423921.58249 -10452667.87547                  21217448.8274
        50.0004         38.7504
  21517333.5874    5286863.66849   4118889.69947                  21517331.3844
        50.2504         39.2504
 04  7  7 21 40 45.0000000  0  5G 1G11G16G20G25
  21706537.3444   -9762676.85949  -7600084.00047                  21706536.2864
        50.0004         37.7504
  22288354.5294    5983077.00849   4660564.78547                  22288352.1644
        49.0004         33.7504
  23689699.8304   -4789310.32049  -3727298.29346                  23689699.1994
        43.0004         25.5004
  21212732.7854  -13448715.02049 -10471987.42647                  21212730.5514
        50.0004         39.0004
  21524060.0164    5322210.49649   4146432.68848                  21524058.0034
        50.7504         39.5004
 04  7  7 21 41  0.0000000  0  5G 1G11G16G20G25
  21703774.4454   -9777195.37949  -7611397.13347                  21703773.7364
        49.7504         37.5004
  22295538.9504    6020832.85549   4689984.89847                  22295537.3004
        49.7504         34.0004
  23682630.5124   -4826457.44949  -3756244.06246                  23682630.2974
        42.5004         24.7504
  21208029.5704  -13473430.21949 -10491246.01247                  21208027.5024
        49.5004         39.0004
  21530802.9904    5357645.85949   4174044.64548                  21530801.0384
        50.5004         39.7504
 04  7  7 21 41 15.0000000  0  5G 1G11G16G20G25
  21701020.1324   -9791669.01249  -7622675.28147                  21701019.5554
        50.5004         37.0004
  22302740.6214    6058677.06649   4719473.87547                  22302738.5414
        49.2504         34.2504
  23675568.4634   -4863571.02049  -3785163.70746                  23675567.9204
        41.7504         25.5004
  21203340.9494  -13498068.78149 -10510444.88747                  21203338.8104
        50.0004         39.2504
  21537562.6354    5393167.78949   4201724.05947                  21537560.5564
        50.2504         39.2504
 04  7  7 21 41 30.0000000  0  5G 1G11G16G20G25
  21698274.4324   -9806099.60249  -7633919.88347                  21698273.4304
        50.5004         37.5004
  22309958.3514    6096607.62549   4749030.13347                  22309956.3874
        48.7504         33.5004
  23668511.9354   -4900652.61349  -3814058.40646                  23668511.6964
        43.5004         25.2504
  21198666.6854  -13522632.14549 -10529585.16447                  21198664.3694
        50.5004         38.7504
  21544338.0334    5428774.24249   4229469.34047                  21544336.2814
        49.7504         39.0004
 04  7  7 21 41 45.0000000  0  5G 1G11G16G20G25
  21695536.6914   -9820486.87949  -7645130.73447                  21695535.2194
        50.0004         37.5004
  22317192.7344    6134624.47349   4778653.62547                  22317191.0544
        49.5004         33.5004
  23661461.7074   -4937701.46149  -3842927.59446                  23661460.8924
        43.5004         25.2504
  21194006.8634  -13547119.66049 -10548666.33248                  21194004.9094
        50.5004         39.5004
  21551129.8624    5464465.28949   4257280.52747                  21551128.2834
        50.2504         39.2504
 04  7  7 21 42  0.0000000  0  5G 1G11G16G20G25
  21692806.8974   -9834830.62149  -7656307.67247                  21692805.9744
        50.0004         37.5004
  22324443.3764    6172727.59449   4808344.34447                  22324441.5994
        49.0004         33.2504
  23654418.1034   -4974716.96149  -3871770.80146                  23654416.4384
        42.2504         25.2504
  21189361.5854  -13571530.87549 -10567688.05947                  21189359.5634
        50.2504         39.0004
  21557937.9304    5500240.93049   4285157.63747                  21557936.2964
        50.5004         39.2504
 04  7  7 21 42 15.0000000  0  5G 1G11G16G20G25
  21690085.8194   -9849130.51649  -7667450.43447                  21690084.2774
        50.2504         37.2504
  22331710.9994    6210917.10249   4838102.38347                  22331708.7644
        49.2504         34.0004
  23647380.9384   -5011698.19149  -3900587.29346                  23647379.6374
        42.7504         23.5004
  21184730.8974  -13595864.99649 -10586649.71147                  21184728.7714
        50.5004         39.0004
  21564761.8054    5536101.31349   4313100.78148                  21564759.7714
        50.2504         39.5004
 04  7  7 21 42 30.0000000  0  5G 1G11G16G20G25
  21687372.6384   -9863387.24649  -7678559.56247                  21687371.5414
        50.5004         37.5004
  22338994.3934    6249191.90649   4867926.87147                  22338992.2764
        49.5004         34.0004
  23640349.1324   -5048645.64149  -3929377.46947                  23640348.9884
        42.7504         26.5004
  21180115.0094  -13620122.56649 -10605551.70748                  21180112.7124
        50.2504         39.5004
  21571601.8574    5572045.37949   4341109.14147                  21571600.2194
        50.0004         39.2504
 04  7  7 21 42 45.0000000  0  5G 1G11G16G20G25
  21684667.5174   -9877603.15649  -7689636.88347                  21684666.2644
        50.0004         37.2504
  22346293.7154    6287549.47349   4897815.86347                  22346291.5934
        48.5004         33.7504
  23633324.1444   -5085561.07449  -3958142.71946                  23633323.4634
        42.2504         24.5004
  21175513.2054  -13644305.52349 -10624395.56648                  21175510.7744
        49.0004         40.2504
  21578457.1764    5608070.65249   4369180.77047                  21578455.9784
        48.2504         39.2504
 04  7  7 21 43  0.0000000  0  5G 1G11G16G20G25
  21681970.0434   -9891779.01249  -7700683.00047                  21681968.5664
        50.5004         37.0004
  22353608.8734    6325988.68049   4927768.46947                  22353606.9164
        49.7504         34.2504
  23626305.1074   -5122444.83649  -3986883.27746                  23626304.7344
        41.7504         23.5004
  21170925.4094  -13668414.40249 -10643181.69548                  21170922.9764
        49.5004         39.5004
  21585328.0104    5644176.10949   4397314.87147                  21585326.0464
        49.5004         39.2504
 04  7  7 21 43 15.0000000  0  5G 1G11G16G20G25
  21679279.9744   -9905914.88749  -7711697.95347                  21679278.7494
        50.7504         37.0004
  22360938.6004    6364509.26249   4957784.48447                  22360936.8364
        49.0004         33.5004
  23619293.2804   -5159296.53949  -4015598.85546                  23619291.8414
        42.2504         24.7504
  21166351.8584  -13692448.87549 -10661909.84848                  21166349.4134
        49.5004         40.0004
  21592213.6614    5680361.48849   4425511.26647                  21592211.6414
        49.5004         39.0004
 04  7  7 21 43 30.0000000  0  5G 1G11G16G20G25
  21676597.8354   -9920009.94549  -7722681.11347                  21676596.7634
        50.2504         37.0004
  22368284.4364    6403111.77049   4987864.33647                  22368282.7984
        48.5004         34.0004
  23612287.1354   -5196114.90649  -4044288.46547                  23612285.7944
        43.0004         26.0004
  21161792.2694  -13716407.78149 -10680579.12548                  21161790.4084
        50.5004         39.5004
  21599114.6394    5716627.29349   4453770.33248                  21599112.9714
        50.0004         39.7504
 04  7  7 21 43 45.0000000  0  5G 1G11G16G20G25
  21673923.7564   -9934062.36749  -7733631.04747                  21673922.6424
        50.2504         37.5004
  22375646.1864    6441797.62149   5018009.12947                  22375644.1694
        48.7504         33.5004
  23605287.1184   -5232897.77749  -4072950.39847                  23605286.9514
        42.7504         26.0004
  21157248.0154  -13740289.09449 -10699187.93747                  21157245.5174
        50.5004         39.2504
  21606032.2244    5752975.18449   4482093.35247                  21606029.9924
        50.5004         39.2504
 04  7  7 21 44  0.0000000  0  5G 1G11G16G20G25
  21671257.7794   -9948071.14849  -7744546.96947                  21671256.4934
        50.5004         37.5004
  22383024.0424    6480567.54749   5048219.42647                  22383022.0524
        49.5004         33.5004
  23598294.5704   -5269643.74249  -4101583.59047                  23598294.1014
        43.0004         25.7504
  21152718.5864  -13764091.46949 -10717735.23448                  21152716.1924
        50.2504         39.7504
  21612963.9844    5789405.97749   4510480.97348                  21612962.5424
        49.5004         39.5004
 04  7  7 21 44 15.0000000  0  5G 1G11G16G20G25
  21668600.0764   -9962036.91849  -7755429.37147                  21668598.9014
        50.0004         37.7504
  22390417.4874    6519420.71149   5078494.60247                  22390415.6254
        49.5004         33.2504
  23591309.5444   -5306353.05949  -4130188.18747                  23591308.7584
        42.2504         26.0004
  21148204.0424  -13787815.23449 -10736221.27748                  21148201.6934
        50.5004         40.0004
  21619912.4494    5825918.68849   4538932.42648                  21619910.4034
        50.5004         39.7504
 04  7  7 21 44 30.0000000  0  5G 1G11G16G20G25
  21665951.7004   -9975956.83249  -7766276.04747                  21665950.3974
        49.5004         37.0004
  22397827.1464    6558359.57049   5108836.54747                  22397825.4554
        49.0004         33.2504
  23584331.4374   -5343022.36749  -4158761.62147                  23584330.7414
        42.7504         26.2504
  21143705.1804  -13811457.30949 -10754643.67248                  21143702.8534
        49.7504         39.5004
  21626876.8434    5862515.95349   4567449.77047                  21626874.8954
        49.5004         39.2504
 04  7  7 21 44 45.0000000  0  5G 1G11G16G20G25
  21663311.3594   -9989831.22749  -7777087.25047                  21663310.2144
        50.7504         37.5004
  22405253.2694    6597383.56349   5139244.81647                  22405251.5154
        49.0004         33.5004
  23577361.2324   -5379651.46549  -4187303.73847                  23577360.9354
        43.0004         26.5004
  21139221.5044  -13835017.60949 -10773002.34048                  21139219.2274
        49.5004         39.5004
  21633856.8444    5899197.26249   4596032.60247                  21633854.9384
        49.2504         39.0004
 04  7  7 21 45  0.0000000  0  5G 1G11G16G20G25
  21660679.5404  -10003660.61349  -7787863.38347                  21660678.2594
        51.2504         38.0004
  22412695.7004    6636491.92249   5169718.84847                  22412693.7964
        48.2504         32.7504
  23570398.9284   -5416240.66049  -4215814.75847                  23570397.4984
        43.2504         27.0004
  21134753.8334  -13858496.40249 -10791297.50048                  21134751.6014
        50.0004         39.5004
  21640853.0274    5935961.75049   4624680.24247                  21640851.3544
        49.2504         39.2504
 04  7  7 21 45 15.0000000  0  5G 1G11G16G20G25
  21658056.5624  -10017445.35549  -7798604.73047                  21658055.0484
        50.7504         38.0004
  22420153.0834    6675683.99249   5200258.09847                  22420152.0374
        49.0004         33.2504
  23563443.0494   -5452789.84449  -4244294.61347                  23563442.0724
        44.0004         27.0004
  21130301.7594  -13881893.70749 -10809529.16048                  21130299.0624
        50.0004         40.0004
  21647864.7664    5972808.86749   4653392.27748                  21647863.2114
        50.0004         39.5004
